<?xml version="1.0" encoding="UTF-8" standalone="no" ?>
<gpx xmlns="http://www.topografix.com/GPX/1/1" xmlns:xsi="http://www.w3.org/2001/XMLSchema-instance" xsi:schemaLocation="http://www.topografix.com/GPX/1/1 http://www.topografix.com/GPX/1/1/gpx.xsd" version="1.1" creator="VisuGPX - https://www.visugpx.com">
  <metadata>
    <name>BAUNE A travers bois et cultures</name>
    <desc><![CDATA[Organisée par l\'office de tourisme Loire Authion et la commune de Bauné.]]></desc>
  </metadata>
  <trk>
    <name><![CDATA[19/08/2012 8:39]]></name>
    <desc><![CDATA[]]></desc>
    <trkseg>
      <trkpt lat="47.50276" lon="-0.31718">
        <ele>29</ele>
        <time>2012-08-20T06:39:05.000Z</time>
      </trkpt>
      <trkpt lat="47.5028" lon="-0.31714">
        <ele>29</ele>
        <time>2012-08-20T06:39:30.000Z</time>
      </trkpt>
      <trkpt lat="47.50278" lon="-0.31706">
        <ele>29</ele>
        <time>2012-08-20T06:39:35.000Z</time>
      </trkpt>
      <trkpt lat="47.50276" lon="-0.317">
        <ele>29</ele>
        <time>2012-08-20T06:39:44.000Z</time>
      </trkpt>
      <trkpt lat="47.50272" lon="-0.31696">
        <ele>29</ele>
        <time>2012-08-20T06:40:08.000Z</time>
      </trkpt>
      <trkpt lat="47.5027" lon="-0.31691">
        <ele>29</ele>
        <time>2012-08-20T06:40:15.000Z</time>
      </trkpt>
      <trkpt lat="47.50265" lon="-0.31691">
        <ele>29</ele>
        <time>2012-08-20T06:40:25.000Z</time>
      </trkpt>
      <trkpt lat="47.5026" lon="-0.31692">
        <ele>29</ele>
        <time>2012-08-20T06:40:34.000Z</time>
      </trkpt>
      <trkpt lat="47.50258" lon="-0.31686">
        <ele>29</ele>
        <time>2012-08-20T06:40:58.000Z</time>
      </trkpt>
      <trkpt lat="47.50253" lon="-0.3169">
        <ele>29</ele>
        <time>2012-08-20T06:41:03.000Z</time>
      </trkpt>
      <trkpt lat="47.50248" lon="-0.3169">
        <ele>30</ele>
        <time>2012-08-20T06:41:06.000Z</time>
      </trkpt>
      <trkpt lat="47.50243" lon="-0.31689">
        <ele>30</ele>
        <time>2012-08-20T06:41:09.000Z</time>
      </trkpt>
      <trkpt lat="47.50238" lon="-0.31691">
        <ele>30</ele>
        <time>2012-08-20T06:41:12.000Z</time>
      </trkpt>
      <trkpt lat="47.50234" lon="-0.31699">
        <ele>30</ele>
        <time>2012-08-20T06:41:16.000Z</time>
      </trkpt>
      <trkpt lat="47.50235" lon="-0.31708">
        <ele>30</ele>
        <time>2012-08-20T06:41:18.000Z</time>
      </trkpt>
      <trkpt lat="47.50235" lon="-0.31715">
        <ele>30</ele>
        <time>2012-08-20T06:41:20.000Z</time>
      </trkpt>
      <trkpt lat="47.50236" lon="-0.31724">
        <ele>30</ele>
        <time>2012-08-20T06:41:23.000Z</time>
      </trkpt>
      <trkpt lat="47.50237" lon="-0.3173">
        <ele>30</ele>
        <time>2012-08-20T06:41:26.000Z</time>
      </trkpt>
      <trkpt lat="47.50239" lon="-0.31738">
        <ele>30</ele>
        <time>2012-08-20T06:41:29.000Z</time>
      </trkpt>
      <trkpt lat="47.50239" lon="-0.31745">
        <ele>30</ele>
        <time>2012-08-20T06:41:32.000Z</time>
      </trkpt>
      <trkpt lat="47.50238" lon="-0.31753">
        <ele>30</ele>
        <time>2012-08-20T06:41:35.000Z</time>
      </trkpt>
      <trkpt lat="47.50238" lon="-0.3176">
        <ele>29</ele>
        <time>2012-08-20T06:41:38.000Z</time>
      </trkpt>
      <trkpt lat="47.50238" lon="-0.31767">
        <ele>29</ele>
        <time>2012-08-20T06:41:41.000Z</time>
      </trkpt>
      <trkpt lat="47.50238" lon="-0.31775">
        <ele>29</ele>
        <time>2012-08-20T06:41:44.000Z</time>
      </trkpt>
      <trkpt lat="47.50237" lon="-0.31782">
        <ele>29</ele>
        <time>2012-08-20T06:41:47.000Z</time>
      </trkpt>
      <trkpt lat="47.50237" lon="-0.31789">
        <ele>29</ele>
        <time>2012-08-20T06:41:50.000Z</time>
      </trkpt>
      <trkpt lat="47.50236" lon="-0.31797">
        <ele>29</ele>
        <time>2012-08-20T06:41:54.000Z</time>
      </trkpt>
      <trkpt lat="47.50235" lon="-0.31804">
        <ele>29</ele>
        <time>2012-08-20T06:41:57.000Z</time>
      </trkpt>
      <trkpt lat="47.50234" lon="-0.31812">
        <ele>29</ele>
        <time>2012-08-20T06:42:00.000Z</time>
      </trkpt>
      <trkpt lat="47.50232" lon="-0.31819">
        <ele>28</ele>
        <time>2012-08-20T06:42:03.000Z</time>
      </trkpt>
      <trkpt lat="47.50231" lon="-0.31825">
        <ele>28</ele>
        <time>2012-08-20T06:42:06.000Z</time>
      </trkpt>
      <trkpt lat="47.5023" lon="-0.31833">
        <ele>28</ele>
        <time>2012-08-20T06:42:10.000Z</time>
      </trkpt>
      <trkpt lat="47.50228" lon="-0.31841">
        <ele>28</ele>
        <time>2012-08-20T06:42:14.000Z</time>
      </trkpt>
      <trkpt lat="47.50227" lon="-0.31848">
        <ele>28</ele>
        <time>2012-08-20T06:42:18.000Z</time>
      </trkpt>
      <trkpt lat="47.50224" lon="-0.31854">
        <ele>28</ele>
        <time>2012-08-20T06:42:22.000Z</time>
      </trkpt>
      <trkpt lat="47.50221" lon="-0.3186">
        <ele>28</ele>
        <time>2012-08-20T06:42:26.000Z</time>
      </trkpt>
      <trkpt lat="47.50217" lon="-0.31864">
        <ele>28</ele>
        <time>2012-08-20T06:42:30.000Z</time>
      </trkpt>
      <trkpt lat="47.50213" lon="-0.31868">
        <ele>28</ele>
        <time>2012-08-20T06:42:37.000Z</time>
      </trkpt>
      <trkpt lat="47.5021" lon="-0.31874">
        <ele>28</ele>
        <time>2012-08-20T06:42:42.000Z</time>
      </trkpt>
      <trkpt lat="47.50208" lon="-0.31882">
        <ele>28</ele>
        <time>2012-08-20T06:42:49.000Z</time>
      </trkpt>
      <trkpt lat="47.50207" lon="-0.31889">
        <ele>28</ele>
        <time>2012-08-20T06:42:54.000Z</time>
      </trkpt>
      <trkpt lat="47.50205" lon="-0.31895">
        <ele>28</ele>
        <time>2012-08-20T06:43:00.000Z</time>
      </trkpt>
      <trkpt lat="47.50201" lon="-0.31899">
        <ele>28</ele>
        <time>2012-08-20T06:43:04.000Z</time>
      </trkpt>
      <trkpt lat="47.50196" lon="-0.31903">
        <ele>28</ele>
        <time>2012-08-20T06:43:08.000Z</time>
      </trkpt>
      <trkpt lat="47.50191" lon="-0.31907">
        <ele>28</ele>
        <time>2012-08-20T06:43:12.000Z</time>
      </trkpt>
      <trkpt lat="47.50187" lon="-0.3191">
        <ele>28</ele>
        <time>2012-08-20T06:43:16.000Z</time>
      </trkpt>
      <trkpt lat="47.50182" lon="-0.3191">
        <ele>28</ele>
        <time>2012-08-20T06:43:20.000Z</time>
      </trkpt>
      <trkpt lat="47.50177" lon="-0.31911">
        <ele>28</ele>
        <time>2012-08-20T06:43:24.000Z</time>
      </trkpt>
      <trkpt lat="47.50172" lon="-0.31911">
        <ele>28</ele>
        <time>2012-08-20T06:43:29.000Z</time>
      </trkpt>
      <trkpt lat="47.50167" lon="-0.31908">
        <ele>28</ele>
        <time>2012-08-20T06:43:34.000Z</time>
      </trkpt>
      <trkpt lat="47.50162" lon="-0.31906">
        <ele>28</ele>
        <time>2012-08-20T06:43:38.000Z</time>
      </trkpt>
      <trkpt lat="47.50158" lon="-0.31905">
        <ele>28</ele>
        <time>2012-08-20T06:43:42.000Z</time>
      </trkpt>
      <trkpt lat="47.50153" lon="-0.31904">
        <ele>28</ele>
        <time>2012-08-20T06:43:46.000Z</time>
      </trkpt>
      <trkpt lat="47.50148" lon="-0.31903">
        <ele>28</ele>
        <time>2012-08-20T06:43:50.000Z</time>
      </trkpt>
      <trkpt lat="47.50142" lon="-0.31904">
        <ele>28</ele>
        <time>2012-08-20T06:43:54.000Z</time>
      </trkpt>
      <trkpt lat="47.50138" lon="-0.31903">
        <ele>28</ele>
        <time>2012-08-20T06:43:58.000Z</time>
      </trkpt>
      <trkpt lat="47.50133" lon="-0.31899">
        <ele>28</ele>
        <time>2012-08-20T06:44:02.000Z</time>
      </trkpt>
      <trkpt lat="47.50129" lon="-0.31895">
        <ele>28</ele>
        <time>2012-08-20T06:44:06.000Z</time>
      </trkpt>
      <trkpt lat="47.50124" lon="-0.31891">
        <ele>28</ele>
        <time>2012-08-20T06:44:11.000Z</time>
      </trkpt>
      <trkpt lat="47.50119" lon="-0.31888">
        <ele>28</ele>
        <time>2012-08-20T06:44:15.000Z</time>
      </trkpt>
      <trkpt lat="47.50115" lon="-0.31887">
        <ele>28</ele>
        <time>2012-08-20T06:44:19.000Z</time>
      </trkpt>
      <trkpt lat="47.50109" lon="-0.31883">
        <ele>28</ele>
        <time>2012-08-20T06:44:31.000Z</time>
      </trkpt>
      <trkpt lat="47.50103" lon="-0.31881">
        <ele>28</ele>
        <time>2012-08-20T06:44:34.000Z</time>
      </trkpt>
      <trkpt lat="47.50098" lon="-0.31881">
        <ele>28</ele>
        <time>2012-08-20T06:44:37.000Z</time>
      </trkpt>
      <trkpt lat="47.50093" lon="-0.31884">
        <ele>28</ele>
        <time>2012-08-20T06:44:41.000Z</time>
      </trkpt>
      <trkpt lat="47.50088" lon="-0.31883">
        <ele>28</ele>
        <time>2012-08-20T06:44:44.000Z</time>
      </trkpt>
      <trkpt lat="47.50083" lon="-0.31884">
        <ele>28</ele>
        <time>2012-08-20T06:44:48.000Z</time>
      </trkpt>
      <trkpt lat="47.50077" lon="-0.31884">
        <ele>28</ele>
        <time>2012-08-20T06:44:52.000Z</time>
      </trkpt>
      <trkpt lat="47.50072" lon="-0.31884">
        <ele>28</ele>
        <time>2012-08-20T06:44:56.000Z</time>
      </trkpt>
      <trkpt lat="47.50067" lon="-0.31884">
        <ele>28</ele>
        <time>2012-08-20T06:45:00.000Z</time>
      </trkpt>
      <trkpt lat="47.50062" lon="-0.31883">
        <ele>28</ele>
        <time>2012-08-20T06:45:04.000Z</time>
      </trkpt>
      <trkpt lat="47.50057" lon="-0.31882">
        <ele>28</ele>
        <time>2012-08-20T06:45:08.000Z</time>
      </trkpt>
      <trkpt lat="47.50052" lon="-0.31882">
        <ele>28</ele>
        <time>2012-08-20T06:45:12.000Z</time>
      </trkpt>
      <trkpt lat="47.50047" lon="-0.31882">
        <ele>28</ele>
        <time>2012-08-20T06:45:16.000Z</time>
      </trkpt>
      <trkpt lat="47.50043" lon="-0.31882">
        <ele>28</ele>
        <time>2012-08-20T06:45:20.000Z</time>
      </trkpt>
      <trkpt lat="47.50038" lon="-0.3188">
        <ele>28</ele>
        <time>2012-08-20T06:45:24.000Z</time>
      </trkpt>
      <trkpt lat="47.50032" lon="-0.3188">
        <ele>28</ele>
        <time>2012-08-20T06:45:28.000Z</time>
      </trkpt>
      <trkpt lat="47.50028" lon="-0.3188">
        <ele>28</ele>
        <time>2012-08-20T06:45:32.000Z</time>
      </trkpt>
      <trkpt lat="47.50023" lon="-0.31878">
        <ele>28</ele>
        <time>2012-08-20T06:45:36.000Z</time>
      </trkpt>
      <trkpt lat="47.50018" lon="-0.31878">
        <ele>28</ele>
        <time>2012-08-20T06:45:40.000Z</time>
      </trkpt>
      <trkpt lat="47.50012" lon="-0.31878">
        <ele>28</ele>
        <time>2012-08-20T06:45:44.000Z</time>
      </trkpt>
      <trkpt lat="47.50007" lon="-0.31879">
        <ele>28</ele>
        <time>2012-08-20T06:45:48.000Z</time>
      </trkpt>
      <trkpt lat="47.50001" lon="-0.31878">
        <ele>28</ele>
        <time>2012-08-20T06:45:52.000Z</time>
      </trkpt>
      <trkpt lat="47.49996" lon="-0.31878">
        <ele>28</ele>
        <time>2012-08-20T06:45:56.000Z</time>
      </trkpt>
      <trkpt lat="47.49991" lon="-0.31877">
        <ele>28</ele>
        <time>2012-08-20T06:46:00.000Z</time>
      </trkpt>
      <trkpt lat="47.49986" lon="-0.31877">
        <ele>28</ele>
        <time>2012-08-20T06:46:04.000Z</time>
      </trkpt>
      <trkpt lat="47.4998" lon="-0.31876">
        <ele>28</ele>
        <time>2012-08-20T06:46:08.000Z</time>
      </trkpt>
      <trkpt lat="47.49975" lon="-0.31875">
        <ele>28</ele>
        <time>2012-08-20T06:46:12.000Z</time>
      </trkpt>
      <trkpt lat="47.4997" lon="-0.31874">
        <ele>28</ele>
        <time>2012-08-20T06:46:16.000Z</time>
      </trkpt>
      <trkpt lat="47.49965" lon="-0.31872">
        <ele>28</ele>
        <time>2012-08-20T06:46:20.000Z</time>
      </trkpt>
      <trkpt lat="47.4996" lon="-0.31871">
        <ele>28</ele>
        <time>2012-08-20T06:46:23.000Z</time>
      </trkpt>
      <trkpt lat="47.49955" lon="-0.31868">
        <ele>28</ele>
        <time>2012-08-20T06:46:27.000Z</time>
      </trkpt>
      <trkpt lat="47.4995" lon="-0.31865">
        <ele>28</ele>
        <time>2012-08-20T06:46:32.000Z</time>
      </trkpt>
      <trkpt lat="47.49944" lon="-0.31863">
        <ele>28</ele>
        <time>2012-08-20T06:46:36.000Z</time>
      </trkpt>
      <trkpt lat="47.49939" lon="-0.31861">
        <ele>28</ele>
        <time>2012-08-20T06:46:40.000Z</time>
      </trkpt>
      <trkpt lat="47.49934" lon="-0.31861">
        <ele>28</ele>
        <time>2012-08-20T06:46:44.000Z</time>
      </trkpt>
      <trkpt lat="47.49931" lon="-0.31869">
        <ele>28</ele>
        <time>2012-08-20T06:46:47.000Z</time>
      </trkpt>
      <trkpt lat="47.49932" lon="-0.31877">
        <ele>28</ele>
        <time>2012-08-20T06:46:50.000Z</time>
      </trkpt>
      <trkpt lat="47.49934" lon="-0.31885">
        <ele>28</ele>
        <time>2012-08-20T06:46:53.000Z</time>
      </trkpt>
      <trkpt lat="47.49934" lon="-0.31893">
        <ele>28</ele>
        <time>2012-08-20T06:46:56.000Z</time>
      </trkpt>
      <trkpt lat="47.49931" lon="-0.319">
        <ele>29</ele>
        <time>2012-08-20T06:47:00.000Z</time>
      </trkpt>
      <trkpt lat="47.49926" lon="-0.31903">
        <ele>29</ele>
        <time>2012-08-20T06:47:04.000Z</time>
      </trkpt>
      <trkpt lat="47.49922" lon="-0.31908">
        <ele>29</ele>
        <time>2012-08-20T06:47:08.000Z</time>
      </trkpt>
      <trkpt lat="47.49917" lon="-0.3191">
        <ele>29</ele>
        <time>2012-08-20T06:47:12.000Z</time>
      </trkpt>
      <trkpt lat="47.49912" lon="-0.31912">
        <ele>29</ele>
        <time>2012-08-20T06:47:16.000Z</time>
      </trkpt>
      <trkpt lat="47.49907" lon="-0.3191">
        <ele>29</ele>
        <time>2012-08-20T06:47:20.000Z</time>
      </trkpt>
      <trkpt lat="47.49902" lon="-0.31907">
        <ele>28</ele>
        <time>2012-08-20T06:47:25.000Z</time>
      </trkpt>
      <trkpt lat="47.49897" lon="-0.31909">
        <ele>28</ele>
        <time>2012-08-20T06:47:29.000Z</time>
      </trkpt>
      <trkpt lat="47.49892" lon="-0.3191">
        <ele>28</ele>
        <time>2012-08-20T06:47:33.000Z</time>
      </trkpt>
      <trkpt lat="47.49886" lon="-0.31912">
        <ele>28</ele>
        <time>2012-08-20T06:47:37.000Z</time>
      </trkpt>
      <trkpt lat="47.49881" lon="-0.31915">
        <ele>28</ele>
        <time>2012-08-20T06:47:41.000Z</time>
      </trkpt>
      <trkpt lat="47.49876" lon="-0.31914">
        <ele>28</ele>
        <time>2012-08-20T06:47:44.000Z</time>
      </trkpt>
      <trkpt lat="47.49873" lon="-0.31908">
        <ele>28</ele>
        <time>2012-08-20T06:47:47.000Z</time>
      </trkpt>
      <trkpt lat="47.49871" lon="-0.31901">
        <ele>28</ele>
        <time>2012-08-20T06:47:51.000Z</time>
      </trkpt>
      <trkpt lat="47.49866" lon="-0.31898">
        <ele>28</ele>
        <time>2012-08-20T06:47:57.000Z</time>
      </trkpt>
      <trkpt lat="47.49861" lon="-0.31897">
        <ele>28</ele>
        <time>2012-08-20T06:48:02.000Z</time>
      </trkpt>
      <trkpt lat="47.49857" lon="-0.31902">
        <ele>28</ele>
        <time>2012-08-20T06:48:08.000Z</time>
      </trkpt>
      <trkpt lat="47.49853" lon="-0.31906">
        <ele>28</ele>
        <time>2012-08-20T06:48:13.000Z</time>
      </trkpt>
      <trkpt lat="47.49848" lon="-0.31904">
        <ele>28</ele>
        <time>2012-08-20T06:48:17.000Z</time>
      </trkpt>
      <trkpt lat="47.49844" lon="-0.31901">
        <ele>28</ele>
        <time>2012-08-20T06:48:21.000Z</time>
      </trkpt>
      <trkpt lat="47.49839" lon="-0.319">
        <ele>27</ele>
        <time>2012-08-20T06:48:25.000Z</time>
      </trkpt>
      <trkpt lat="47.49833" lon="-0.319">
        <ele>27</ele>
        <time>2012-08-20T06:48:29.000Z</time>
      </trkpt>
      <trkpt lat="47.49832" lon="-0.31894">
        <ele>27</ele>
        <time>2012-08-20T06:48:51.000Z</time>
      </trkpt>
      <trkpt lat="47.49828" lon="-0.31889">
        <ele>27</ele>
        <time>2012-08-20T06:48:56.000Z</time>
      </trkpt>
      <trkpt lat="47.49822" lon="-0.31889">
        <ele>27</ele>
        <time>2012-08-20T06:49:01.000Z</time>
      </trkpt>
      <trkpt lat="47.49818" lon="-0.31892">
        <ele>27</ele>
        <time>2012-08-20T06:49:06.000Z</time>
      </trkpt>
      <trkpt lat="47.49814" lon="-0.31894">
        <ele>27</ele>
        <time>2012-08-20T06:49:15.000Z</time>
      </trkpt>
      <trkpt lat="47.4981" lon="-0.31901">
        <ele>27</ele>
        <time>2012-08-20T06:49:20.000Z</time>
      </trkpt>
      <trkpt lat="47.49806" lon="-0.31905">
        <ele>27</ele>
        <time>2012-08-20T06:49:26.000Z</time>
      </trkpt>
      <trkpt lat="47.49801" lon="-0.31906">
        <ele>27</ele>
        <time>2012-08-20T06:49:31.000Z</time>
      </trkpt>
      <trkpt lat="47.49796" lon="-0.31906">
        <ele>27</ele>
        <time>2012-08-20T06:49:34.000Z</time>
      </trkpt>
      <trkpt lat="47.49791" lon="-0.31908">
        <ele>28</ele>
        <time>2012-08-20T06:49:37.000Z</time>
      </trkpt>
      <trkpt lat="47.49786" lon="-0.31908">
        <ele>28</ele>
        <time>2012-08-20T06:49:40.000Z</time>
      </trkpt>
      <trkpt lat="47.49781" lon="-0.31908">
        <ele>28</ele>
        <time>2012-08-20T06:49:43.000Z</time>
      </trkpt>
      <trkpt lat="47.49776" lon="-0.31908">
        <ele>28</ele>
        <time>2012-08-20T06:49:46.000Z</time>
      </trkpt>
      <trkpt lat="47.49771" lon="-0.31908">
        <ele>28</ele>
        <time>2012-08-20T06:49:49.000Z</time>
      </trkpt>
      <trkpt lat="47.49766" lon="-0.3191">
        <ele>28</ele>
        <time>2012-08-20T06:49:52.000Z</time>
      </trkpt>
      <trkpt lat="47.49761" lon="-0.31913">
        <ele>28</ele>
        <time>2012-08-20T06:49:56.000Z</time>
      </trkpt>
      <trkpt lat="47.49756" lon="-0.31915">
        <ele>28</ele>
        <time>2012-08-20T06:50:00.000Z</time>
      </trkpt>
      <trkpt lat="47.49752" lon="-0.31918">
        <ele>28</ele>
        <time>2012-08-20T06:50:06.000Z</time>
      </trkpt>
      <trkpt lat="47.49747" lon="-0.3192">
        <ele>28</ele>
        <time>2012-08-20T06:50:11.000Z</time>
      </trkpt>
      <trkpt lat="47.49742" lon="-0.31921">
        <ele>28</ele>
        <time>2012-08-20T06:50:15.000Z</time>
      </trkpt>
      <trkpt lat="47.49737" lon="-0.31924">
        <ele>28</ele>
        <time>2012-08-20T06:50:19.000Z</time>
      </trkpt>
      <trkpt lat="47.49732" lon="-0.31926">
        <ele>28</ele>
        <time>2012-08-20T06:50:24.000Z</time>
      </trkpt>
      <trkpt lat="47.49727" lon="-0.31926">
        <ele>28</ele>
        <time>2012-08-20T06:50:29.000Z</time>
      </trkpt>
      <trkpt lat="47.49722" lon="-0.31929">
        <ele>28</ele>
        <time>2012-08-20T06:50:34.000Z</time>
      </trkpt>
      <trkpt lat="47.49717" lon="-0.31929">
        <ele>28</ele>
        <time>2012-08-20T06:50:44.000Z</time>
      </trkpt>
      <trkpt lat="47.49711" lon="-0.3193">
        <ele>28</ele>
        <time>2012-08-20T06:50:48.000Z</time>
      </trkpt>
      <trkpt lat="47.49707" lon="-0.31932">
        <ele>28</ele>
        <time>2012-08-20T06:50:51.000Z</time>
      </trkpt>
      <trkpt lat="47.49701" lon="-0.31933">
        <ele>28</ele>
        <time>2012-08-20T06:50:55.000Z</time>
      </trkpt>
      <trkpt lat="47.49695" lon="-0.31935">
        <ele>28</ele>
        <time>2012-08-20T06:50:59.000Z</time>
      </trkpt>
      <trkpt lat="47.49691" lon="-0.31937">
        <ele>28</ele>
        <time>2012-08-20T06:51:03.000Z</time>
      </trkpt>
      <trkpt lat="47.49686" lon="-0.31938">
        <ele>28</ele>
        <time>2012-08-20T06:51:07.000Z</time>
      </trkpt>
      <trkpt lat="47.49681" lon="-0.31939">
        <ele>28</ele>
        <time>2012-08-20T06:51:11.000Z</time>
      </trkpt>
      <trkpt lat="47.49676" lon="-0.31939">
        <ele>28</ele>
        <time>2012-08-20T06:51:15.000Z</time>
      </trkpt>
      <trkpt lat="47.49671" lon="-0.31939">
        <ele>28</ele>
        <time>2012-08-20T06:51:19.000Z</time>
      </trkpt>
      <trkpt lat="47.49665" lon="-0.31938">
        <ele>28</ele>
        <time>2012-08-20T06:51:23.000Z</time>
      </trkpt>
      <trkpt lat="47.4966" lon="-0.31939">
        <ele>28</ele>
        <time>2012-08-20T06:51:27.000Z</time>
      </trkpt>
      <trkpt lat="47.49655" lon="-0.31942">
        <ele>28</ele>
        <time>2012-08-20T06:51:31.000Z</time>
      </trkpt>
      <trkpt lat="47.4965" lon="-0.31944">
        <ele>28</ele>
        <time>2012-08-20T06:51:35.000Z</time>
      </trkpt>
      <trkpt lat="47.49645" lon="-0.31944">
        <ele>28</ele>
        <time>2012-08-20T06:51:39.000Z</time>
      </trkpt>
      <trkpt lat="47.49642" lon="-0.31937">
        <ele>28</ele>
        <time>2012-08-20T06:51:44.000Z</time>
      </trkpt>
      <trkpt lat="47.4964" lon="-0.31931">
        <ele>28</ele>
        <time>2012-08-20T06:51:48.000Z</time>
      </trkpt>
      <trkpt lat="47.49636" lon="-0.31925">
        <ele>28</ele>
        <time>2012-08-20T06:51:53.000Z</time>
      </trkpt>
      <trkpt lat="47.49632" lon="-0.31921">
        <ele>28</ele>
        <time>2012-08-20T06:51:58.000Z</time>
      </trkpt>
      <trkpt lat="47.49627" lon="-0.31919">
        <ele>28</ele>
        <time>2012-08-20T06:52:02.000Z</time>
      </trkpt>
      <trkpt lat="47.49622" lon="-0.31916">
        <ele>27</ele>
        <time>2012-08-20T06:52:06.000Z</time>
      </trkpt>
      <trkpt lat="47.49618" lon="-0.3191">
        <ele>27</ele>
        <time>2012-08-20T06:52:10.000Z</time>
      </trkpt>
      <trkpt lat="47.49621" lon="-0.31902">
        <ele>28</ele>
        <time>2012-08-20T06:52:13.000Z</time>
      </trkpt>
      <trkpt lat="47.49618" lon="-0.31894">
        <ele>28</ele>
        <time>2012-08-20T06:52:17.000Z</time>
      </trkpt>
      <trkpt lat="47.49613" lon="-0.31892">
        <ele>28</ele>
        <time>2012-08-20T06:52:20.000Z</time>
      </trkpt>
      <trkpt lat="47.49607" lon="-0.3189">
        <ele>28</ele>
        <time>2012-08-20T06:52:23.000Z</time>
      </trkpt>
      <trkpt lat="47.49601" lon="-0.31887">
        <ele>28</ele>
        <time>2012-08-20T06:52:26.000Z</time>
      </trkpt>
      <trkpt lat="47.49583" lon="-0.31879">
        <ele>28</ele>
        <time>2012-08-20T06:52:36.000Z</time>
      </trkpt>
      <trkpt lat="47.49578" lon="-0.31878">
        <ele>28</ele>
        <time>2012-08-20T06:52:38.000Z</time>
      </trkpt>
      <trkpt lat="47.49571" lon="-0.31879">
        <ele>28</ele>
        <time>2012-08-20T06:52:40.000Z</time>
      </trkpt>
      <trkpt lat="47.49564" lon="-0.31881">
        <ele>28</ele>
        <time>2012-08-20T06:52:42.000Z</time>
      </trkpt>
      <trkpt lat="47.49558" lon="-0.31883">
        <ele>27</ele>
        <time>2012-08-20T06:52:44.000Z</time>
      </trkpt>
      <trkpt lat="47.49564" lon="-0.31881">
        <ele>28</ele>
        <time>2012-08-20T06:52:48.000Z</time>
      </trkpt>
      <trkpt lat="47.49569" lon="-0.31877">
        <ele>28</ele>
        <time>2012-08-20T06:52:50.000Z</time>
      </trkpt>
      <trkpt lat="47.49573" lon="-0.31871">
        <ele>28</ele>
        <time>2012-08-20T06:52:52.000Z</time>
      </trkpt>
      <trkpt lat="47.49574" lon="-0.31863">
        <ele>28</ele>
        <time>2012-08-20T06:52:55.000Z</time>
      </trkpt>
      <trkpt lat="47.49577" lon="-0.31855">
        <ele>28</ele>
        <time>2012-08-20T06:52:59.000Z</time>
      </trkpt>
      <trkpt lat="47.49575" lon="-0.31848">
        <ele>28</ele>
        <time>2012-08-20T06:53:03.000Z</time>
      </trkpt>
      <trkpt lat="47.49576" lon="-0.31841">
        <ele>29</ele>
        <time>2012-08-20T06:53:06.000Z</time>
      </trkpt>
      <trkpt lat="47.49578" lon="-0.31834">
        <ele>29</ele>
        <time>2012-08-20T06:53:10.000Z</time>
      </trkpt>
      <trkpt lat="47.49576" lon="-0.31826">
        <ele>29</ele>
        <time>2012-08-20T06:53:15.000Z</time>
      </trkpt>
      <trkpt lat="47.49573" lon="-0.3182">
        <ele>30</ele>
        <time>2012-08-20T06:53:20.000Z</time>
      </trkpt>
      <trkpt lat="47.4957" lon="-0.31815">
        <ele>30</ele>
        <time>2012-08-20T06:53:24.000Z</time>
      </trkpt>
      <trkpt lat="47.49568" lon="-0.31808">
        <ele>30</ele>
        <time>2012-08-20T06:53:28.000Z</time>
      </trkpt>
      <trkpt lat="47.49569" lon="-0.318">
        <ele>30</ele>
        <time>2012-08-20T06:53:34.000Z</time>
      </trkpt>
      <trkpt lat="47.49566" lon="-0.31795">
        <ele>30</ele>
        <time>2012-08-20T06:53:38.000Z</time>
      </trkpt>
      <trkpt lat="47.4956" lon="-0.31792">
        <ele>30</ele>
        <time>2012-08-20T06:53:41.000Z</time>
      </trkpt>
      <trkpt lat="47.49556" lon="-0.31789">
        <ele>30</ele>
        <time>2012-08-20T06:53:44.000Z</time>
      </trkpt>
      <trkpt lat="47.49552" lon="-0.31783">
        <ele>30</ele>
        <time>2012-08-20T06:53:48.000Z</time>
      </trkpt>
      <trkpt lat="47.49549" lon="-0.31777">
        <ele>31</ele>
        <time>2012-08-20T06:53:53.000Z</time>
      </trkpt>
      <trkpt lat="47.49543" lon="-0.31778">
        <ele>31</ele>
        <time>2012-08-20T06:53:57.000Z</time>
      </trkpt>
      <trkpt lat="47.49537" lon="-0.31778">
        <ele>31</ele>
        <time>2012-08-20T06:54:00.000Z</time>
      </trkpt>
      <trkpt lat="47.49533" lon="-0.31773">
        <ele>31</ele>
        <time>2012-08-20T06:54:04.000Z</time>
      </trkpt>
      <trkpt lat="47.49528" lon="-0.3177">
        <ele>31</ele>
        <time>2012-08-20T06:54:11.000Z</time>
      </trkpt>
      <trkpt lat="47.49526" lon="-0.31764">
        <ele>31</ele>
        <time>2012-08-20T06:54:16.000Z</time>
      </trkpt>
      <trkpt lat="47.49523" lon="-0.31758">
        <ele>32</ele>
        <time>2012-08-20T06:54:20.000Z</time>
      </trkpt>
      <trkpt lat="47.49522" lon="-0.3175">
        <ele>32</ele>
        <time>2012-08-20T06:54:25.000Z</time>
      </trkpt>
      <trkpt lat="47.4952" lon="-0.31743">
        <ele>34</ele>
        <time>2012-08-20T06:54:30.000Z</time>
      </trkpt>
      <trkpt lat="47.49519" lon="-0.31737">
        <ele>34</ele>
        <time>2012-08-20T06:54:36.000Z</time>
      </trkpt>
      <trkpt lat="47.49519" lon="-0.3173">
        <ele>34</ele>
        <time>2012-08-20T06:54:41.000Z</time>
      </trkpt>
      <trkpt lat="47.49515" lon="-0.31724">
        <ele>34</ele>
        <time>2012-08-20T06:54:46.000Z</time>
      </trkpt>
      <trkpt lat="47.49511" lon="-0.3172">
        <ele>34</ele>
        <time>2012-08-20T06:54:50.000Z</time>
      </trkpt>
      <trkpt lat="47.49508" lon="-0.31714">
        <ele>34</ele>
        <time>2012-08-20T06:54:54.000Z</time>
      </trkpt>
      <trkpt lat="47.49505" lon="-0.31708">
        <ele>35</ele>
        <time>2012-08-20T06:54:58.000Z</time>
      </trkpt>
      <trkpt lat="47.49502" lon="-0.31702">
        <ele>35</ele>
        <time>2012-08-20T06:55:02.000Z</time>
      </trkpt>
      <trkpt lat="47.49498" lon="-0.31697">
        <ele>36</ele>
        <time>2012-08-20T06:55:07.000Z</time>
      </trkpt>
      <trkpt lat="47.49495" lon="-0.3169">
        <ele>37</ele>
        <time>2012-08-20T06:55:12.000Z</time>
      </trkpt>
      <trkpt lat="47.49493" lon="-0.31683">
        <ele>37</ele>
        <time>2012-08-20T06:55:16.000Z</time>
      </trkpt>
      <trkpt lat="47.4949" lon="-0.31676">
        <ele>37</ele>
        <time>2012-08-20T06:55:21.000Z</time>
      </trkpt>
      <trkpt lat="47.49487" lon="-0.31669">
        <ele>37</ele>
        <time>2012-08-20T06:55:26.000Z</time>
      </trkpt>
      <trkpt lat="47.49484" lon="-0.31664">
        <ele>38</ele>
        <time>2012-08-20T06:55:30.000Z</time>
      </trkpt>
      <trkpt lat="47.49481" lon="-0.31658">
        <ele>38</ele>
        <time>2012-08-20T06:55:34.000Z</time>
      </trkpt>
      <trkpt lat="47.49478" lon="-0.31652">
        <ele>38</ele>
        <time>2012-08-20T06:55:38.000Z</time>
      </trkpt>
      <trkpt lat="47.49476" lon="-0.31644">
        <ele>38</ele>
        <time>2012-08-20T06:55:43.000Z</time>
      </trkpt>
      <trkpt lat="47.49474" lon="-0.31638">
        <ele>38</ele>
        <time>2012-08-20T06:55:47.000Z</time>
      </trkpt>
      <trkpt lat="47.49472" lon="-0.31631">
        <ele>38</ele>
        <time>2012-08-20T06:55:51.000Z</time>
      </trkpt>
      <trkpt lat="47.49472" lon="-0.31624">
        <ele>39</ele>
        <time>2012-08-20T06:55:55.000Z</time>
      </trkpt>
      <trkpt lat="47.49467" lon="-0.3162">
        <ele>39</ele>
        <time>2012-08-20T06:55:59.000Z</time>
      </trkpt>
      <trkpt lat="47.49462" lon="-0.31615">
        <ele>39</ele>
        <time>2012-08-20T06:56:02.000Z</time>
      </trkpt>
      <trkpt lat="47.4946" lon="-0.31609">
        <ele>39</ele>
        <time>2012-08-20T06:56:06.000Z</time>
      </trkpt>
      <trkpt lat="47.4946" lon="-0.316">
        <ele>39</ele>
        <time>2012-08-20T06:56:10.000Z</time>
      </trkpt>
      <trkpt lat="47.4946" lon="-0.31593">
        <ele>39</ele>
        <time>2012-08-20T06:56:14.000Z</time>
      </trkpt>
      <trkpt lat="47.4946" lon="-0.31586">
        <ele>39</ele>
        <time>2012-08-20T06:56:19.000Z</time>
      </trkpt>
      <trkpt lat="47.4946" lon="-0.31578">
        <ele>39</ele>
        <time>2012-08-20T06:56:25.000Z</time>
      </trkpt>
      <trkpt lat="47.49457" lon="-0.31571">
        <ele>39</ele>
        <time>2012-08-20T06:56:30.000Z</time>
      </trkpt>
      <trkpt lat="47.49456" lon="-0.31563">
        <ele>39</ele>
        <time>2012-08-20T06:56:35.000Z</time>
      </trkpt>
      <trkpt lat="47.49453" lon="-0.31556">
        <ele>39</ele>
        <time>2012-08-20T06:56:39.000Z</time>
      </trkpt>
      <trkpt lat="47.49451" lon="-0.31548">
        <ele>39</ele>
        <time>2012-08-20T06:56:44.000Z</time>
      </trkpt>
      <trkpt lat="47.4945" lon="-0.3154">
        <ele>39</ele>
        <time>2012-08-20T06:56:48.000Z</time>
      </trkpt>
      <trkpt lat="47.49448" lon="-0.31533">
        <ele>39</ele>
        <time>2012-08-20T06:56:53.000Z</time>
      </trkpt>
      <trkpt lat="47.49445" lon="-0.31526">
        <ele>39</ele>
        <time>2012-08-20T06:56:57.000Z</time>
      </trkpt>
      <trkpt lat="47.49442" lon="-0.31519">
        <ele>39</ele>
        <time>2012-08-20T06:57:02.000Z</time>
      </trkpt>
      <trkpt lat="47.49442" lon="-0.31511">
        <ele>39</ele>
        <time>2012-08-20T06:57:07.000Z</time>
      </trkpt>
      <trkpt lat="47.4944" lon="-0.31503">
        <ele>40</ele>
        <time>2012-08-20T06:57:12.000Z</time>
      </trkpt>
      <trkpt lat="47.49439" lon="-0.31496">
        <ele>40</ele>
        <time>2012-08-20T06:57:16.000Z</time>
      </trkpt>
      <trkpt lat="47.49437" lon="-0.31489">
        <ele>40</ele>
        <time>2012-08-20T06:57:20.000Z</time>
      </trkpt>
      <trkpt lat="47.49434" lon="-0.31482">
        <ele>40</ele>
        <time>2012-08-20T06:57:24.000Z</time>
      </trkpt>
      <trkpt lat="47.49431" lon="-0.31476">
        <ele>40</ele>
        <time>2012-08-20T06:57:27.000Z</time>
      </trkpt>
      <trkpt lat="47.49429" lon="-0.3147">
        <ele>40</ele>
        <time>2012-08-20T06:57:30.000Z</time>
      </trkpt>
      <trkpt lat="47.49427" lon="-0.31462">
        <ele>40</ele>
        <time>2012-08-20T06:57:34.000Z</time>
      </trkpt>
      <trkpt lat="47.49424" lon="-0.31455">
        <ele>40</ele>
        <time>2012-08-20T06:57:39.000Z</time>
      </trkpt>
      <trkpt lat="47.49423" lon="-0.31448">
        <ele>40</ele>
        <time>2012-08-20T06:57:44.000Z</time>
      </trkpt>
      <trkpt lat="47.49422" lon="-0.31441">
        <ele>40</ele>
        <time>2012-08-20T06:57:48.000Z</time>
      </trkpt>
      <trkpt lat="47.4942" lon="-0.31434">
        <ele>40</ele>
        <time>2012-08-20T06:57:52.000Z</time>
      </trkpt>
      <trkpt lat="47.4942" lon="-0.31426">
        <ele>40</ele>
        <time>2012-08-20T06:57:56.000Z</time>
      </trkpt>
      <trkpt lat="47.49418" lon="-0.31418">
        <ele>40</ele>
        <time>2012-08-20T06:58:01.000Z</time>
      </trkpt>
      <trkpt lat="47.49416" lon="-0.31411">
        <ele>40</ele>
        <time>2012-08-20T06:58:06.000Z</time>
      </trkpt>
      <trkpt lat="47.49415" lon="-0.31403">
        <ele>40</ele>
        <time>2012-08-20T06:58:12.000Z</time>
      </trkpt>
      <trkpt lat="47.49413" lon="-0.31397">
        <ele>40</ele>
        <time>2012-08-20T06:58:16.000Z</time>
      </trkpt>
      <trkpt lat="47.49411" lon="-0.3139">
        <ele>40</ele>
        <time>2012-08-20T06:58:20.000Z</time>
      </trkpt>
      <trkpt lat="47.49408" lon="-0.31383">
        <ele>40</ele>
        <time>2012-08-20T06:58:24.000Z</time>
      </trkpt>
      <trkpt lat="47.49405" lon="-0.31375">
        <ele>40</ele>
        <time>2012-08-20T06:58:28.000Z</time>
      </trkpt>
      <trkpt lat="47.49403" lon="-0.31367">
        <ele>40</ele>
        <time>2012-08-20T06:58:32.000Z</time>
      </trkpt>
      <trkpt lat="47.49402" lon="-0.3136">
        <ele>40</ele>
        <time>2012-08-20T06:58:36.000Z</time>
      </trkpt>
      <trkpt lat="47.49402" lon="-0.31352">
        <ele>40</ele>
        <time>2012-08-20T06:58:41.000Z</time>
      </trkpt>
      <trkpt lat="47.494" lon="-0.31346">
        <ele>40</ele>
        <time>2012-08-20T06:58:47.000Z</time>
      </trkpt>
      <trkpt lat="47.49396" lon="-0.31342">
        <ele>40</ele>
        <time>2012-08-20T06:58:51.000Z</time>
      </trkpt>
      <trkpt lat="47.49392" lon="-0.31337">
        <ele>40</ele>
        <time>2012-08-20T06:58:54.000Z</time>
      </trkpt>
      <trkpt lat="47.49389" lon="-0.3133">
        <ele>41</ele>
        <time>2012-08-20T06:58:57.000Z</time>
      </trkpt>
      <trkpt lat="47.49387" lon="-0.31323">
        <ele>41</ele>
        <time>2012-08-20T06:58:59.000Z</time>
      </trkpt>
      <trkpt lat="47.49385" lon="-0.31316">
        <ele>41</ele>
        <time>2012-08-20T06:59:02.000Z</time>
      </trkpt>
      <trkpt lat="47.49385" lon="-0.31309">
        <ele>41</ele>
        <time>2012-08-20T06:59:06.000Z</time>
      </trkpt>
      <trkpt lat="47.49385" lon="-0.31302">
        <ele>41</ele>
        <time>2012-08-20T06:59:10.000Z</time>
      </trkpt>
      <trkpt lat="47.49385" lon="-0.31294">
        <ele>41</ele>
        <time>2012-08-20T06:59:15.000Z</time>
      </trkpt>
      <trkpt lat="47.49385" lon="-0.31287">
        <ele>41</ele>
        <time>2012-08-20T06:59:20.000Z</time>
      </trkpt>
      <trkpt lat="47.49386" lon="-0.3128">
        <ele>41</ele>
        <time>2012-08-20T06:59:25.000Z</time>
      </trkpt>
      <trkpt lat="47.49388" lon="-0.31273">
        <ele>41</ele>
        <time>2012-08-20T06:59:29.000Z</time>
      </trkpt>
      <trkpt lat="47.49388" lon="-0.31265">
        <ele>41</ele>
        <time>2012-08-20T06:59:38.000Z</time>
      </trkpt>
      <trkpt lat="47.49388" lon="-0.31257">
        <ele>41</ele>
        <time>2012-08-20T06:59:42.000Z</time>
      </trkpt>
      <trkpt lat="47.49388" lon="-0.3125">
        <ele>42</ele>
        <time>2012-08-20T06:59:44.000Z</time>
      </trkpt>
      <trkpt lat="47.49388" lon="-0.31242">
        <ele>42</ele>
        <time>2012-08-20T06:59:47.000Z</time>
      </trkpt>
      <trkpt lat="47.49387" lon="-0.31233">
        <ele>42</ele>
        <time>2012-08-20T06:59:51.000Z</time>
      </trkpt>
      <trkpt lat="47.49384" lon="-0.31226">
        <ele>42</ele>
        <time>2012-08-20T06:59:55.000Z</time>
      </trkpt>
      <trkpt lat="47.49379" lon="-0.31228">
        <ele>42</ele>
        <time>2012-08-20T07:00:01.000Z</time>
      </trkpt>
      <trkpt lat="47.49375" lon="-0.31232">
        <ele>42</ele>
        <time>2012-08-20T07:00:04.000Z</time>
      </trkpt>
      <trkpt lat="47.4937" lon="-0.31235">
        <ele>42</ele>
        <time>2012-08-20T07:00:08.000Z</time>
      </trkpt>
      <trkpt lat="47.49366" lon="-0.31237">
        <ele>42</ele>
        <time>2012-08-20T07:00:12.000Z</time>
      </trkpt>
      <trkpt lat="47.49361" lon="-0.31239">
        <ele>42</ele>
        <time>2012-08-20T07:00:16.000Z</time>
      </trkpt>
      <trkpt lat="47.49356" lon="-0.31242">
        <ele>42</ele>
        <time>2012-08-20T07:00:20.000Z</time>
      </trkpt>
      <trkpt lat="47.49351" lon="-0.31246">
        <ele>42</ele>
        <time>2012-08-20T07:00:24.000Z</time>
      </trkpt>
      <trkpt lat="47.49348" lon="-0.3125">
        <ele>41</ele>
        <time>2012-08-20T07:00:27.000Z</time>
      </trkpt>
      <trkpt lat="47.49342" lon="-0.31253">
        <ele>41</ele>
        <time>2012-08-20T07:00:31.000Z</time>
      </trkpt>
      <trkpt lat="47.49338" lon="-0.31257">
        <ele>41</ele>
        <time>2012-08-20T07:00:36.000Z</time>
      </trkpt>
      <trkpt lat="47.49334" lon="-0.31262">
        <ele>41</ele>
        <time>2012-08-20T07:00:40.000Z</time>
      </trkpt>
      <trkpt lat="47.49329" lon="-0.31267">
        <ele>40</ele>
        <time>2012-08-20T07:00:44.000Z</time>
      </trkpt>
      <trkpt lat="47.49324" lon="-0.31272">
        <ele>39</ele>
        <time>2012-08-20T07:00:49.000Z</time>
      </trkpt>
      <trkpt lat="47.4932" lon="-0.31276">
        <ele>39</ele>
        <time>2012-08-20T07:00:52.000Z</time>
      </trkpt>
      <trkpt lat="47.49316" lon="-0.3128">
        <ele>39</ele>
        <time>2012-08-20T07:00:55.000Z</time>
      </trkpt>
      <trkpt lat="47.49312" lon="-0.31286">
        <ele>39</ele>
        <time>2012-08-20T07:00:58.000Z</time>
      </trkpt>
      <trkpt lat="47.49307" lon="-0.3129">
        <ele>39</ele>
        <time>2012-08-20T07:01:01.000Z</time>
      </trkpt>
      <trkpt lat="47.49303" lon="-0.31293">
        <ele>39</ele>
        <time>2012-08-20T07:01:04.000Z</time>
      </trkpt>
      <trkpt lat="47.49298" lon="-0.31297">
        <ele>38</ele>
        <time>2012-08-20T07:01:08.000Z</time>
      </trkpt>
      <trkpt lat="47.49294" lon="-0.31298">
        <ele>38</ele>
        <time>2012-08-20T07:01:13.000Z</time>
      </trkpt>
      <trkpt lat="47.49289" lon="-0.31296">
        <ele>38</ele>
        <time>2012-08-20T07:01:18.000Z</time>
      </trkpt>
      <trkpt lat="47.49284" lon="-0.313">
        <ele>38</ele>
        <time>2012-08-20T07:01:22.000Z</time>
      </trkpt>
      <trkpt lat="47.49279" lon="-0.31299">
        <ele>38</ele>
        <time>2012-08-20T07:01:26.000Z</time>
      </trkpt>
      <trkpt lat="47.49274" lon="-0.31296">
        <ele>38</ele>
        <time>2012-08-20T07:01:30.000Z</time>
      </trkpt>
      <trkpt lat="47.4927" lon="-0.313">
        <ele>38</ele>
        <time>2012-08-20T07:01:34.000Z</time>
      </trkpt>
      <trkpt lat="47.49265" lon="-0.31304">
        <ele>37</ele>
        <time>2012-08-20T07:01:38.000Z</time>
      </trkpt>
      <trkpt lat="47.49261" lon="-0.31309">
        <ele>37</ele>
        <time>2012-08-20T07:01:42.000Z</time>
      </trkpt>
      <trkpt lat="47.49256" lon="-0.31312">
        <ele>37</ele>
        <time>2012-08-20T07:01:46.000Z</time>
      </trkpt>
      <trkpt lat="47.49252" lon="-0.31316">
        <ele>37</ele>
        <time>2012-08-20T07:01:51.000Z</time>
      </trkpt>
      <trkpt lat="47.49248" lon="-0.31321">
        <ele>34</ele>
        <time>2012-08-20T07:01:56.000Z</time>
      </trkpt>
      <trkpt lat="47.49243" lon="-0.31322">
        <ele>34</ele>
        <time>2012-08-20T07:02:01.000Z</time>
      </trkpt>
      <trkpt lat="47.49238" lon="-0.31321">
        <ele>34</ele>
        <time>2012-08-20T07:02:05.000Z</time>
      </trkpt>
      <trkpt lat="47.49232" lon="-0.31322">
        <ele>34</ele>
        <time>2012-08-20T07:02:09.000Z</time>
      </trkpt>
      <trkpt lat="47.49226" lon="-0.31322">
        <ele>34</ele>
        <time>2012-08-20T07:02:13.000Z</time>
      </trkpt>
      <trkpt lat="47.49223" lon="-0.31318">
        <ele>34</ele>
        <time>2012-08-20T07:02:17.000Z</time>
      </trkpt>
      <trkpt lat="47.49219" lon="-0.31313">
        <ele>33</ele>
        <time>2012-08-20T07:02:21.000Z</time>
      </trkpt>
      <trkpt lat="47.49215" lon="-0.31317">
        <ele>33</ele>
        <time>2012-08-20T07:02:27.000Z</time>
      </trkpt>
      <trkpt lat="47.49211" lon="-0.31324">
        <ele>33</ele>
        <time>2012-08-20T07:02:31.000Z</time>
      </trkpt>
      <trkpt lat="47.49208" lon="-0.31328">
        <ele>33</ele>
        <time>2012-08-20T07:02:34.000Z</time>
      </trkpt>
      <trkpt lat="47.49204" lon="-0.31333">
        <ele>33</ele>
        <time>2012-08-20T07:02:37.000Z</time>
      </trkpt>
      <trkpt lat="47.492" lon="-0.31338">
        <ele>31</ele>
        <time>2012-08-20T07:02:40.000Z</time>
      </trkpt>
      <trkpt lat="47.49195" lon="-0.31338">
        <ele>31</ele>
        <time>2012-08-20T07:02:44.000Z</time>
      </trkpt>
      <trkpt lat="47.49191" lon="-0.31334">
        <ele>30</ele>
        <time>2012-08-20T07:02:47.000Z</time>
      </trkpt>
      <trkpt lat="47.49187" lon="-0.3133">
        <ele>31</ele>
        <time>2012-08-20T07:02:51.000Z</time>
      </trkpt>
      <trkpt lat="47.49183" lon="-0.31333">
        <ele>31</ele>
        <time>2012-08-20T07:02:54.000Z</time>
      </trkpt>
      <trkpt lat="47.49179" lon="-0.31338">
        <ele>30</ele>
        <time>2012-08-20T07:02:57.000Z</time>
      </trkpt>
      <trkpt lat="47.49175" lon="-0.31346">
        <ele>30</ele>
        <time>2012-08-20T07:03:00.000Z</time>
      </trkpt>
      <trkpt lat="47.49173" lon="-0.31354">
        <ele>30</ele>
        <time>2012-08-20T07:03:03.000Z</time>
      </trkpt>
      <trkpt lat="47.4917" lon="-0.3136">
        <ele>30</ele>
        <time>2012-08-20T07:03:06.000Z</time>
      </trkpt>
      <trkpt lat="47.49166" lon="-0.31364">
        <ele>27</ele>
        <time>2012-08-20T07:03:10.000Z</time>
      </trkpt>
      <trkpt lat="47.49161" lon="-0.31366">
        <ele>27</ele>
        <time>2012-08-20T07:03:14.000Z</time>
      </trkpt>
      <trkpt lat="47.49155" lon="-0.31366">
        <ele>27</ele>
        <time>2012-08-20T07:03:19.000Z</time>
      </trkpt>
      <trkpt lat="47.4915" lon="-0.31366">
        <ele>27</ele>
        <time>2012-08-20T07:03:24.000Z</time>
      </trkpt>
      <trkpt lat="47.49145" lon="-0.3137">
        <ele>27</ele>
        <time>2012-08-20T07:03:29.000Z</time>
      </trkpt>
      <trkpt lat="47.4914" lon="-0.31373">
        <ele>27</ele>
        <time>2012-08-20T07:03:33.000Z</time>
      </trkpt>
      <trkpt lat="47.49135" lon="-0.31378">
        <ele>27</ele>
        <time>2012-08-20T07:03:37.000Z</time>
      </trkpt>
      <trkpt lat="47.49132" lon="-0.31384">
        <ele>27</ele>
        <time>2012-08-20T07:03:40.000Z</time>
      </trkpt>
      <trkpt lat="47.49128" lon="-0.31389">
        <ele>26</ele>
        <time>2012-08-20T07:03:43.000Z</time>
      </trkpt>
      <trkpt lat="47.49123" lon="-0.31394">
        <ele>26</ele>
        <time>2012-08-20T07:03:47.000Z</time>
      </trkpt>
      <trkpt lat="47.49118" lon="-0.31397">
        <ele>26</ele>
        <time>2012-08-20T07:03:51.000Z</time>
      </trkpt>
      <trkpt lat="47.49114" lon="-0.314">
        <ele>26</ele>
        <time>2012-08-20T07:03:55.000Z</time>
      </trkpt>
      <trkpt lat="47.49109" lon="-0.31404">
        <ele>26</ele>
        <time>2012-08-20T07:03:59.000Z</time>
      </trkpt>
      <trkpt lat="47.49104" lon="-0.31408">
        <ele>26</ele>
        <time>2012-08-20T07:04:03.000Z</time>
      </trkpt>
      <trkpt lat="47.491" lon="-0.31412">
        <ele>26</ele>
        <time>2012-08-20T07:04:07.000Z</time>
      </trkpt>
      <trkpt lat="47.49095" lon="-0.31415">
        <ele>26</ele>
        <time>2012-08-20T07:04:11.000Z</time>
      </trkpt>
      <trkpt lat="47.49091" lon="-0.31418">
        <ele>25</ele>
        <time>2012-08-20T07:04:15.000Z</time>
      </trkpt>
      <trkpt lat="47.49086" lon="-0.3142">
        <ele>25</ele>
        <time>2012-08-20T07:04:19.000Z</time>
      </trkpt>
      <trkpt lat="47.4908" lon="-0.3142">
        <ele>25</ele>
        <time>2012-08-20T07:04:24.000Z</time>
      </trkpt>
      <trkpt lat="47.49075" lon="-0.31423">
        <ele>24</ele>
        <time>2012-08-20T07:04:29.000Z</time>
      </trkpt>
      <trkpt lat="47.4907" lon="-0.31427">
        <ele>24</ele>
        <time>2012-08-20T07:04:33.000Z</time>
      </trkpt>
      <trkpt lat="47.49067" lon="-0.31431">
        <ele>24</ele>
        <time>2012-08-20T07:04:36.000Z</time>
      </trkpt>
      <trkpt lat="47.49062" lon="-0.31432">
        <ele>23</ele>
        <time>2012-08-20T07:04:42.000Z</time>
      </trkpt>
      <trkpt lat="47.49058" lon="-0.31435">
        <ele>23</ele>
        <time>2012-08-20T07:04:52.000Z</time>
      </trkpt>
      <trkpt lat="47.49054" lon="-0.3144">
        <ele>23</ele>
        <time>2012-08-20T07:04:57.000Z</time>
      </trkpt>
      <trkpt lat="47.49049" lon="-0.31442">
        <ele>23</ele>
        <time>2012-08-20T07:05:01.000Z</time>
      </trkpt>
      <trkpt lat="47.49044" lon="-0.31442">
        <ele>23</ele>
        <time>2012-08-20T07:05:06.000Z</time>
      </trkpt>
      <trkpt lat="47.4904" lon="-0.31436">
        <ele>23</ele>
        <time>2012-08-20T07:05:11.000Z</time>
      </trkpt>
      <trkpt lat="47.49039" lon="-0.31429">
        <ele>23</ele>
        <time>2012-08-20T07:05:14.000Z</time>
      </trkpt>
      <trkpt lat="47.49037" lon="-0.31422">
        <ele>23</ele>
        <time>2012-08-20T07:05:18.000Z</time>
      </trkpt>
      <trkpt lat="47.49034" lon="-0.31415">
        <ele>24</ele>
        <time>2012-08-20T07:05:22.000Z</time>
      </trkpt>
      <trkpt lat="47.49031" lon="-0.3141">
        <ele>24</ele>
        <time>2012-08-20T07:05:29.000Z</time>
      </trkpt>
      <trkpt lat="47.49026" lon="-0.31412">
        <ele>23</ele>
        <time>2012-08-20T07:05:35.000Z</time>
      </trkpt>
      <trkpt lat="47.49024" lon="-0.31418">
        <ele>23</ele>
        <time>2012-08-20T07:05:41.000Z</time>
      </trkpt>
      <trkpt lat="47.4902" lon="-0.31422">
        <ele>23</ele>
        <time>2012-08-20T07:05:56.000Z</time>
      </trkpt>
      <trkpt lat="47.49016" lon="-0.31425">
        <ele>22</ele>
        <time>2012-08-20T07:06:06.000Z</time>
      </trkpt>
      <trkpt lat="47.49018" lon="-0.31431">
        <ele>22</ele>
        <time>2012-08-20T07:07:07.000Z</time>
      </trkpt>
      <trkpt lat="47.49016" lon="-0.31439">
        <ele>22</ele>
        <time>2012-08-20T07:07:11.000Z</time>
      </trkpt>
      <trkpt lat="47.49014" lon="-0.31445">
        <ele>22</ele>
        <time>2012-08-20T07:07:14.000Z</time>
      </trkpt>
      <trkpt lat="47.49013" lon="-0.31452">
        <ele>22</ele>
        <time>2012-08-20T07:07:18.000Z</time>
      </trkpt>
      <trkpt lat="47.4901" lon="-0.3146">
        <ele>22</ele>
        <time>2012-08-20T07:07:23.000Z</time>
      </trkpt>
      <trkpt lat="47.49009" lon="-0.31468">
        <ele>22</ele>
        <time>2012-08-20T07:07:27.000Z</time>
      </trkpt>
      <trkpt lat="47.49008" lon="-0.31475">
        <ele>22</ele>
        <time>2012-08-20T07:07:31.000Z</time>
      </trkpt>
      <trkpt lat="47.49006" lon="-0.31483">
        <ele>22</ele>
        <time>2012-08-20T07:07:35.000Z</time>
      </trkpt>
      <trkpt lat="47.49004" lon="-0.31491">
        <ele>22</ele>
        <time>2012-08-20T07:07:39.000Z</time>
      </trkpt>
      <trkpt lat="47.49002" lon="-0.31498">
        <ele>21</ele>
        <time>2012-08-20T07:07:43.000Z</time>
      </trkpt>
      <trkpt lat="47.49" lon="-0.31506">
        <ele>21</ele>
        <time>2012-08-20T07:07:46.000Z</time>
      </trkpt>
      <trkpt lat="47.48998" lon="-0.31513">
        <ele>21</ele>
        <time>2012-08-20T07:07:50.000Z</time>
      </trkpt>
      <trkpt lat="47.48997" lon="-0.31519">
        <ele>21</ele>
        <time>2012-08-20T07:07:58.000Z</time>
      </trkpt>
      <trkpt lat="47.48995" lon="-0.31526">
        <ele>21</ele>
        <time>2012-08-20T07:08:03.000Z</time>
      </trkpt>
      <trkpt lat="47.48993" lon="-0.31532">
        <ele>21</ele>
        <time>2012-08-20T07:08:07.000Z</time>
      </trkpt>
      <trkpt lat="47.48992" lon="-0.3154">
        <ele>21</ele>
        <time>2012-08-20T07:08:12.000Z</time>
      </trkpt>
      <trkpt lat="47.4899" lon="-0.31547">
        <ele>21</ele>
        <time>2012-08-20T07:08:16.000Z</time>
      </trkpt>
      <trkpt lat="47.48989" lon="-0.31554">
        <ele>21</ele>
        <time>2012-08-20T07:08:20.000Z</time>
      </trkpt>
      <trkpt lat="47.48988" lon="-0.31561">
        <ele>21</ele>
        <time>2012-08-20T07:08:24.000Z</time>
      </trkpt>
      <trkpt lat="47.48986" lon="-0.31567">
        <ele>21</ele>
        <time>2012-08-20T07:08:28.000Z</time>
      </trkpt>
      <trkpt lat="47.48984" lon="-0.31574">
        <ele>21</ele>
        <time>2012-08-20T07:08:32.000Z</time>
      </trkpt>
      <trkpt lat="47.48982" lon="-0.31582">
        <ele>21</ele>
        <time>2012-08-20T07:08:36.000Z</time>
      </trkpt>
      <trkpt lat="47.48981" lon="-0.3159">
        <ele>22</ele>
        <time>2012-08-20T07:08:40.000Z</time>
      </trkpt>
      <trkpt lat="47.4898" lon="-0.31598">
        <ele>22</ele>
        <time>2012-08-20T07:08:44.000Z</time>
      </trkpt>
      <trkpt lat="47.48979" lon="-0.31605">
        <ele>22</ele>
        <time>2012-08-20T07:08:47.000Z</time>
      </trkpt>
      <trkpt lat="47.48978" lon="-0.31612">
        <ele>22</ele>
        <time>2012-08-20T07:08:51.000Z</time>
      </trkpt>
      <trkpt lat="47.48976" lon="-0.3162">
        <ele>22</ele>
        <time>2012-08-20T07:08:56.000Z</time>
      </trkpt>
      <trkpt lat="47.48975" lon="-0.31628">
        <ele>22</ele>
        <time>2012-08-20T07:09:01.000Z</time>
      </trkpt>
      <trkpt lat="47.48974" lon="-0.31635">
        <ele>22</ele>
        <time>2012-08-20T07:09:06.000Z</time>
      </trkpt>
      <trkpt lat="47.48972" lon="-0.31642">
        <ele>22</ele>
        <time>2012-08-20T07:09:11.000Z</time>
      </trkpt>
      <trkpt lat="47.4897" lon="-0.31648">
        <ele>22</ele>
        <time>2012-08-20T07:09:18.000Z</time>
      </trkpt>
      <trkpt lat="47.48968" lon="-0.31655">
        <ele>22</ele>
        <time>2012-08-20T07:09:22.000Z</time>
      </trkpt>
      <trkpt lat="47.48967" lon="-0.31663">
        <ele>23</ele>
        <time>2012-08-20T07:09:25.000Z</time>
      </trkpt>
      <trkpt lat="47.48966" lon="-0.31672">
        <ele>23</ele>
        <time>2012-08-20T07:09:28.000Z</time>
      </trkpt>
      <trkpt lat="47.48965" lon="-0.3168">
        <ele>23</ele>
        <time>2012-08-20T07:09:32.000Z</time>
      </trkpt>
      <trkpt lat="47.48963" lon="-0.31688">
        <ele>23</ele>
        <time>2012-08-20T07:09:36.000Z</time>
      </trkpt>
      <trkpt lat="47.48961" lon="-0.31695">
        <ele>23</ele>
        <time>2012-08-20T07:09:40.000Z</time>
      </trkpt>
      <trkpt lat="47.4896" lon="-0.31702">
        <ele>23</ele>
        <time>2012-08-20T07:09:44.000Z</time>
      </trkpt>
      <trkpt lat="47.48959" lon="-0.31709">
        <ele>23</ele>
        <time>2012-08-20T07:09:47.000Z</time>
      </trkpt>
      <trkpt lat="47.48958" lon="-0.31717">
        <ele>23</ele>
        <time>2012-08-20T07:09:51.000Z</time>
      </trkpt>
      <trkpt lat="47.48956" lon="-0.31723">
        <ele>23</ele>
        <time>2012-08-20T07:09:55.000Z</time>
      </trkpt>
      <trkpt lat="47.48955" lon="-0.3173">
        <ele>23</ele>
        <time>2012-08-20T07:10:00.000Z</time>
      </trkpt>
      <trkpt lat="47.48953" lon="-0.31736">
        <ele>23</ele>
        <time>2012-08-20T07:10:07.000Z</time>
      </trkpt>
      <trkpt lat="47.4895" lon="-0.31743">
        <ele>23</ele>
        <time>2012-08-20T07:10:14.000Z</time>
      </trkpt>
      <trkpt lat="47.48949" lon="-0.3175">
        <ele>23</ele>
        <time>2012-08-20T07:10:19.000Z</time>
      </trkpt>
      <trkpt lat="47.48948" lon="-0.31758">
        <ele>23</ele>
        <time>2012-08-20T07:10:24.000Z</time>
      </trkpt>
      <trkpt lat="47.48946" lon="-0.31764">
        <ele>23</ele>
        <time>2012-08-20T07:10:29.000Z</time>
      </trkpt>
      <trkpt lat="47.48944" lon="-0.31772">
        <ele>23</ele>
        <time>2012-08-20T07:10:34.000Z</time>
      </trkpt>
      <trkpt lat="47.48943" lon="-0.31779">
        <ele>23</ele>
        <time>2012-08-20T07:10:39.000Z</time>
      </trkpt>
      <trkpt lat="47.48941" lon="-0.31787">
        <ele>23</ele>
        <time>2012-08-20T07:10:44.000Z</time>
      </trkpt>
      <trkpt lat="47.4894" lon="-0.31794">
        <ele>23</ele>
        <time>2012-08-20T07:10:48.000Z</time>
      </trkpt>
      <trkpt lat="47.48939" lon="-0.31801">
        <ele>23</ele>
        <time>2012-08-20T07:10:52.000Z</time>
      </trkpt>
      <trkpt lat="47.48938" lon="-0.31809">
        <ele>23</ele>
        <time>2012-08-20T07:10:56.000Z</time>
      </trkpt>
      <trkpt lat="47.48937" lon="-0.31816">
        <ele>23</ele>
        <time>2012-08-20T07:11:00.000Z</time>
      </trkpt>
      <trkpt lat="47.48936" lon="-0.31824">
        <ele>24</ele>
        <time>2012-08-20T07:11:04.000Z</time>
      </trkpt>
      <trkpt lat="47.48934" lon="-0.3183">
        <ele>24</ele>
        <time>2012-08-20T07:11:09.000Z</time>
      </trkpt>
      <trkpt lat="47.48933" lon="-0.31837">
        <ele>24</ele>
        <time>2012-08-20T07:11:14.000Z</time>
      </trkpt>
      <trkpt lat="47.4893" lon="-0.31844">
        <ele>24</ele>
        <time>2012-08-20T07:11:20.000Z</time>
      </trkpt>
      <trkpt lat="47.48929" lon="-0.3185">
        <ele>24</ele>
        <time>2012-08-20T07:11:25.000Z</time>
      </trkpt>
      <trkpt lat="47.48928" lon="-0.31858">
        <ele>25</ele>
        <time>2012-08-20T07:11:30.000Z</time>
      </trkpt>
      <trkpt lat="47.48927" lon="-0.31865">
        <ele>25</ele>
        <time>2012-08-20T07:11:34.000Z</time>
      </trkpt>
      <trkpt lat="47.48926" lon="-0.31873">
        <ele>25</ele>
        <time>2012-08-20T07:11:38.000Z</time>
      </trkpt>
      <trkpt lat="47.48925" lon="-0.31881">
        <ele>25</ele>
        <time>2012-08-20T07:11:43.000Z</time>
      </trkpt>
      <trkpt lat="47.48924" lon="-0.31888">
        <ele>25</ele>
        <time>2012-08-20T07:11:47.000Z</time>
      </trkpt>
      <trkpt lat="47.48923" lon="-0.31895">
        <ele>25</ele>
        <time>2012-08-20T07:11:53.000Z</time>
      </trkpt>
      <trkpt lat="47.48924" lon="-0.31902">
        <ele>25</ele>
        <time>2012-08-20T07:11:59.000Z</time>
      </trkpt>
      <trkpt lat="47.48926" lon="-0.31909">
        <ele>26</ele>
        <time>2012-08-20T07:12:05.000Z</time>
      </trkpt>
      <trkpt lat="47.48931" lon="-0.31912">
        <ele>25</ele>
        <time>2012-08-20T07:12:14.000Z</time>
      </trkpt>
      <trkpt lat="47.48937" lon="-0.31915">
        <ele>25</ele>
        <time>2012-08-20T07:12:17.000Z</time>
      </trkpt>
      <trkpt lat="47.48942" lon="-0.31918">
        <ele>27</ele>
        <time>2012-08-20T07:12:20.000Z</time>
      </trkpt>
      <trkpt lat="47.48948" lon="-0.31919">
        <ele>27</ele>
        <time>2012-08-20T07:12:23.000Z</time>
      </trkpt>
      <trkpt lat="47.48953" lon="-0.31919">
        <ele>27</ele>
        <time>2012-08-20T07:12:26.000Z</time>
      </trkpt>
      <trkpt lat="47.48958" lon="-0.3192">
        <ele>27</ele>
        <time>2012-08-20T07:12:30.000Z</time>
      </trkpt>
      <trkpt lat="47.48964" lon="-0.31919">
        <ele>27</ele>
        <time>2012-08-20T07:12:34.000Z</time>
      </trkpt>
      <trkpt lat="47.48969" lon="-0.31917">
        <ele>27</ele>
        <time>2012-08-20T07:12:37.000Z</time>
      </trkpt>
      <trkpt lat="47.48974" lon="-0.31918">
        <ele>27</ele>
        <time>2012-08-20T07:12:40.000Z</time>
      </trkpt>
      <trkpt lat="47.48979" lon="-0.3192">
        <ele>27</ele>
        <time>2012-08-20T07:12:43.000Z</time>
      </trkpt>
      <trkpt lat="47.48984" lon="-0.3192">
        <ele>27</ele>
        <time>2012-08-20T07:12:46.000Z</time>
      </trkpt>
      <trkpt lat="47.48989" lon="-0.31922">
        <ele>27</ele>
        <time>2012-08-20T07:12:51.000Z</time>
      </trkpt>
      <trkpt lat="47.48994" lon="-0.31924">
        <ele>27</ele>
        <time>2012-08-20T07:12:57.000Z</time>
      </trkpt>
      <trkpt lat="47.48998" lon="-0.31926">
        <ele>27</ele>
        <time>2012-08-20T07:13:01.000Z</time>
      </trkpt>
      <trkpt lat="47.49001" lon="-0.31931">
        <ele>28</ele>
        <time>2012-08-20T07:13:06.000Z</time>
      </trkpt>
      <trkpt lat="47.48998" lon="-0.31936">
        <ele>27</ele>
        <time>2012-08-20T07:13:12.000Z</time>
      </trkpt>
      <trkpt lat="47.48995" lon="-0.31943">
        <ele>28</ele>
        <time>2012-08-20T07:13:18.000Z</time>
      </trkpt>
      <trkpt lat="47.48993" lon="-0.31951">
        <ele>28</ele>
        <time>2012-08-20T07:13:21.000Z</time>
      </trkpt>
      <trkpt lat="47.48992" lon="-0.31958">
        <ele>28</ele>
        <time>2012-08-20T07:13:26.000Z</time>
      </trkpt>
      <trkpt lat="47.4899" lon="-0.31964">
        <ele>28</ele>
        <time>2012-08-20T07:13:37.000Z</time>
      </trkpt>
      <trkpt lat="47.48987" lon="-0.3197">
        <ele>29</ele>
        <time>2012-08-20T07:13:42.000Z</time>
      </trkpt>
      <trkpt lat="47.48984" lon="-0.31975">
        <ele>29</ele>
        <time>2012-08-20T07:13:46.000Z</time>
      </trkpt>
      <trkpt lat="47.48981" lon="-0.31982">
        <ele>29</ele>
        <time>2012-08-20T07:13:50.000Z</time>
      </trkpt>
      <trkpt lat="47.48978" lon="-0.3199">
        <ele>29</ele>
        <time>2012-08-20T07:13:53.000Z</time>
      </trkpt>
      <trkpt lat="47.48976" lon="-0.31996">
        <ele>29</ele>
        <time>2012-08-20T07:13:56.000Z</time>
      </trkpt>
      <trkpt lat="47.48973" lon="-0.32001">
        <ele>32</ele>
        <time>2012-08-20T07:13:59.000Z</time>
      </trkpt>
      <trkpt lat="47.4897" lon="-0.32007">
        <ele>32</ele>
        <time>2012-08-20T07:14:02.000Z</time>
      </trkpt>
      <trkpt lat="47.48967" lon="-0.32012">
        <ele>32</ele>
        <time>2012-08-20T07:14:06.000Z</time>
      </trkpt>
      <trkpt lat="47.48964" lon="-0.32019">
        <ele>32</ele>
        <time>2012-08-20T07:14:14.000Z</time>
      </trkpt>
      <trkpt lat="47.48961" lon="-0.32026">
        <ele>32</ele>
        <time>2012-08-20T07:14:18.000Z</time>
      </trkpt>
      <trkpt lat="47.48959" lon="-0.32033">
        <ele>32</ele>
        <time>2012-08-20T07:14:21.000Z</time>
      </trkpt>
      <trkpt lat="47.48957" lon="-0.32039">
        <ele>32</ele>
        <time>2012-08-20T07:14:24.000Z</time>
      </trkpt>
      <trkpt lat="47.48954" lon="-0.32046">
        <ele>33</ele>
        <time>2012-08-20T07:14:27.000Z</time>
      </trkpt>
      <trkpt lat="47.48951" lon="-0.32051">
        <ele>33</ele>
        <time>2012-08-20T07:14:30.000Z</time>
      </trkpt>
      <trkpt lat="47.48946" lon="-0.32054">
        <ele>33</ele>
        <time>2012-08-20T07:14:34.000Z</time>
      </trkpt>
      <trkpt lat="47.48942" lon="-0.3205">
        <ele>33</ele>
        <time>2012-08-20T07:14:39.000Z</time>
      </trkpt>
      <trkpt lat="47.48939" lon="-0.32057">
        <ele>33</ele>
        <time>2012-08-20T07:14:43.000Z</time>
      </trkpt>
      <trkpt lat="47.48937" lon="-0.32066">
        <ele>33</ele>
        <time>2012-08-20T07:14:46.000Z</time>
      </trkpt>
      <trkpt lat="47.48935" lon="-0.32074">
        <ele>34</ele>
        <time>2012-08-20T07:14:49.000Z</time>
      </trkpt>
      <trkpt lat="47.48932" lon="-0.32081">
        <ele>34</ele>
        <time>2012-08-20T07:14:52.000Z</time>
      </trkpt>
      <trkpt lat="47.4893" lon="-0.32088">
        <ele>37</ele>
        <time>2012-08-20T07:14:55.000Z</time>
      </trkpt>
      <trkpt lat="47.48928" lon="-0.32097">
        <ele>37</ele>
        <time>2012-08-20T07:14:59.000Z</time>
      </trkpt>
      <trkpt lat="47.48927" lon="-0.32104">
        <ele>38</ele>
        <time>2012-08-20T07:15:02.000Z</time>
      </trkpt>
      <trkpt lat="47.48924" lon="-0.32111">
        <ele>38</ele>
        <time>2012-08-20T07:15:08.000Z</time>
      </trkpt>
      <trkpt lat="47.48921" lon="-0.32115">
        <ele>39</ele>
        <time>2012-08-20T07:15:12.000Z</time>
      </trkpt>
      <trkpt lat="47.48918" lon="-0.32121">
        <ele>39</ele>
        <time>2012-08-20T07:15:17.000Z</time>
      </trkpt>
      <trkpt lat="47.48916" lon="-0.32128">
        <ele>38</ele>
        <time>2012-08-20T07:15:21.000Z</time>
      </trkpt>
      <trkpt lat="47.48912" lon="-0.32133">
        <ele>38</ele>
        <time>2012-08-20T07:15:25.000Z</time>
      </trkpt>
      <trkpt lat="47.4891" lon="-0.3214">
        <ele>39</ele>
        <time>2012-08-20T07:15:29.000Z</time>
      </trkpt>
      <trkpt lat="47.48907" lon="-0.32145">
        <ele>39</ele>
        <time>2012-08-20T07:15:37.000Z</time>
      </trkpt>
      <trkpt lat="47.48904" lon="-0.32151">
        <ele>39</ele>
        <time>2012-08-20T07:15:42.000Z</time>
      </trkpt>
      <trkpt lat="47.48904" lon="-0.32159">
        <ele>40</ele>
        <time>2012-08-20T07:15:48.000Z</time>
      </trkpt>
      <trkpt lat="47.48901" lon="-0.32166">
        <ele>40</ele>
        <time>2012-08-20T07:15:56.000Z</time>
      </trkpt>
      <trkpt lat="47.489" lon="-0.32172">
        <ele>42</ele>
        <time>2012-08-20T07:16:00.000Z</time>
      </trkpt>
      <trkpt lat="47.48899" lon="-0.32179">
        <ele>42</ele>
        <time>2012-08-20T07:16:04.000Z</time>
      </trkpt>
      <trkpt lat="47.48899" lon="-0.32188">
        <ele>42</ele>
        <time>2012-08-20T07:16:09.000Z</time>
      </trkpt>
      <trkpt lat="47.48901" lon="-0.32195">
        <ele>43</ele>
        <time>2012-08-20T07:16:19.000Z</time>
      </trkpt>
      <trkpt lat="47.48903" lon="-0.32201">
        <ele>43</ele>
        <time>2012-08-20T07:16:23.000Z</time>
      </trkpt>
      <trkpt lat="47.48906" lon="-0.32208">
        <ele>43</ele>
        <time>2012-08-20T07:16:27.000Z</time>
      </trkpt>
      <trkpt lat="47.48906" lon="-0.32215">
        <ele>44</ele>
        <time>2012-08-20T07:16:31.000Z</time>
      </trkpt>
      <trkpt lat="47.4891" lon="-0.3222">
        <ele>44</ele>
        <time>2012-08-20T07:16:36.000Z</time>
      </trkpt>
      <trkpt lat="47.48912" lon="-0.32226">
        <ele>45</ele>
        <time>2012-08-20T07:16:39.000Z</time>
      </trkpt>
      <trkpt lat="47.48914" lon="-0.32233">
        <ele>46</ele>
        <time>2012-08-20T07:16:44.000Z</time>
      </trkpt>
      <trkpt lat="47.48915" lon="-0.3224">
        <ele>47</ele>
        <time>2012-08-20T07:16:51.000Z</time>
      </trkpt>
      <trkpt lat="47.48916" lon="-0.32248">
        <ele>48</ele>
        <time>2012-08-20T07:16:56.000Z</time>
      </trkpt>
      <trkpt lat="47.48918" lon="-0.32255">
        <ele>49</ele>
        <time>2012-08-20T07:17:00.000Z</time>
      </trkpt>
      <trkpt lat="47.48919" lon="-0.32263">
        <ele>49</ele>
        <time>2012-08-20T07:17:04.000Z</time>
      </trkpt>
      <trkpt lat="47.48918" lon="-0.32271">
        <ele>49</ele>
        <time>2012-08-20T07:17:08.000Z</time>
      </trkpt>
      <trkpt lat="47.48916" lon="-0.32278">
        <ele>47</ele>
        <time>2012-08-20T07:17:11.000Z</time>
      </trkpt>
      <trkpt lat="47.48911" lon="-0.32283">
        <ele>46</ele>
        <time>2012-08-20T07:17:14.000Z</time>
      </trkpt>
      <trkpt lat="47.48906" lon="-0.32288">
        <ele>46</ele>
        <time>2012-08-20T07:17:17.000Z</time>
      </trkpt>
      <trkpt lat="47.48905" lon="-0.32294">
        <ele>46</ele>
        <time>2012-08-20T07:17:20.000Z</time>
      </trkpt>
      <trkpt lat="47.48908" lon="-0.323">
        <ele>46</ele>
        <time>2012-08-20T07:17:23.000Z</time>
      </trkpt>
      <trkpt lat="47.48912" lon="-0.32307">
        <ele>47</ele>
        <time>2012-08-20T07:17:27.000Z</time>
      </trkpt>
      <trkpt lat="47.48913" lon="-0.32314">
        <ele>47</ele>
        <time>2012-08-20T07:17:31.000Z</time>
      </trkpt>
      <trkpt lat="47.48914" lon="-0.3232">
        <ele>47</ele>
        <time>2012-08-20T07:17:42.000Z</time>
      </trkpt>
      <trkpt lat="47.48917" lon="-0.32328">
        <ele>49</ele>
        <time>2012-08-20T07:17:47.000Z</time>
      </trkpt>
      <trkpt lat="47.48919" lon="-0.32335">
        <ele>49</ele>
        <time>2012-08-20T07:17:50.000Z</time>
      </trkpt>
      <trkpt lat="47.48919" lon="-0.32342">
        <ele>49</ele>
        <time>2012-08-20T07:17:54.000Z</time>
      </trkpt>
      <trkpt lat="47.48918" lon="-0.3235">
        <ele>49</ele>
        <time>2012-08-20T07:17:57.000Z</time>
      </trkpt>
      <trkpt lat="47.48917" lon="-0.32359">
        <ele>50</ele>
        <time>2012-08-20T07:18:00.000Z</time>
      </trkpt>
      <trkpt lat="47.48916" lon="-0.32367">
        <ele>48</ele>
        <time>2012-08-20T07:18:03.000Z</time>
      </trkpt>
      <trkpt lat="47.48911" lon="-0.32371">
        <ele>48</ele>
        <time>2012-08-20T07:18:08.000Z</time>
      </trkpt>
      <trkpt lat="47.48909" lon="-0.32376">
        <ele>48</ele>
        <time>2012-08-20T07:18:12.000Z</time>
      </trkpt>
      <trkpt lat="47.48906" lon="-0.32384">
        <ele>48</ele>
        <time>2012-08-20T07:18:16.000Z</time>
      </trkpt>
      <trkpt lat="47.48904" lon="-0.3239">
        <ele>48</ele>
        <time>2012-08-20T07:18:19.000Z</time>
      </trkpt>
      <trkpt lat="47.48902" lon="-0.32396">
        <ele>48</ele>
        <time>2012-08-20T07:18:23.000Z</time>
      </trkpt>
      <trkpt lat="47.48899" lon="-0.32402">
        <ele>48</ele>
        <time>2012-08-20T07:18:26.000Z</time>
      </trkpt>
      <trkpt lat="47.48895" lon="-0.32407">
        <ele>48</ele>
        <time>2012-08-20T07:18:30.000Z</time>
      </trkpt>
      <trkpt lat="47.48893" lon="-0.32412">
        <ele>48</ele>
        <time>2012-08-20T07:18:35.000Z</time>
      </trkpt>
      <trkpt lat="47.48892" lon="-0.32421">
        <ele>50</ele>
        <time>2012-08-20T07:18:38.000Z</time>
      </trkpt>
      <trkpt lat="47.48891" lon="-0.32428">
        <ele>50</ele>
        <time>2012-08-20T07:18:41.000Z</time>
      </trkpt>
      <trkpt lat="47.48889" lon="-0.32434">
        <ele>50</ele>
        <time>2012-08-20T07:18:44.000Z</time>
      </trkpt>
      <trkpt lat="47.48888" lon="-0.32442">
        <ele>51</ele>
        <time>2012-08-20T07:18:47.000Z</time>
      </trkpt>
      <trkpt lat="47.48887" lon="-0.32448">
        <ele>51</ele>
        <time>2012-08-20T07:18:50.000Z</time>
      </trkpt>
      <trkpt lat="47.48884" lon="-0.32456">
        <ele>51</ele>
        <time>2012-08-20T07:18:54.000Z</time>
      </trkpt>
      <trkpt lat="47.48882" lon="-0.32462">
        <ele>51</ele>
        <time>2012-08-20T07:18:58.000Z</time>
      </trkpt>
      <trkpt lat="47.48878" lon="-0.32468">
        <ele>51</ele>
        <time>2012-08-20T07:19:06.000Z</time>
      </trkpt>
      <trkpt lat="47.48877" lon="-0.32475">
        <ele>51</ele>
        <time>2012-08-20T07:19:13.000Z</time>
      </trkpt>
      <trkpt lat="47.48876" lon="-0.32482">
        <ele>51</ele>
        <time>2012-08-20T07:19:17.000Z</time>
      </trkpt>
      <trkpt lat="47.48877" lon="-0.3249">
        <ele>52</ele>
        <time>2012-08-20T07:19:21.000Z</time>
      </trkpt>
      <trkpt lat="47.48876" lon="-0.32496">
        <ele>52</ele>
        <time>2012-08-20T07:19:29.000Z</time>
      </trkpt>
      <trkpt lat="47.48872" lon="-0.325">
        <ele>53</ele>
        <time>2012-08-20T07:19:36.000Z</time>
      </trkpt>
      <trkpt lat="47.48869" lon="-0.32506">
        <ele>54</ele>
        <time>2012-08-20T07:19:42.000Z</time>
      </trkpt>
      <trkpt lat="47.48868" lon="-0.32514">
        <ele>54</ele>
        <time>2012-08-20T07:19:47.000Z</time>
      </trkpt>
      <trkpt lat="47.48866" lon="-0.32521">
        <ele>54</ele>
        <time>2012-08-20T07:19:51.000Z</time>
      </trkpt>
      <trkpt lat="47.48864" lon="-0.32528">
        <ele>54</ele>
        <time>2012-08-20T07:19:55.000Z</time>
      </trkpt>
      <trkpt lat="47.48864" lon="-0.32536">
        <ele>54</ele>
        <time>2012-08-20T07:20:00.000Z</time>
      </trkpt>
      <trkpt lat="47.48863" lon="-0.32544">
        <ele>55</ele>
        <time>2012-08-20T07:20:05.000Z</time>
      </trkpt>
      <trkpt lat="47.48862" lon="-0.32551">
        <ele>55</ele>
        <time>2012-08-20T07:20:10.000Z</time>
      </trkpt>
      <trkpt lat="47.48862" lon="-0.32558">
        <ele>55</ele>
        <time>2012-08-20T07:20:15.000Z</time>
      </trkpt>
      <trkpt lat="47.48862" lon="-0.32566">
        <ele>55</ele>
        <time>2012-08-20T07:20:19.000Z</time>
      </trkpt>
      <trkpt lat="47.48862" lon="-0.32574">
        <ele>55</ele>
        <time>2012-08-20T07:20:23.000Z</time>
      </trkpt>
      <trkpt lat="47.48862" lon="-0.32582">
        <ele>55</ele>
        <time>2012-08-20T07:20:27.000Z</time>
      </trkpt>
      <trkpt lat="47.48863" lon="-0.32588">
        <ele>58</ele>
        <time>2012-08-20T07:20:31.000Z</time>
      </trkpt>
      <trkpt lat="47.48863" lon="-0.32596">
        <ele>58</ele>
        <time>2012-08-20T07:20:36.000Z</time>
      </trkpt>
      <trkpt lat="47.48863" lon="-0.32604">
        <ele>58</ele>
        <time>2012-08-20T07:20:41.000Z</time>
      </trkpt>
      <trkpt lat="47.48863" lon="-0.32611">
        <ele>58</ele>
        <time>2012-08-20T07:20:46.000Z</time>
      </trkpt>
      <trkpt lat="47.48863" lon="-0.32618">
        <ele>59</ele>
        <time>2012-08-20T07:20:51.000Z</time>
      </trkpt>
      <trkpt lat="47.48863" lon="-0.32625">
        <ele>59</ele>
        <time>2012-08-20T07:20:56.000Z</time>
      </trkpt>
      <trkpt lat="47.48863" lon="-0.32632">
        <ele>59</ele>
        <time>2012-08-20T07:21:00.000Z</time>
      </trkpt>
      <trkpt lat="47.48864" lon="-0.32639">
        <ele>59</ele>
        <time>2012-08-20T07:21:04.000Z</time>
      </trkpt>
      <trkpt lat="47.48863" lon="-0.32647">
        <ele>59</ele>
        <time>2012-08-20T07:21:09.000Z</time>
      </trkpt>
      <trkpt lat="47.48863" lon="-0.32654">
        <ele>60</ele>
        <time>2012-08-20T07:21:14.000Z</time>
      </trkpt>
      <trkpt lat="47.48866" lon="-0.32661">
        <ele>60</ele>
        <time>2012-08-20T07:21:19.000Z</time>
      </trkpt>
      <trkpt lat="47.4887" lon="-0.32665">
        <ele>60</ele>
        <time>2012-08-20T07:21:23.000Z</time>
      </trkpt>
      <trkpt lat="47.48872" lon="-0.32671">
        <ele>62</ele>
        <time>2012-08-20T07:21:26.000Z</time>
      </trkpt>
      <trkpt lat="47.48875" lon="-0.32678">
        <ele>62</ele>
        <time>2012-08-20T07:21:31.000Z</time>
      </trkpt>
      <trkpt lat="47.48879" lon="-0.32682">
        <ele>62</ele>
        <time>2012-08-20T07:21:37.000Z</time>
      </trkpt>
      <trkpt lat="47.48884" lon="-0.32681">
        <ele>62</ele>
        <time>2012-08-20T07:21:46.000Z</time>
      </trkpt>
      <trkpt lat="47.48889" lon="-0.32679">
        <ele>63</ele>
        <time>2012-08-20T07:21:51.000Z</time>
      </trkpt>
      <trkpt lat="47.48894" lon="-0.3268">
        <ele>63</ele>
        <time>2012-08-20T07:21:57.000Z</time>
      </trkpt>
      <trkpt lat="47.48898" lon="-0.32684">
        <ele>63</ele>
        <time>2012-08-20T07:22:02.000Z</time>
      </trkpt>
      <trkpt lat="47.48903" lon="-0.32687">
        <ele>63</ele>
        <time>2012-08-20T07:22:07.000Z</time>
      </trkpt>
      <trkpt lat="47.48908" lon="-0.32686">
        <ele>63</ele>
        <time>2012-08-20T07:22:13.000Z</time>
      </trkpt>
      <trkpt lat="47.48912" lon="-0.32686">
        <ele>63</ele>
        <time>2012-08-20T07:22:24.000Z</time>
      </trkpt>
      <trkpt lat="47.48917" lon="-0.32685">
        <ele>64</ele>
        <time>2012-08-20T07:22:31.000Z</time>
      </trkpt>
      <trkpt lat="47.48922" lon="-0.32684">
        <ele>64</ele>
        <time>2012-08-20T07:22:35.000Z</time>
      </trkpt>
      <trkpt lat="47.48927" lon="-0.32682">
        <ele>64</ele>
        <time>2012-08-20T07:22:38.000Z</time>
      </trkpt>
      <trkpt lat="47.48931" lon="-0.3268">
        <ele>64</ele>
        <time>2012-08-20T07:22:41.000Z</time>
      </trkpt>
      <trkpt lat="47.48936" lon="-0.32677">
        <ele>64</ele>
        <time>2012-08-20T07:22:45.000Z</time>
      </trkpt>
      <trkpt lat="47.4894" lon="-0.32673">
        <ele>64</ele>
        <time>2012-08-20T07:22:49.000Z</time>
      </trkpt>
      <trkpt lat="47.48946" lon="-0.3267">
        <ele>64</ele>
        <time>2012-08-20T07:22:53.000Z</time>
      </trkpt>
      <trkpt lat="47.48952" lon="-0.32672">
        <ele>64</ele>
        <time>2012-08-20T07:22:56.000Z</time>
      </trkpt>
      <trkpt lat="47.48958" lon="-0.32674">
        <ele>64</ele>
        <time>2012-08-20T07:22:59.000Z</time>
      </trkpt>
      <trkpt lat="47.48964" lon="-0.32677">
        <ele>64</ele>
        <time>2012-08-20T07:23:02.000Z</time>
      </trkpt>
      <trkpt lat="47.48968" lon="-0.3268">
        <ele>64</ele>
        <time>2012-08-20T07:23:04.000Z</time>
      </trkpt>
      <trkpt lat="47.48974" lon="-0.32684">
        <ele>64</ele>
        <time>2012-08-20T07:23:07.000Z</time>
      </trkpt>
      <trkpt lat="47.48979" lon="-0.32687">
        <ele>64</ele>
        <time>2012-08-20T07:23:10.000Z</time>
      </trkpt>
      <trkpt lat="47.4898" lon="-0.32694">
        <ele>64</ele>
        <time>2012-08-20T07:23:13.000Z</time>
      </trkpt>
      <trkpt lat="47.4898" lon="-0.32701">
        <ele>65</ele>
        <time>2012-08-20T07:23:16.000Z</time>
      </trkpt>
      <trkpt lat="47.48975" lon="-0.32705">
        <ele>65</ele>
        <time>2012-08-20T07:23:19.000Z</time>
      </trkpt>
      <trkpt lat="47.48975" lon="-0.32712">
        <ele>65</ele>
        <time>2012-08-20T07:23:24.000Z</time>
      </trkpt>
      <trkpt lat="47.48981" lon="-0.32715">
        <ele>66</ele>
        <time>2012-08-20T07:23:29.000Z</time>
      </trkpt>
      <trkpt lat="47.48988" lon="-0.32714">
        <ele>66</ele>
        <time>2012-08-20T07:23:31.000Z</time>
      </trkpt>
      <trkpt lat="47.48993" lon="-0.32715">
        <ele>66</ele>
        <time>2012-08-20T07:23:32.000Z</time>
      </trkpt>
      <trkpt lat="47.48998" lon="-0.32715">
        <ele>66</ele>
        <time>2012-08-20T07:23:33.000Z</time>
      </trkpt>
      <trkpt lat="47.49003" lon="-0.32714">
        <ele>65</ele>
        <time>2012-08-20T07:23:34.000Z</time>
      </trkpt>
      <trkpt lat="47.49008" lon="-0.32715">
        <ele>65</ele>
        <time>2012-08-20T07:23:35.000Z</time>
      </trkpt>
      <trkpt lat="47.49016" lon="-0.32716">
        <ele>65</ele>
        <time>2012-08-20T07:23:37.000Z</time>
      </trkpt>
      <trkpt lat="47.49022" lon="-0.32717">
        <ele>65</ele>
        <time>2012-08-20T07:23:39.000Z</time>
      </trkpt>
      <trkpt lat="47.49028" lon="-0.32718">
        <ele>65</ele>
        <time>2012-08-20T07:23:41.000Z</time>
      </trkpt>
      <trkpt lat="47.49034" lon="-0.3272">
        <ele>65</ele>
        <time>2012-08-20T07:23:43.000Z</time>
      </trkpt>
      <trkpt lat="47.49038" lon="-0.32721">
        <ele>65</ele>
        <time>2012-08-20T07:23:45.000Z</time>
      </trkpt>
      <trkpt lat="47.49045" lon="-0.32723">
        <ele>65</ele>
        <time>2012-08-20T07:23:48.000Z</time>
      </trkpt>
      <trkpt lat="47.49049" lon="-0.32725">
        <ele>65</ele>
        <time>2012-08-20T07:23:51.000Z</time>
      </trkpt>
      <trkpt lat="47.49054" lon="-0.32727">
        <ele>65</ele>
        <time>2012-08-20T07:23:56.000Z</time>
      </trkpt>
      <trkpt lat="47.49053" lon="-0.3272">
        <ele>65</ele>
        <time>2012-08-20T07:24:02.000Z</time>
      </trkpt>
      <trkpt lat="47.49056" lon="-0.32725">
        <ele>65</ele>
        <time>2012-08-20T07:24:15.000Z</time>
      </trkpt>
      <trkpt lat="47.49059" lon="-0.3273">
        <ele>66</ele>
        <time>2012-08-20T07:24:18.000Z</time>
      </trkpt>
      <trkpt lat="47.49064" lon="-0.32734">
        <ele>66</ele>
        <time>2012-08-20T07:24:20.000Z</time>
      </trkpt>
      <trkpt lat="47.49067" lon="-0.32738">
        <ele>66</ele>
        <time>2012-08-20T07:24:22.000Z</time>
      </trkpt>
      <trkpt lat="47.49072" lon="-0.32744">
        <ele>67</ele>
        <time>2012-08-20T07:24:25.000Z</time>
      </trkpt>
      <trkpt lat="47.49077" lon="-0.32747">
        <ele>68</ele>
        <time>2012-08-20T07:24:29.000Z</time>
      </trkpt>
      <trkpt lat="47.49082" lon="-0.32747">
        <ele>68</ele>
        <time>2012-08-20T07:24:33.000Z</time>
      </trkpt>
      <trkpt lat="47.49086" lon="-0.32741">
        <ele>66</ele>
        <time>2012-08-20T07:24:37.000Z</time>
      </trkpt>
      <trkpt lat="47.49085" lon="-0.32731">
        <ele>64</ele>
        <time>2012-08-20T07:24:39.000Z</time>
      </trkpt>
      <trkpt lat="47.49085" lon="-0.32722">
        <ele>63</ele>
        <time>2012-08-20T07:24:41.000Z</time>
      </trkpt>
      <trkpt lat="47.49087" lon="-0.32716">
        <ele>62</ele>
        <time>2012-08-20T07:24:43.000Z</time>
      </trkpt>
      <trkpt lat="47.4909" lon="-0.32708">
        <ele>61</ele>
        <time>2012-08-20T07:24:46.000Z</time>
      </trkpt>
      <trkpt lat="47.49094" lon="-0.32704">
        <ele>61</ele>
        <time>2012-08-20T07:24:50.000Z</time>
      </trkpt>
      <trkpt lat="47.49098" lon="-0.327">
        <ele>61</ele>
        <time>2012-08-20T07:24:55.000Z</time>
      </trkpt>
      <trkpt lat="47.49103" lon="-0.32696">
        <ele>60</ele>
        <time>2012-08-20T07:24:59.000Z</time>
      </trkpt>
      <trkpt lat="47.49108" lon="-0.32692">
        <ele>60</ele>
        <time>2012-08-20T07:25:03.000Z</time>
      </trkpt>
      <trkpt lat="47.49113" lon="-0.32691">
        <ele>60</ele>
        <time>2012-08-20T07:25:11.000Z</time>
      </trkpt>
      <trkpt lat="47.49119" lon="-0.3269">
        <ele>60</ele>
        <time>2012-08-20T07:25:15.000Z</time>
      </trkpt>
      <trkpt lat="47.49123" lon="-0.32688">
        <ele>60</ele>
        <time>2012-08-20T07:25:18.000Z</time>
      </trkpt>
      <trkpt lat="47.49128" lon="-0.3268">
        <ele>59</ele>
        <time>2012-08-20T07:25:21.000Z</time>
      </trkpt>
      <trkpt lat="47.49131" lon="-0.32675">
        <ele>59</ele>
        <time>2012-08-20T07:25:23.000Z</time>
      </trkpt>
      <trkpt lat="47.49134" lon="-0.32667">
        <ele>59</ele>
        <time>2012-08-20T07:25:26.000Z</time>
      </trkpt>
      <trkpt lat="47.49137" lon="-0.32661">
        <ele>54</ele>
        <time>2012-08-20T07:25:29.000Z</time>
      </trkpt>
      <trkpt lat="47.49141" lon="-0.32656">
        <ele>54</ele>
        <time>2012-08-20T07:25:32.000Z</time>
      </trkpt>
      <trkpt lat="47.49145" lon="-0.32652">
        <ele>54</ele>
        <time>2012-08-20T07:25:35.000Z</time>
      </trkpt>
      <trkpt lat="47.4915" lon="-0.32649">
        <ele>54</ele>
        <time>2012-08-20T07:25:39.000Z</time>
      </trkpt>
      <trkpt lat="47.49154" lon="-0.32646">
        <ele>53</ele>
        <time>2012-08-20T07:25:43.000Z</time>
      </trkpt>
      <trkpt lat="47.49159" lon="-0.32646">
        <ele>54</ele>
        <time>2012-08-20T07:25:48.000Z</time>
      </trkpt>
      <trkpt lat="47.49163" lon="-0.3265">
        <ele>54</ele>
        <time>2012-08-20T07:25:53.000Z</time>
      </trkpt>
      <trkpt lat="47.49167" lon="-0.32648">
        <ele>52</ele>
        <time>2012-08-20T07:25:57.000Z</time>
      </trkpt>
      <trkpt lat="47.49172" lon="-0.32644">
        <ele>52</ele>
        <time>2012-08-20T07:26:01.000Z</time>
      </trkpt>
      <trkpt lat="47.49177" lon="-0.32641">
        <ele>52</ele>
        <time>2012-08-20T07:26:05.000Z</time>
      </trkpt>
      <trkpt lat="47.49181" lon="-0.32637">
        <ele>51</ele>
        <time>2012-08-20T07:26:09.000Z</time>
      </trkpt>
      <trkpt lat="47.49186" lon="-0.32634">
        <ele>51</ele>
        <time>2012-08-20T07:26:13.000Z</time>
      </trkpt>
      <trkpt lat="47.49188" lon="-0.32626">
        <ele>51</ele>
        <time>2012-08-20T07:26:17.000Z</time>
      </trkpt>
      <trkpt lat="47.49189" lon="-0.32618">
        <ele>50</ele>
        <time>2012-08-20T07:26:21.000Z</time>
      </trkpt>
      <trkpt lat="47.49192" lon="-0.32613">
        <ele>50</ele>
        <time>2012-08-20T07:26:25.000Z</time>
      </trkpt>
      <trkpt lat="47.49197" lon="-0.32613">
        <ele>50</ele>
        <time>2012-08-20T07:26:28.000Z</time>
      </trkpt>
      <trkpt lat="47.49202" lon="-0.32612">
        <ele>50</ele>
        <time>2012-08-20T07:26:32.000Z</time>
      </trkpt>
      <trkpt lat="47.49206" lon="-0.32611">
        <ele>50</ele>
        <time>2012-08-20T07:26:37.000Z</time>
      </trkpt>
      <trkpt lat="47.4921" lon="-0.32605">
        <ele>50</ele>
        <time>2012-08-20T07:26:41.000Z</time>
      </trkpt>
      <trkpt lat="47.49212" lon="-0.32598">
        <ele>49</ele>
        <time>2012-08-20T07:26:46.000Z</time>
      </trkpt>
      <trkpt lat="47.49214" lon="-0.32591">
        <ele>49</ele>
        <time>2012-08-20T07:26:51.000Z</time>
      </trkpt>
      <trkpt lat="47.49215" lon="-0.32584">
        <ele>49</ele>
        <time>2012-08-20T07:26:54.000Z</time>
      </trkpt>
      <trkpt lat="47.49217" lon="-0.32576">
        <ele>46</ele>
        <time>2012-08-20T07:26:57.000Z</time>
      </trkpt>
      <trkpt lat="47.49219" lon="-0.32569">
        <ele>46</ele>
        <time>2012-08-20T07:27:00.000Z</time>
      </trkpt>
      <trkpt lat="47.49221" lon="-0.32563">
        <ele>46</ele>
        <time>2012-08-20T07:27:04.000Z</time>
      </trkpt>
      <trkpt lat="47.49224" lon="-0.32557">
        <ele>46</ele>
        <time>2012-08-20T07:27:07.000Z</time>
      </trkpt>
      <trkpt lat="47.49227" lon="-0.32551">
        <ele>46</ele>
        <time>2012-08-20T07:27:10.000Z</time>
      </trkpt>
      <trkpt lat="47.4923" lon="-0.32543">
        <ele>45</ele>
        <time>2012-08-20T07:27:14.000Z</time>
      </trkpt>
      <trkpt lat="47.49233" lon="-0.32538">
        <ele>45</ele>
        <time>2012-08-20T07:27:18.000Z</time>
      </trkpt>
      <trkpt lat="47.49237" lon="-0.32532">
        <ele>45</ele>
        <time>2012-08-20T07:27:22.000Z</time>
      </trkpt>
      <trkpt lat="47.49242" lon="-0.32527">
        <ele>45</ele>
        <time>2012-08-20T07:27:26.000Z</time>
      </trkpt>
      <trkpt lat="47.49246" lon="-0.32525">
        <ele>45</ele>
        <time>2012-08-20T07:27:30.000Z</time>
      </trkpt>
      <trkpt lat="47.49251" lon="-0.3252">
        <ele>44</ele>
        <time>2012-08-20T07:27:35.000Z</time>
      </trkpt>
      <trkpt lat="47.49254" lon="-0.32514">
        <ele>43</ele>
        <time>2012-08-20T07:27:38.000Z</time>
      </trkpt>
      <trkpt lat="47.49259" lon="-0.3251">
        <ele>43</ele>
        <time>2012-08-20T07:27:42.000Z</time>
      </trkpt>
      <trkpt lat="47.49264" lon="-0.32509">
        <ele>43</ele>
        <time>2012-08-20T07:27:45.000Z</time>
      </trkpt>
      <trkpt lat="47.49269" lon="-0.32507">
        <ele>43</ele>
        <time>2012-08-20T07:27:50.000Z</time>
      </trkpt>
      <trkpt lat="47.49273" lon="-0.32505">
        <ele>43</ele>
        <time>2012-08-20T07:27:58.000Z</time>
      </trkpt>
      <trkpt lat="47.4928" lon="-0.32503">
        <ele>43</ele>
        <time>2012-08-20T07:28:01.000Z</time>
      </trkpt>
      <trkpt lat="47.49285" lon="-0.32493">
        <ele>42</ele>
        <time>2012-08-20T07:28:03.000Z</time>
      </trkpt>
      <trkpt lat="47.49289" lon="-0.32484">
        <ele>41</ele>
        <time>2012-08-20T07:28:05.000Z</time>
      </trkpt>
      <trkpt lat="47.49293" lon="-0.32479">
        <ele>41</ele>
        <time>2012-08-20T07:28:08.000Z</time>
      </trkpt>
      <trkpt lat="47.49298" lon="-0.32478">
        <ele>41</ele>
        <time>2012-08-20T07:28:12.000Z</time>
      </trkpt>
      <trkpt lat="47.49303" lon="-0.32479">
        <ele>41</ele>
        <time>2012-08-20T07:28:17.000Z</time>
      </trkpt>
      <trkpt lat="47.49307" lon="-0.32475">
        <ele>41</ele>
        <time>2012-08-20T07:28:29.000Z</time>
      </trkpt>
      <trkpt lat="47.49312" lon="-0.32474">
        <ele>41</ele>
        <time>2012-08-20T07:28:33.000Z</time>
      </trkpt>
      <trkpt lat="47.49316" lon="-0.32472">
        <ele>41</ele>
        <time>2012-08-20T07:28:37.000Z</time>
      </trkpt>
      <trkpt lat="47.49321" lon="-0.32469">
        <ele>41</ele>
        <time>2012-08-20T07:28:42.000Z</time>
      </trkpt>
      <trkpt lat="47.49325" lon="-0.32466">
        <ele>41</ele>
        <time>2012-08-20T07:28:46.000Z</time>
      </trkpt>
      <trkpt lat="47.4933" lon="-0.32462">
        <ele>41</ele>
        <time>2012-08-20T07:28:50.000Z</time>
      </trkpt>
      <trkpt lat="47.49335" lon="-0.32459">
        <ele>41</ele>
        <time>2012-08-20T07:28:54.000Z</time>
      </trkpt>
      <trkpt lat="47.49339" lon="-0.32455">
        <ele>40</ele>
        <time>2012-08-20T07:28:58.000Z</time>
      </trkpt>
      <trkpt lat="47.49344" lon="-0.32452">
        <ele>40</ele>
        <time>2012-08-20T07:29:02.000Z</time>
      </trkpt>
      <trkpt lat="47.49348" lon="-0.32449">
        <ele>40</ele>
        <time>2012-08-20T07:29:05.000Z</time>
      </trkpt>
      <trkpt lat="47.49353" lon="-0.32445">
        <ele>40</ele>
        <time>2012-08-20T07:29:09.000Z</time>
      </trkpt>
      <trkpt lat="47.49358" lon="-0.32442">
        <ele>40</ele>
        <time>2012-08-20T07:29:13.000Z</time>
      </trkpt>
      <trkpt lat="47.49362" lon="-0.32439">
        <ele>40</ele>
        <time>2012-08-20T07:29:17.000Z</time>
      </trkpt>
      <trkpt lat="47.49367" lon="-0.32437">
        <ele>40</ele>
        <time>2012-08-20T07:29:21.000Z</time>
      </trkpt>
      <trkpt lat="47.49372" lon="-0.32436">
        <ele>40</ele>
        <time>2012-08-20T07:29:25.000Z</time>
      </trkpt>
      <trkpt lat="47.49376" lon="-0.32432">
        <ele>40</ele>
        <time>2012-08-20T07:29:29.000Z</time>
      </trkpt>
      <trkpt lat="47.49381" lon="-0.3243">
        <ele>40</ele>
        <time>2012-08-20T07:29:33.000Z</time>
      </trkpt>
      <trkpt lat="47.49385" lon="-0.32428">
        <ele>40</ele>
        <time>2012-08-20T07:29:37.000Z</time>
      </trkpt>
      <trkpt lat="47.4939" lon="-0.32426">
        <ele>40</ele>
        <time>2012-08-20T07:29:41.000Z</time>
      </trkpt>
      <trkpt lat="47.49394" lon="-0.32422">
        <ele>40</ele>
        <time>2012-08-20T07:29:46.000Z</time>
      </trkpt>
      <trkpt lat="47.49398" lon="-0.3242">
        <ele>40</ele>
        <time>2012-08-20T07:29:50.000Z</time>
      </trkpt>
      <trkpt lat="47.49403" lon="-0.32418">
        <ele>40</ele>
        <time>2012-08-20T07:29:54.000Z</time>
      </trkpt>
      <trkpt lat="47.49407" lon="-0.32416">
        <ele>40</ele>
        <time>2012-08-20T07:29:58.000Z</time>
      </trkpt>
      <trkpt lat="47.49412" lon="-0.32415">
        <ele>40</ele>
        <time>2012-08-20T07:30:02.000Z</time>
      </trkpt>
      <trkpt lat="47.49418" lon="-0.32414">
        <ele>40</ele>
        <time>2012-08-20T07:30:06.000Z</time>
      </trkpt>
      <trkpt lat="47.49423" lon="-0.32411">
        <ele>40</ele>
        <time>2012-08-20T07:30:10.000Z</time>
      </trkpt>
      <trkpt lat="47.49427" lon="-0.32408">
        <ele>39</ele>
        <time>2012-08-20T07:30:13.000Z</time>
      </trkpt>
      <trkpt lat="47.49432" lon="-0.32406">
        <ele>39</ele>
        <time>2012-08-20T07:30:16.000Z</time>
      </trkpt>
      <trkpt lat="47.49435" lon="-0.32402">
        <ele>39</ele>
        <time>2012-08-20T07:30:19.000Z</time>
      </trkpt>
      <trkpt lat="47.4944" lon="-0.32401">
        <ele>39</ele>
        <time>2012-08-20T07:30:23.000Z</time>
      </trkpt>
      <trkpt lat="47.49445" lon="-0.324">
        <ele>39</ele>
        <time>2012-08-20T07:30:27.000Z</time>
      </trkpt>
      <trkpt lat="47.4945" lon="-0.32399">
        <ele>39</ele>
        <time>2012-08-20T07:30:31.000Z</time>
      </trkpt>
      <trkpt lat="47.49454" lon="-0.32397">
        <ele>39</ele>
        <time>2012-08-20T07:30:35.000Z</time>
      </trkpt>
      <trkpt lat="47.4946" lon="-0.32393">
        <ele>38</ele>
        <time>2012-08-20T07:30:39.000Z</time>
      </trkpt>
      <trkpt lat="47.49464" lon="-0.32388">
        <ele>38</ele>
        <time>2012-08-20T07:30:42.000Z</time>
      </trkpt>
      <trkpt lat="47.49467" lon="-0.32385">
        <ele>38</ele>
        <time>2012-08-20T07:30:45.000Z</time>
      </trkpt>
      <trkpt lat="47.49472" lon="-0.32382">
        <ele>38</ele>
        <time>2012-08-20T07:30:49.000Z</time>
      </trkpt>
      <trkpt lat="47.49477" lon="-0.3238">
        <ele>38</ele>
        <time>2012-08-20T07:30:53.000Z</time>
      </trkpt>
      <trkpt lat="47.49482" lon="-0.32377">
        <ele>38</ele>
        <time>2012-08-20T07:30:57.000Z</time>
      </trkpt>
      <trkpt lat="47.49486" lon="-0.32372">
        <ele>38</ele>
        <time>2012-08-20T07:31:00.000Z</time>
      </trkpt>
      <trkpt lat="47.49491" lon="-0.32368">
        <ele>38</ele>
        <time>2012-08-20T07:31:04.000Z</time>
      </trkpt>
      <trkpt lat="47.49494" lon="-0.32362">
        <ele>38</ele>
        <time>2012-08-20T07:31:07.000Z</time>
      </trkpt>
      <trkpt lat="47.49498" lon="-0.32358">
        <ele>37</ele>
        <time>2012-08-20T07:31:10.000Z</time>
      </trkpt>
      <trkpt lat="47.49503" lon="-0.32354">
        <ele>37</ele>
        <time>2012-08-20T07:31:14.000Z</time>
      </trkpt>
      <trkpt lat="47.49506" lon="-0.32349">
        <ele>37</ele>
        <time>2012-08-20T07:31:18.000Z</time>
      </trkpt>
      <trkpt lat="47.49511" lon="-0.32348">
        <ele>37</ele>
        <time>2012-08-20T07:31:23.000Z</time>
      </trkpt>
      <trkpt lat="47.49516" lon="-0.32346">
        <ele>37</ele>
        <time>2012-08-20T07:31:28.000Z</time>
      </trkpt>
      <trkpt lat="47.49521" lon="-0.32343">
        <ele>37</ele>
        <time>2012-08-20T07:31:32.000Z</time>
      </trkpt>
      <trkpt lat="47.49526" lon="-0.32342">
        <ele>37</ele>
        <time>2012-08-20T07:31:36.000Z</time>
      </trkpt>
      <trkpt lat="47.49531" lon="-0.32342">
        <ele>37</ele>
        <time>2012-08-20T07:31:40.000Z</time>
      </trkpt>
      <trkpt lat="47.49536" lon="-0.32342">
        <ele>37</ele>
        <time>2012-08-20T07:31:44.000Z</time>
      </trkpt>
      <trkpt lat="47.49542" lon="-0.3234">
        <ele>37</ele>
        <time>2012-08-20T07:31:49.000Z</time>
      </trkpt>
      <trkpt lat="47.49546" lon="-0.32336">
        <ele>37</ele>
        <time>2012-08-20T07:31:52.000Z</time>
      </trkpt>
      <trkpt lat="47.4955" lon="-0.32331">
        <ele>36</ele>
        <time>2012-08-20T07:31:56.000Z</time>
      </trkpt>
      <trkpt lat="47.49554" lon="-0.32327">
        <ele>36</ele>
        <time>2012-08-20T07:32:00.000Z</time>
      </trkpt>
      <trkpt lat="47.49559" lon="-0.32326">
        <ele>36</ele>
        <time>2012-08-20T07:32:05.000Z</time>
      </trkpt>
      <trkpt lat="47.49564" lon="-0.32326">
        <ele>36</ele>
        <time>2012-08-20T07:32:08.999Z</time>
      </trkpt>
      <trkpt lat="47.49569" lon="-0.32329">
        <ele>36</ele>
        <time>2012-08-20T07:32:12.999Z</time>
      </trkpt>
      <trkpt lat="47.49574" lon="-0.32334">
        <ele>36</ele>
        <time>2012-08-20T07:32:16.999Z</time>
      </trkpt>
      <trkpt lat="47.49577" lon="-0.3234">
        <ele>36</ele>
        <time>2012-08-20T07:32:20.999Z</time>
      </trkpt>
      <trkpt lat="47.4958" lon="-0.32348">
        <ele>37</ele>
        <time>2012-08-20T07:32:24.999Z</time>
      </trkpt>
      <trkpt lat="47.4958" lon="-0.32355">
        <ele>37</ele>
        <time>2012-08-20T07:32:27.999Z</time>
      </trkpt>
      <trkpt lat="47.49582" lon="-0.32362">
        <ele>37</ele>
        <time>2012-08-20T07:32:30.999Z</time>
      </trkpt>
      <trkpt lat="47.49584" lon="-0.32369">
        <ele>36</ele>
        <time>2012-08-20T07:32:34.999Z</time>
      </trkpt>
      <trkpt lat="47.49588" lon="-0.32374">
        <ele>37</ele>
        <time>2012-08-20T07:32:38.999Z</time>
      </trkpt>
      <trkpt lat="47.49591" lon="-0.3238">
        <ele>37</ele>
        <time>2012-08-20T07:32:42.999Z</time>
      </trkpt>
      <trkpt lat="47.49593" lon="-0.32387">
        <ele>37</ele>
        <time>2012-08-20T07:32:47.999Z</time>
      </trkpt>
      <trkpt lat="47.49596" lon="-0.32394">
        <ele>37</ele>
        <time>2012-08-20T07:32:52.999Z</time>
      </trkpt>
      <trkpt lat="47.49597" lon="-0.32402">
        <ele>37</ele>
        <time>2012-08-20T07:32:56.999Z</time>
      </trkpt>
      <trkpt lat="47.49598" lon="-0.3241">
        <ele>38</ele>
        <time>2012-08-20T07:33:00.999Z</time>
      </trkpt>
      <trkpt lat="47.49599" lon="-0.32417">
        <ele>38</ele>
        <time>2012-08-20T07:33:04.999Z</time>
      </trkpt>
      <trkpt lat="47.496" lon="-0.32425">
        <ele>37</ele>
        <time>2012-08-20T07:33:08.999Z</time>
      </trkpt>
      <trkpt lat="47.49601" lon="-0.32432">
        <ele>37</ele>
        <time>2012-08-20T07:33:12.999Z</time>
      </trkpt>
      <trkpt lat="47.49601" lon="-0.3244">
        <ele>37</ele>
        <time>2012-08-20T07:33:16.999Z</time>
      </trkpt>
      <trkpt lat="47.49601" lon="-0.32448">
        <ele>37</ele>
        <time>2012-08-20T07:33:20.999Z</time>
      </trkpt>
      <trkpt lat="47.496" lon="-0.32454">
        <ele>37</ele>
        <time>2012-08-20T07:33:24.999Z</time>
      </trkpt>
      <trkpt lat="47.496" lon="-0.32461">
        <ele>37</ele>
        <time>2012-08-20T07:33:28.999Z</time>
      </trkpt>
      <trkpt lat="47.496" lon="-0.32469">
        <ele>36</ele>
        <time>2012-08-20T07:33:34.999Z</time>
      </trkpt>
      <trkpt lat="47.496" lon="-0.32476">
        <ele>36</ele>
        <time>2012-08-20T07:33:38.999Z</time>
      </trkpt>
      <trkpt lat="47.49598" lon="-0.32482">
        <ele>36</ele>
        <time>2012-08-20T07:33:41.999Z</time>
      </trkpt>
      <trkpt lat="47.49596" lon="-0.32491">
        <ele>37</ele>
        <time>2012-08-20T07:33:45.999Z</time>
      </trkpt>
      <trkpt lat="47.49594" lon="-0.32497">
        <ele>37</ele>
        <time>2012-08-20T07:33:50.999Z</time>
      </trkpt>
      <trkpt lat="47.49592" lon="-0.32505">
        <ele>36</ele>
        <time>2012-08-20T07:33:55.999Z</time>
      </trkpt>
      <trkpt lat="47.4959" lon="-0.32511">
        <ele>36</ele>
        <time>2012-08-20T07:33:59.999Z</time>
      </trkpt>
      <trkpt lat="47.49586" lon="-0.32516">
        <ele>36</ele>
        <time>2012-08-20T07:34:04.999Z</time>
      </trkpt>
      <trkpt lat="47.49581" lon="-0.3252">
        <ele>37</ele>
        <time>2012-08-20T07:34:08.999Z</time>
      </trkpt>
      <trkpt lat="47.49576" lon="-0.32521">
        <ele>38</ele>
        <time>2012-08-20T07:34:12.999Z</time>
      </trkpt>
      <trkpt lat="47.49571" lon="-0.32521">
        <ele>38</ele>
        <time>2012-08-20T07:34:16.999Z</time>
      </trkpt>
      <trkpt lat="47.49566" lon="-0.32522">
        <ele>38</ele>
        <time>2012-08-20T07:34:20.999Z</time>
      </trkpt>
      <trkpt lat="47.4956" lon="-0.32524">
        <ele>38</ele>
        <time>2012-08-20T07:34:24.999Z</time>
      </trkpt>
      <trkpt lat="47.49555" lon="-0.32523">
        <ele>38</ele>
        <time>2012-08-20T07:34:28.999Z</time>
      </trkpt>
      <trkpt lat="47.4955" lon="-0.32526">
        <ele>38</ele>
        <time>2012-08-20T07:34:32.999Z</time>
      </trkpt>
      <trkpt lat="47.49544" lon="-0.3253">
        <ele>38</ele>
        <time>2012-08-20T07:34:36.999Z</time>
      </trkpt>
      <trkpt lat="47.4954" lon="-0.32532">
        <ele>38</ele>
        <time>2012-08-20T07:34:40.999Z</time>
      </trkpt>
      <trkpt lat="47.49535" lon="-0.32536">
        <ele>38</ele>
        <time>2012-08-20T07:34:45.999Z</time>
      </trkpt>
      <trkpt lat="47.49531" lon="-0.3254">
        <ele>38</ele>
        <time>2012-08-20T07:34:49.999Z</time>
      </trkpt>
      <trkpt lat="47.4953" lon="-0.32546">
        <ele>38</ele>
        <time>2012-08-20T07:34:56.999Z</time>
      </trkpt>
      <trkpt lat="47.4953" lon="-0.32554">
        <ele>38</ele>
        <time>2012-08-20T07:35:01.999Z</time>
      </trkpt>
      <trkpt lat="47.4953" lon="-0.32561">
        <ele>38</ele>
        <time>2012-08-20T07:35:05.999Z</time>
      </trkpt>
      <trkpt lat="47.49531" lon="-0.32569">
        <ele>38</ele>
        <time>2012-08-20T07:35:09.999Z</time>
      </trkpt>
      <trkpt lat="47.49532" lon="-0.32577">
        <ele>38</ele>
        <time>2012-08-20T07:35:13.999Z</time>
      </trkpt>
      <trkpt lat="47.49532" lon="-0.32586">
        <ele>38</ele>
        <time>2012-08-20T07:35:17.999Z</time>
      </trkpt>
      <trkpt lat="47.49532" lon="-0.32594">
        <ele>38</ele>
        <time>2012-08-20T07:35:21.999Z</time>
      </trkpt>
      <trkpt lat="47.49533" lon="-0.32602">
        <ele>38</ele>
        <time>2012-08-20T07:35:25.999Z</time>
      </trkpt>
      <trkpt lat="47.49533" lon="-0.3261">
        <ele>38</ele>
        <time>2012-08-20T07:35:29.999Z</time>
      </trkpt>
      <trkpt lat="47.49533" lon="-0.32617">
        <ele>38</ele>
        <time>2012-08-20T07:35:33.999Z</time>
      </trkpt>
      <trkpt lat="47.49533" lon="-0.32624">
        <ele>38</ele>
        <time>2012-08-20T07:35:37.999Z</time>
      </trkpt>
      <trkpt lat="47.49533" lon="-0.32631">
        <ele>38</ele>
        <time>2012-08-20T07:35:41.999Z</time>
      </trkpt>
      <trkpt lat="47.49534" lon="-0.32638">
        <ele>38</ele>
        <time>2012-08-20T07:35:45.999Z</time>
      </trkpt>
      <trkpt lat="47.49535" lon="-0.32646">
        <ele>38</ele>
        <time>2012-08-20T07:35:49.999Z</time>
      </trkpt>
      <trkpt lat="47.49535" lon="-0.32652">
        <ele>38</ele>
        <time>2012-08-20T07:35:53.999Z</time>
      </trkpt>
      <trkpt lat="47.49535" lon="-0.32659">
        <ele>38</ele>
        <time>2012-08-20T07:35:57.999Z</time>
      </trkpt>
      <trkpt lat="47.49536" lon="-0.32666">
        <ele>38</ele>
        <time>2012-08-20T07:36:01.999Z</time>
      </trkpt>
      <trkpt lat="47.49536" lon="-0.32674">
        <ele>39</ele>
        <time>2012-08-20T07:36:05.999Z</time>
      </trkpt>
      <trkpt lat="47.49537" lon="-0.32681">
        <ele>39</ele>
        <time>2012-08-20T07:36:09.999Z</time>
      </trkpt>
      <trkpt lat="47.49537" lon="-0.32688">
        <ele>39</ele>
        <time>2012-08-20T07:36:13.999Z</time>
      </trkpt>
      <trkpt lat="47.49537" lon="-0.32695">
        <ele>39</ele>
        <time>2012-08-20T07:36:18.999Z</time>
      </trkpt>
      <trkpt lat="47.49538" lon="-0.32704">
        <ele>39</ele>
        <time>2012-08-20T07:36:23.999Z</time>
      </trkpt>
      <trkpt lat="47.49538" lon="-0.3271">
        <ele>39</ele>
        <time>2012-08-20T07:36:27.999Z</time>
      </trkpt>
      <trkpt lat="47.49538" lon="-0.32717">
        <ele>39</ele>
        <time>2012-08-20T07:36:31.999Z</time>
      </trkpt>
      <trkpt lat="47.49538" lon="-0.32724">
        <ele>39</ele>
        <time>2012-08-20T07:36:36.999Z</time>
      </trkpt>
      <trkpt lat="47.49538" lon="-0.32732">
        <ele>40</ele>
        <time>2012-08-20T07:36:41.999Z</time>
      </trkpt>
      <trkpt lat="47.49539" lon="-0.32739">
        <ele>40</ele>
        <time>2012-08-20T07:36:45.999Z</time>
      </trkpt>
      <trkpt lat="47.4954" lon="-0.32747">
        <ele>40</ele>
        <time>2012-08-20T07:36:49.999Z</time>
      </trkpt>
      <trkpt lat="47.49541" lon="-0.32754">
        <ele>40</ele>
        <time>2012-08-20T07:36:53.999Z</time>
      </trkpt>
      <trkpt lat="47.49542" lon="-0.32761">
        <ele>40</ele>
        <time>2012-08-20T07:36:57.999Z</time>
      </trkpt>
      <trkpt lat="47.49542" lon="-0.32769">
        <ele>40</ele>
        <time>2012-08-20T07:37:02.999Z</time>
      </trkpt>
      <trkpt lat="47.49542" lon="-0.32776">
        <ele>40</ele>
        <time>2012-08-20T07:37:06.999Z</time>
      </trkpt>
      <trkpt lat="47.49543" lon="-0.32783">
        <ele>40</ele>
        <time>2012-08-20T07:37:10.999Z</time>
      </trkpt>
      <trkpt lat="47.49542" lon="-0.3279">
        <ele>40</ele>
        <time>2012-08-20T07:37:14.999Z</time>
      </trkpt>
      <trkpt lat="47.49542" lon="-0.32798">
        <ele>40</ele>
        <time>2012-08-20T07:37:18.999Z</time>
      </trkpt>
      <trkpt lat="47.49542" lon="-0.32806">
        <ele>40</ele>
        <time>2012-08-20T07:37:22.999Z</time>
      </trkpt>
      <trkpt lat="47.49542" lon="-0.32814">
        <ele>40</ele>
        <time>2012-08-20T07:37:26.999Z</time>
      </trkpt>
      <trkpt lat="47.49542" lon="-0.32821">
        <ele>40</ele>
        <time>2012-08-20T07:37:30.999Z</time>
      </trkpt>
      <trkpt lat="47.49542" lon="-0.32829">
        <ele>40</ele>
        <time>2012-08-20T07:37:34.999Z</time>
      </trkpt>
      <trkpt lat="47.49541" lon="-0.32836">
        <ele>39</ele>
        <time>2012-08-20T07:37:38.999Z</time>
      </trkpt>
      <trkpt lat="47.49541" lon="-0.32843">
        <ele>39</ele>
        <time>2012-08-20T07:37:42.999Z</time>
      </trkpt>
      <trkpt lat="47.49541" lon="-0.3285">
        <ele>39</ele>
        <time>2012-08-20T07:37:46.999Z</time>
      </trkpt>
      <trkpt lat="47.49541" lon="-0.32858">
        <ele>39</ele>
        <time>2012-08-20T07:37:51.999Z</time>
      </trkpt>
      <trkpt lat="47.49541" lon="-0.32865">
        <ele>39</ele>
        <time>2012-08-20T07:37:55.999Z</time>
      </trkpt>
      <trkpt lat="47.49541" lon="-0.32872">
        <ele>39</ele>
        <time>2012-08-20T07:38:01.999Z</time>
      </trkpt>
      <trkpt lat="47.4954" lon="-0.32881">
        <ele>39</ele>
        <time>2012-08-20T07:38:07.999Z</time>
      </trkpt>
      <trkpt lat="47.49539" lon="-0.32888">
        <ele>39</ele>
        <time>2012-08-20T07:38:11.999Z</time>
      </trkpt>
      <trkpt lat="47.49538" lon="-0.32895">
        <ele>39</ele>
        <time>2012-08-20T07:38:14.999Z</time>
      </trkpt>
      <trkpt lat="47.49538" lon="-0.32903">
        <ele>39</ele>
        <time>2012-08-20T07:38:18.999Z</time>
      </trkpt>
      <trkpt lat="47.49537" lon="-0.3291">
        <ele>39</ele>
        <time>2012-08-20T07:38:22.999Z</time>
      </trkpt>
      <trkpt lat="47.49536" lon="-0.32918">
        <ele>40</ele>
        <time>2012-08-20T07:38:26.999Z</time>
      </trkpt>
      <trkpt lat="47.49536" lon="-0.32925">
        <ele>40</ele>
        <time>2012-08-20T07:38:29.999Z</time>
      </trkpt>
      <trkpt lat="47.49535" lon="-0.32932">
        <ele>40</ele>
        <time>2012-08-20T07:38:32.999Z</time>
      </trkpt>
      <trkpt lat="47.49535" lon="-0.3294">
        <ele>40</ele>
        <time>2012-08-20T07:38:37.999Z</time>
      </trkpt>
      <trkpt lat="47.49535" lon="-0.32948">
        <ele>40</ele>
        <time>2012-08-20T07:38:42.999Z</time>
      </trkpt>
      <trkpt lat="47.49536" lon="-0.32956">
        <ele>40</ele>
        <time>2012-08-20T07:38:47.999Z</time>
      </trkpt>
      <trkpt lat="47.49534" lon="-0.32964">
        <ele>40</ele>
        <time>2012-08-20T07:38:53.999Z</time>
      </trkpt>
      <trkpt lat="47.49534" lon="-0.32971">
        <ele>40</ele>
        <time>2012-08-20T07:38:57.999Z</time>
      </trkpt>
      <trkpt lat="47.49534" lon="-0.32979">
        <ele>40</ele>
        <time>2012-08-20T07:39:01.999Z</time>
      </trkpt>
      <trkpt lat="47.49534" lon="-0.32986">
        <ele>40</ele>
        <time>2012-08-20T07:39:05.999Z</time>
      </trkpt>
      <trkpt lat="47.49534" lon="-0.32994">
        <ele>40</ele>
        <time>2012-08-20T07:39:09.999Z</time>
      </trkpt>
      <trkpt lat="47.49533" lon="-0.33001">
        <ele>40</ele>
        <time>2012-08-20T07:39:15.999Z</time>
      </trkpt>
      <trkpt lat="47.49534" lon="-0.33009">
        <ele>40</ele>
        <time>2012-08-20T07:39:21.999Z</time>
      </trkpt>
      <trkpt lat="47.49534" lon="-0.33017">
        <ele>40</ele>
        <time>2012-08-20T07:39:26.999Z</time>
      </trkpt>
      <trkpt lat="47.49533" lon="-0.33024">
        <ele>40</ele>
        <time>2012-08-20T07:39:30.999Z</time>
      </trkpt>
      <trkpt lat="47.49534" lon="-0.33031">
        <ele>40</ele>
        <time>2012-08-20T07:39:34.999Z</time>
      </trkpt>
      <trkpt lat="47.49534" lon="-0.3304">
        <ele>40</ele>
        <time>2012-08-20T07:39:38.999Z</time>
      </trkpt>
      <trkpt lat="47.49534" lon="-0.33048">
        <ele>40</ele>
        <time>2012-08-20T07:39:42.999Z</time>
      </trkpt>
      <trkpt lat="47.49533" lon="-0.33054">
        <ele>40</ele>
        <time>2012-08-20T07:39:46.999Z</time>
      </trkpt>
      <trkpt lat="47.49533" lon="-0.33061">
        <ele>40</ele>
        <time>2012-08-20T07:39:50.999Z</time>
      </trkpt>
      <trkpt lat="47.49533" lon="-0.33069">
        <ele>40</ele>
        <time>2012-08-20T07:39:55.999Z</time>
      </trkpt>
      <trkpt lat="47.49533" lon="-0.33077">
        <ele>40</ele>
        <time>2012-08-20T07:40:00.999Z</time>
      </trkpt>
      <trkpt lat="47.49532" lon="-0.33085">
        <ele>40</ele>
        <time>2012-08-20T07:40:04.999Z</time>
      </trkpt>
      <trkpt lat="47.49531" lon="-0.33094">
        <ele>40</ele>
        <time>2012-08-20T07:40:08.999Z</time>
      </trkpt>
      <trkpt lat="47.4953" lon="-0.33102">
        <ele>40</ele>
        <time>2012-08-20T07:40:12.999Z</time>
      </trkpt>
      <trkpt lat="47.4953" lon="-0.3311">
        <ele>40</ele>
        <time>2012-08-20T07:40:16.999Z</time>
      </trkpt>
      <trkpt lat="47.4953" lon="-0.33118">
        <ele>40</ele>
        <time>2012-08-20T07:40:20.999Z</time>
      </trkpt>
      <trkpt lat="47.4953" lon="-0.33126">
        <ele>40</ele>
        <time>2012-08-20T07:40:24.999Z</time>
      </trkpt>
      <trkpt lat="47.4953" lon="-0.33133">
        <ele>40</ele>
        <time>2012-08-20T07:40:30.999Z</time>
      </trkpt>
      <trkpt lat="47.49529" lon="-0.33141">
        <ele>40</ele>
        <time>2012-08-20T07:40:36.999Z</time>
      </trkpt>
      <trkpt lat="47.49528" lon="-0.33148">
        <ele>40</ele>
        <time>2012-08-20T07:40:40.999Z</time>
      </trkpt>
      <trkpt lat="47.49527" lon="-0.33156">
        <ele>40</ele>
        <time>2012-08-20T07:40:45.999Z</time>
      </trkpt>
      <trkpt lat="47.49526" lon="-0.33162">
        <ele>40</ele>
        <time>2012-08-20T07:40:49.999Z</time>
      </trkpt>
      <trkpt lat="47.49526" lon="-0.33169">
        <ele>40</ele>
        <time>2012-08-20T07:40:54.999Z</time>
      </trkpt>
      <trkpt lat="47.49526" lon="-0.33176">
        <ele>40</ele>
        <time>2012-08-20T07:40:58.999Z</time>
      </trkpt>
      <trkpt lat="47.49526" lon="-0.33183">
        <ele>40</ele>
        <time>2012-08-20T07:41:03.999Z</time>
      </trkpt>
      <trkpt lat="47.49526" lon="-0.33192">
        <ele>40</ele>
        <time>2012-08-20T07:41:08.999Z</time>
      </trkpt>
      <trkpt lat="47.49526" lon="-0.332">
        <ele>40</ele>
        <time>2012-08-20T07:41:13.999Z</time>
      </trkpt>
      <trkpt lat="47.49527" lon="-0.33206">
        <ele>40</ele>
        <time>2012-08-20T07:41:17.999Z</time>
      </trkpt>
      <trkpt lat="47.49527" lon="-0.33215">
        <ele>40</ele>
        <time>2012-08-20T07:41:21.999Z</time>
      </trkpt>
      <trkpt lat="47.49527" lon="-0.33224">
        <ele>40</ele>
        <time>2012-08-20T07:41:25.999Z</time>
      </trkpt>
      <trkpt lat="47.49527" lon="-0.33231">
        <ele>40</ele>
        <time>2012-08-20T07:41:29.999Z</time>
      </trkpt>
      <trkpt lat="47.49527" lon="-0.33238">
        <ele>40</ele>
        <time>2012-08-20T07:41:33.999Z</time>
      </trkpt>
      <trkpt lat="47.49526" lon="-0.33246">
        <ele>40</ele>
        <time>2012-08-20T07:41:37.999Z</time>
      </trkpt>
      <trkpt lat="47.49526" lon="-0.33252">
        <ele>41</ele>
        <time>2012-08-20T07:41:42.999Z</time>
      </trkpt>
      <trkpt lat="47.49528" lon="-0.3326">
        <ele>41</ele>
        <time>2012-08-20T07:42:36.999Z</time>
      </trkpt>
      <trkpt lat="47.49529" lon="-0.33267">
        <ele>41</ele>
        <time>2012-08-20T07:42:40.999Z</time>
      </trkpt>
      <trkpt lat="47.49531" lon="-0.33275">
        <ele>41</ele>
        <time>2012-08-20T07:42:45.999Z</time>
      </trkpt>
      <trkpt lat="47.49532" lon="-0.33283">
        <ele>41</ele>
        <time>2012-08-20T07:42:50.999Z</time>
      </trkpt>
      <trkpt lat="47.49533" lon="-0.33291">
        <ele>41</ele>
        <time>2012-08-20T07:42:54.999Z</time>
      </trkpt>
      <trkpt lat="47.49535" lon="-0.33298">
        <ele>41</ele>
        <time>2012-08-20T07:42:58.999Z</time>
      </trkpt>
      <trkpt lat="47.49536" lon="-0.33305">
        <ele>41</ele>
        <time>2012-08-20T07:43:02.999Z</time>
      </trkpt>
      <trkpt lat="47.49535" lon="-0.33314">
        <ele>41</ele>
        <time>2012-08-20T07:44:39.999Z</time>
      </trkpt>
      <trkpt lat="47.49534" lon="-0.33321">
        <ele>41</ele>
        <time>2012-08-20T07:44:43.999Z</time>
      </trkpt>
      <trkpt lat="47.49533" lon="-0.33327">
        <ele>41</ele>
        <time>2012-08-20T07:44:49.999Z</time>
      </trkpt>
      <trkpt lat="47.49531" lon="-0.33334">
        <ele>43</ele>
        <time>2012-08-20T07:44:54.999Z</time>
      </trkpt>
      <trkpt lat="47.49529" lon="-0.33341">
        <ele>43</ele>
        <time>2012-08-20T07:44:58.999Z</time>
      </trkpt>
      <trkpt lat="47.49526" lon="-0.33346">
        <ele>43</ele>
        <time>2012-08-20T07:45:02.999Z</time>
      </trkpt>
      <trkpt lat="47.49523" lon="-0.33352">
        <ele>43</ele>
        <time>2012-08-20T07:45:06.999Z</time>
      </trkpt>
      <trkpt lat="47.49521" lon="-0.33358">
        <ele>44</ele>
        <time>2012-08-20T07:45:10.999Z</time>
      </trkpt>
      <trkpt lat="47.4952" lon="-0.33366">
        <ele>44</ele>
        <time>2012-08-20T07:45:13.999Z</time>
      </trkpt>
      <trkpt lat="47.49519" lon="-0.33373">
        <ele>44</ele>
        <time>2012-08-20T07:45:16.999Z</time>
      </trkpt>
      <trkpt lat="47.49515" lon="-0.3338">
        <ele>45</ele>
        <time>2012-08-20T07:45:19.999Z</time>
      </trkpt>
      <trkpt lat="47.4951" lon="-0.33383">
        <ele>45</ele>
        <time>2012-08-20T07:45:21.999Z</time>
      </trkpt>
      <trkpt lat="47.49505" lon="-0.33387">
        <ele>45</ele>
        <time>2012-08-20T07:45:24.999Z</time>
      </trkpt>
      <trkpt lat="47.49504" lon="-0.33396">
        <ele>46</ele>
        <time>2012-08-20T07:45:28.999Z</time>
      </trkpt>
      <trkpt lat="47.49507" lon="-0.33401">
        <ele>46</ele>
        <time>2012-08-20T07:45:30.999Z</time>
      </trkpt>
      <trkpt lat="47.4951" lon="-0.33407">
        <ele>46</ele>
        <time>2012-08-20T07:45:32.999Z</time>
      </trkpt>
      <trkpt lat="47.49513" lon="-0.33414">
        <ele>47</ele>
        <time>2012-08-20T07:45:35.999Z</time>
      </trkpt>
      <trkpt lat="47.49517" lon="-0.3342">
        <ele>48</ele>
        <time>2012-08-20T07:45:38.999Z</time>
      </trkpt>
      <trkpt lat="47.4952" lon="-0.33426">
        <ele>48</ele>
        <time>2012-08-20T07:45:41.999Z</time>
      </trkpt>
      <trkpt lat="47.49525" lon="-0.33424">
        <ele>48</ele>
        <time>2012-08-20T07:45:43.999Z</time>
      </trkpt>
      <trkpt lat="47.49531" lon="-0.3342">
        <ele>48</ele>
        <time>2012-08-20T07:45:45.999Z</time>
      </trkpt>
      <trkpt lat="47.49523" lon="-0.33421">
        <ele>48</ele>
        <time>2012-08-20T07:45:51.999Z</time>
      </trkpt>
      <trkpt lat="47.49516" lon="-0.33421">
        <ele>48</ele>
        <time>2012-08-20T07:45:53.999Z</time>
      </trkpt>
      <trkpt lat="47.4951" lon="-0.33422">
        <ele>48</ele>
        <time>2012-08-20T07:45:55.999Z</time>
      </trkpt>
      <trkpt lat="47.49505" lon="-0.3342">
        <ele>48</ele>
        <time>2012-08-20T07:45:58.999Z</time>
      </trkpt>
      <trkpt lat="47.49502" lon="-0.33416">
        <ele>48</ele>
        <time>2012-08-20T07:46:05.999Z</time>
      </trkpt>
      <trkpt lat="47.49497" lon="-0.33418">
        <ele>48</ele>
        <time>2012-08-20T07:46:12.999Z</time>
      </trkpt>
      <trkpt lat="47.49496" lon="-0.33425">
        <ele>47</ele>
        <time>2012-08-20T07:46:16.999Z</time>
      </trkpt>
      <trkpt lat="47.49497" lon="-0.33433">
        <ele>47</ele>
        <time>2012-08-20T07:46:18.999Z</time>
      </trkpt>
      <trkpt lat="47.49498" lon="-0.33441">
        <ele>47</ele>
        <time>2012-08-20T07:46:20.999Z</time>
      </trkpt>
      <trkpt lat="47.49499" lon="-0.33449">
        <ele>47</ele>
        <time>2012-08-20T07:46:22.999Z</time>
      </trkpt>
      <trkpt lat="47.495" lon="-0.33458">
        <ele>47</ele>
        <time>2012-08-20T07:46:24.999Z</time>
      </trkpt>
      <trkpt lat="47.495" lon="-0.33464">
        <ele>47</ele>
        <time>2012-08-20T07:46:26.999Z</time>
      </trkpt>
      <trkpt lat="47.49501" lon="-0.33473">
        <ele>48</ele>
        <time>2012-08-20T07:46:29.999Z</time>
      </trkpt>
      <trkpt lat="47.49501" lon="-0.33481">
        <ele>48</ele>
        <time>2012-08-20T07:46:32.999Z</time>
      </trkpt>
      <trkpt lat="47.495" lon="-0.33488">
        <ele>47</ele>
        <time>2012-08-20T07:46:35.999Z</time>
      </trkpt>
      <trkpt lat="47.49502" lon="-0.33495">
        <ele>48</ele>
        <time>2012-08-20T07:46:38.999Z</time>
      </trkpt>
      <trkpt lat="47.49501" lon="-0.33503">
        <ele>48</ele>
        <time>2012-08-20T07:46:41.999Z</time>
      </trkpt>
      <trkpt lat="47.495" lon="-0.3351">
        <ele>47</ele>
        <time>2012-08-20T07:46:44.999Z</time>
      </trkpt>
      <trkpt lat="47.49504" lon="-0.33516">
        <ele>48</ele>
        <time>2012-08-20T07:46:47.999Z</time>
      </trkpt>
      <trkpt lat="47.49507" lon="-0.33522">
        <ele>47</ele>
        <time>2012-08-20T07:46:51.999Z</time>
      </trkpt>
      <trkpt lat="47.49508" lon="-0.33528">
        <ele>47</ele>
        <time>2012-08-20T07:46:55.999Z</time>
      </trkpt>
      <trkpt lat="47.49506" lon="-0.33536">
        <ele>47</ele>
        <time>2012-08-20T07:47:00.999Z</time>
      </trkpt>
      <trkpt lat="47.495" lon="-0.33538">
        <ele>46</ele>
        <time>2012-08-20T07:47:03.999Z</time>
      </trkpt>
      <trkpt lat="47.49495" lon="-0.33538">
        <ele>46</ele>
        <time>2012-08-20T07:47:05.999Z</time>
      </trkpt>
      <trkpt lat="47.49493" lon="-0.33545">
        <ele>46</ele>
        <time>2012-08-20T07:47:09.999Z</time>
      </trkpt>
      <trkpt lat="47.49496" lon="-0.33552">
        <ele>46</ele>
        <time>2012-08-20T07:47:15.999Z</time>
      </trkpt>
      <trkpt lat="47.49499" lon="-0.33556">
        <ele>46</ele>
        <time>2012-08-20T07:47:18.999Z</time>
      </trkpt>
      <trkpt lat="47.49501" lon="-0.33563">
        <ele>47</ele>
        <time>2012-08-20T07:47:22.999Z</time>
      </trkpt>
      <trkpt lat="47.49502" lon="-0.33569">
        <ele>47</ele>
        <time>2012-08-20T07:47:28.999Z</time>
      </trkpt>
      <trkpt lat="47.495" lon="-0.33576">
        <ele>46</ele>
        <time>2012-08-20T07:47:34.999Z</time>
      </trkpt>
      <trkpt lat="47.49497" lon="-0.3358">
        <ele>46</ele>
        <time>2012-08-20T07:47:38.999Z</time>
      </trkpt>
      <trkpt lat="47.49496" lon="-0.33589">
        <ele>46</ele>
        <time>2012-08-20T07:47:43.999Z</time>
      </trkpt>
      <trkpt lat="47.49494" lon="-0.33596">
        <ele>46</ele>
        <time>2012-08-20T07:47:47.999Z</time>
      </trkpt>
      <trkpt lat="47.49495" lon="-0.33604">
        <ele>46</ele>
        <time>2012-08-20T07:47:51.999Z</time>
      </trkpt>
      <trkpt lat="47.49492" lon="-0.33611">
        <ele>46</ele>
        <time>2012-08-20T07:47:56.999Z</time>
      </trkpt>
      <trkpt lat="47.49488" lon="-0.33615">
        <ele>46</ele>
        <time>2012-08-20T07:47:59.999Z</time>
      </trkpt>
      <trkpt lat="47.49484" lon="-0.3362">
        <ele>46</ele>
        <time>2012-08-20T07:48:03.999Z</time>
      </trkpt>
      <trkpt lat="47.49481" lon="-0.33625">
        <ele>46</ele>
        <time>2012-08-20T07:48:07.999Z</time>
      </trkpt>
      <trkpt lat="47.49484" lon="-0.33631">
        <ele>46</ele>
        <time>2012-08-20T07:48:13.999Z</time>
      </trkpt>
      <trkpt lat="47.49487" lon="-0.33636">
        <ele>46</ele>
        <time>2012-08-20T07:48:18.999Z</time>
      </trkpt>
      <trkpt lat="47.49486" lon="-0.33644">
        <ele>46</ele>
        <time>2012-08-20T07:48:21.999Z</time>
      </trkpt>
      <trkpt lat="47.49482" lon="-0.33651">
        <ele>46</ele>
        <time>2012-08-20T07:48:24.999Z</time>
      </trkpt>
      <trkpt lat="47.4948" lon="-0.3366">
        <ele>46</ele>
        <time>2012-08-20T07:48:32.999Z</time>
      </trkpt>
      <trkpt lat="47.49477" lon="-0.33666">
        <ele>46</ele>
        <time>2012-08-20T07:48:34.999Z</time>
      </trkpt>
      <trkpt lat="47.49473" lon="-0.33673">
        <ele>46</ele>
        <time>2012-08-20T07:48:37.999Z</time>
      </trkpt>
      <trkpt lat="47.49468" lon="-0.33679">
        <ele>46</ele>
        <time>2012-08-20T07:48:40.999Z</time>
      </trkpt>
      <trkpt lat="47.49463" lon="-0.33683">
        <ele>46</ele>
        <time>2012-08-20T07:48:43.999Z</time>
      </trkpt>
      <trkpt lat="47.49459" lon="-0.3369">
        <ele>46</ele>
        <time>2012-08-20T07:48:47.999Z</time>
      </trkpt>
      <trkpt lat="47.49458" lon="-0.33698">
        <ele>46</ele>
        <time>2012-08-20T07:48:51.999Z</time>
      </trkpt>
      <trkpt lat="47.49457" lon="-0.33706">
        <ele>46</ele>
        <time>2012-08-20T07:48:55.999Z</time>
      </trkpt>
      <trkpt lat="47.49455" lon="-0.33712">
        <ele>47</ele>
        <time>2012-08-20T07:49:07.999Z</time>
      </trkpt>
      <trkpt lat="47.49451" lon="-0.33718">
        <ele>47</ele>
        <time>2012-08-20T07:49:12.999Z</time>
      </trkpt>
      <trkpt lat="47.49449" lon="-0.33724">
        <ele>47</ele>
        <time>2012-08-20T07:49:17.999Z</time>
      </trkpt>
      <trkpt lat="47.49447" lon="-0.33732">
        <ele>47</ele>
        <time>2012-08-20T07:49:22.999Z</time>
      </trkpt>
      <trkpt lat="47.49444" lon="-0.33738">
        <ele>47</ele>
        <time>2012-08-20T07:49:26.999Z</time>
      </trkpt>
      <trkpt lat="47.4944" lon="-0.33743">
        <ele>47</ele>
        <time>2012-08-20T07:49:30.999Z</time>
      </trkpt>
      <trkpt lat="47.49437" lon="-0.33749">
        <ele>47</ele>
        <time>2012-08-20T07:49:35.999Z</time>
      </trkpt>
      <trkpt lat="47.49432" lon="-0.33753">
        <ele>47</ele>
        <time>2012-08-20T07:49:40.999Z</time>
      </trkpt>
      <trkpt lat="47.49427" lon="-0.33758">
        <ele>47</ele>
        <time>2012-08-20T07:49:44.999Z</time>
      </trkpt>
      <trkpt lat="47.49422" lon="-0.33763">
        <ele>47</ele>
        <time>2012-08-20T07:49:47.999Z</time>
      </trkpt>
      <trkpt lat="47.49418" lon="-0.33771">
        <ele>47</ele>
        <time>2012-08-20T07:49:50.999Z</time>
      </trkpt>
      <trkpt lat="47.49415" lon="-0.33778">
        <ele>47</ele>
        <time>2012-08-20T07:49:53.999Z</time>
      </trkpt>
      <trkpt lat="47.49413" lon="-0.33785">
        <ele>47</ele>
        <time>2012-08-20T07:49:57.999Z</time>
      </trkpt>
      <trkpt lat="47.49411" lon="-0.33794">
        <ele>47</ele>
        <time>2012-08-20T07:50:00.999Z</time>
      </trkpt>
      <trkpt lat="47.49408" lon="-0.33803">
        <ele>46</ele>
        <time>2012-08-20T07:50:03.999Z</time>
      </trkpt>
      <trkpt lat="47.49405" lon="-0.3381">
        <ele>46</ele>
        <time>2012-08-20T07:50:06.999Z</time>
      </trkpt>
      <trkpt lat="47.49404" lon="-0.33817">
        <ele>46</ele>
        <time>2012-08-20T07:50:09.999Z</time>
      </trkpt>
      <trkpt lat="47.49401" lon="-0.33824">
        <ele>46</ele>
        <time>2012-08-20T07:50:12.999Z</time>
      </trkpt>
      <trkpt lat="47.49399" lon="-0.33831">
        <ele>46</ele>
        <time>2012-08-20T07:50:15.999Z</time>
      </trkpt>
      <trkpt lat="47.49397" lon="-0.33837">
        <ele>45</ele>
        <time>2012-08-20T07:50:19.999Z</time>
      </trkpt>
      <trkpt lat="47.49395" lon="-0.33844">
        <ele>45</ele>
        <time>2012-08-20T07:50:23.999Z</time>
      </trkpt>
      <trkpt lat="47.49393" lon="-0.3385">
        <ele>45</ele>
        <time>2012-08-20T07:50:26.999Z</time>
      </trkpt>
      <trkpt lat="47.4939" lon="-0.33855">
        <ele>45</ele>
        <time>2012-08-20T07:50:29.999Z</time>
      </trkpt>
      <trkpt lat="47.49386" lon="-0.3386">
        <ele>45</ele>
        <time>2012-08-20T07:50:32.999Z</time>
      </trkpt>
      <trkpt lat="47.49382" lon="-0.33865">
        <ele>45</ele>
        <time>2012-08-20T07:50:35.999Z</time>
      </trkpt>
      <trkpt lat="47.49378" lon="-0.33869">
        <ele>45</ele>
        <time>2012-08-20T07:50:39.999Z</time>
      </trkpt>
      <trkpt lat="47.49375" lon="-0.33874">
        <ele>45</ele>
        <time>2012-08-20T07:50:43.999Z</time>
      </trkpt>
      <trkpt lat="47.49374" lon="-0.33882">
        <ele>45</ele>
        <time>2012-08-20T07:50:47.999Z</time>
      </trkpt>
      <trkpt lat="47.49372" lon="-0.33889">
        <ele>45</ele>
        <time>2012-08-20T07:50:53.999Z</time>
      </trkpt>
      <trkpt lat="47.49371" lon="-0.33896">
        <ele>45</ele>
        <time>2012-08-20T07:50:57.999Z</time>
      </trkpt>
      <trkpt lat="47.49369" lon="-0.33905">
        <ele>45</ele>
        <time>2012-08-20T07:51:01.999Z</time>
      </trkpt>
      <trkpt lat="47.49368" lon="-0.33911">
        <ele>45</ele>
        <time>2012-08-20T07:51:04.999Z</time>
      </trkpt>
      <trkpt lat="47.49366" lon="-0.33919">
        <ele>45</ele>
        <time>2012-08-20T07:51:08.999Z</time>
      </trkpt>
      <trkpt lat="47.49365" lon="-0.33926">
        <ele>45</ele>
        <time>2012-08-20T07:51:12.999Z</time>
      </trkpt>
      <trkpt lat="47.49364" lon="-0.33933">
        <ele>46</ele>
        <time>2012-08-20T07:51:18.999Z</time>
      </trkpt>
      <trkpt lat="47.49365" lon="-0.3394">
        <ele>46</ele>
        <time>2012-08-20T07:51:22.999Z</time>
      </trkpt>
      <trkpt lat="47.49365" lon="-0.33947">
        <ele>46</ele>
        <time>2012-08-20T07:51:25.999Z</time>
      </trkpt>
      <trkpt lat="47.49362" lon="-0.33952">
        <ele>46</ele>
        <time>2012-08-20T07:51:29.999Z</time>
      </trkpt>
      <trkpt lat="47.49357" lon="-0.33957">
        <ele>46</ele>
        <time>2012-08-20T07:51:33.999Z</time>
      </trkpt>
      <trkpt lat="47.49354" lon="-0.33963">
        <ele>46</ele>
        <time>2012-08-20T07:51:37.999Z</time>
      </trkpt>
      <trkpt lat="47.49355" lon="-0.33971">
        <ele>46</ele>
        <time>2012-08-20T07:51:39.999Z</time>
      </trkpt>
      <trkpt lat="47.49356" lon="-0.33978">
        <ele>47</ele>
        <time>2012-08-20T07:51:41.999Z</time>
      </trkpt>
      <trkpt lat="47.49358" lon="-0.33985">
        <ele>47</ele>
        <time>2012-08-20T07:51:43.999Z</time>
      </trkpt>
      <trkpt lat="47.49359" lon="-0.33993">
        <ele>47</ele>
        <time>2012-08-20T07:51:46.999Z</time>
      </trkpt>
      <trkpt lat="47.4936" lon="-0.34001">
        <ele>48</ele>
        <time>2012-08-20T07:51:49.999Z</time>
      </trkpt>
      <trkpt lat="47.4936" lon="-0.34009">
        <ele>48</ele>
        <time>2012-08-20T07:51:54.999Z</time>
      </trkpt>
      <trkpt lat="47.49357" lon="-0.34016">
        <ele>48</ele>
        <time>2012-08-20T07:51:59.999Z</time>
      </trkpt>
      <trkpt lat="47.49355" lon="-0.34022">
        <ele>48</ele>
        <time>2012-08-20T07:52:03.999Z</time>
      </trkpt>
      <trkpt lat="47.49354" lon="-0.34029">
        <ele>48</ele>
        <time>2012-08-20T07:52:07.999Z</time>
      </trkpt>
      <trkpt lat="47.49352" lon="-0.34037">
        <ele>48</ele>
        <time>2012-08-20T07:52:11.999Z</time>
      </trkpt>
      <trkpt lat="47.49352" lon="-0.34044">
        <ele>48</ele>
        <time>2012-08-20T07:52:15.999Z</time>
      </trkpt>
      <trkpt lat="47.49353" lon="-0.34052">
        <ele>48</ele>
        <time>2012-08-20T07:52:26.999Z</time>
      </trkpt>
      <trkpt lat="47.49357" lon="-0.34056">
        <ele>48</ele>
        <time>2012-08-20T07:52:30.999Z</time>
      </trkpt>
      <trkpt lat="47.49361" lon="-0.34054">
        <ele>48</ele>
        <time>2012-08-20T07:52:36.999Z</time>
      </trkpt>
      <trkpt lat="47.49366" lon="-0.3405">
        <ele>48</ele>
        <time>2012-08-20T07:52:40.999Z</time>
      </trkpt>
      <trkpt lat="47.49372" lon="-0.3405">
        <ele>48</ele>
        <time>2012-08-20T07:52:43.999Z</time>
      </trkpt>
      <trkpt lat="47.49378" lon="-0.34047">
        <ele>48</ele>
        <time>2012-08-20T07:52:46.999Z</time>
      </trkpt>
      <trkpt lat="47.49382" lon="-0.34045">
        <ele>48</ele>
        <time>2012-08-20T07:52:48.999Z</time>
      </trkpt>
      <trkpt lat="47.49388" lon="-0.34042">
        <ele>48</ele>
        <time>2012-08-20T07:52:51.999Z</time>
      </trkpt>
      <trkpt lat="47.49392" lon="-0.34038">
        <ele>48</ele>
        <time>2012-08-20T07:52:54.999Z</time>
      </trkpt>
      <trkpt lat="47.49398" lon="-0.34037">
        <ele>48</ele>
        <time>2012-08-20T07:52:59.999Z</time>
      </trkpt>
      <trkpt lat="47.49401" lon="-0.34033">
        <ele>48</ele>
        <time>2012-08-20T07:53:05.999Z</time>
      </trkpt>
      <trkpt lat="47.49404" lon="-0.34027">
        <ele>48</ele>
        <time>2012-08-20T07:53:12.999Z</time>
      </trkpt>
      <trkpt lat="47.49408" lon="-0.34034">
        <ele>48</ele>
        <time>2012-08-20T07:53:26.999Z</time>
      </trkpt>
      <trkpt lat="47.49414" lon="-0.34034">
        <ele>48</ele>
        <time>2012-08-20T07:53:28.999Z</time>
      </trkpt>
      <trkpt lat="47.4942" lon="-0.34034">
        <ele>48</ele>
        <time>2012-08-20T07:53:30.999Z</time>
      </trkpt>
      <trkpt lat="47.49426" lon="-0.34034">
        <ele>48</ele>
        <time>2012-08-20T07:53:32.999Z</time>
      </trkpt>
      <trkpt lat="47.49433" lon="-0.34034">
        <ele>48</ele>
        <time>2012-08-20T07:53:34.999Z</time>
      </trkpt>
      <trkpt lat="47.49439" lon="-0.34034">
        <ele>48</ele>
        <time>2012-08-20T07:53:36.999Z</time>
      </trkpt>
      <trkpt lat="47.49444" lon="-0.34035">
        <ele>48</ele>
        <time>2012-08-20T07:53:38.999Z</time>
      </trkpt>
      <trkpt lat="47.4945" lon="-0.34034">
        <ele>48</ele>
        <time>2012-08-20T07:53:40.999Z</time>
      </trkpt>
      <trkpt lat="47.49455" lon="-0.34034">
        <ele>48</ele>
        <time>2012-08-20T07:53:42.999Z</time>
      </trkpt>
      <trkpt lat="47.4946" lon="-0.34031">
        <ele>48</ele>
        <time>2012-08-20T07:53:45.999Z</time>
      </trkpt>
      <trkpt lat="47.49465" lon="-0.34031">
        <ele>48</ele>
        <time>2012-08-20T07:53:48.999Z</time>
      </trkpt>
      <trkpt lat="47.4947" lon="-0.34031">
        <ele>48</ele>
        <time>2012-08-20T07:53:51.999Z</time>
      </trkpt>
      <trkpt lat="47.49475" lon="-0.3403">
        <ele>48</ele>
        <time>2012-08-20T07:53:54.999Z</time>
      </trkpt>
      <trkpt lat="47.49481" lon="-0.34029">
        <ele>48</ele>
        <time>2012-08-20T07:53:57.999Z</time>
      </trkpt>
      <trkpt lat="47.49486" lon="-0.34027">
        <ele>48</ele>
        <time>2012-08-20T07:54:00.999Z</time>
      </trkpt>
      <trkpt lat="47.49491" lon="-0.34025">
        <ele>48</ele>
        <time>2012-08-20T07:54:04.999Z</time>
      </trkpt>
      <trkpt lat="47.49497" lon="-0.34023">
        <ele>47</ele>
        <time>2012-08-20T07:54:08.999Z</time>
      </trkpt>
      <trkpt lat="47.49502" lon="-0.34024">
        <ele>47</ele>
        <time>2012-08-20T07:54:12.999Z</time>
      </trkpt>
      <trkpt lat="47.49508" lon="-0.34025">
        <ele>47</ele>
        <time>2012-08-20T07:54:16.999Z</time>
      </trkpt>
      <trkpt lat="47.49514" lon="-0.34022">
        <ele>47</ele>
        <time>2012-08-20T07:54:19.999Z</time>
      </trkpt>
      <trkpt lat="47.49518" lon="-0.34018">
        <ele>47</ele>
        <time>2012-08-20T07:54:22.999Z</time>
      </trkpt>
      <trkpt lat="47.49523" lon="-0.34014">
        <ele>47</ele>
        <time>2012-08-20T07:54:25.999Z</time>
      </trkpt>
      <trkpt lat="47.49528" lon="-0.3401">
        <ele>47</ele>
        <time>2012-08-20T07:54:28.999Z</time>
      </trkpt>
      <trkpt lat="47.4953" lon="-0.34004">
        <ele>47</ele>
        <time>2012-08-20T07:54:39.999Z</time>
      </trkpt>
      <trkpt lat="47.49531" lon="-0.33997">
        <ele>46</ele>
        <time>2012-08-20T07:54:44.999Z</time>
      </trkpt>
      <trkpt lat="47.49532" lon="-0.3399">
        <ele>46</ele>
        <time>2012-08-20T07:54:50.999Z</time>
      </trkpt>
      <trkpt lat="47.49535" lon="-0.33984">
        <ele>46</ele>
        <time>2012-08-20T07:54:55.999Z</time>
      </trkpt>
      <trkpt lat="47.49534" lon="-0.33977">
        <ele>45</ele>
        <time>2012-08-20T07:55:01.999Z</time>
      </trkpt>
      <trkpt lat="47.49531" lon="-0.33972">
        <ele>45</ele>
        <time>2012-08-20T07:55:05.999Z</time>
      </trkpt>
      <trkpt lat="47.49528" lon="-0.33966">
        <ele>45</ele>
        <time>2012-08-20T07:55:08.999Z</time>
      </trkpt>
      <trkpt lat="47.49524" lon="-0.33963">
        <ele>45</ele>
        <time>2012-08-20T07:55:12.999Z</time>
      </trkpt>
      <trkpt lat="47.49527" lon="-0.3396">
        <ele>45</ele>
        <time>2012-08-20T07:55:15.999Z</time>
      </trkpt>
      <trkpt lat="47.49537" lon="-0.33958">
        <ele>45</ele>
        <time>2012-08-20T07:55:17.999Z</time>
      </trkpt>
      <trkpt lat="47.49543" lon="-0.33958">
        <ele>45</ele>
        <time>2012-08-20T07:55:19.999Z</time>
      </trkpt>
      <trkpt lat="47.49548" lon="-0.33957">
        <ele>45</ele>
        <time>2012-08-20T07:55:22.999Z</time>
      </trkpt>
      <trkpt lat="47.49554" lon="-0.33957">
        <ele>45</ele>
        <time>2012-08-20T07:55:25.999Z</time>
      </trkpt>
      <trkpt lat="47.49559" lon="-0.33959">
        <ele>45</ele>
        <time>2012-08-20T07:55:27.999Z</time>
      </trkpt>
      <trkpt lat="47.49565" lon="-0.33961">
        <ele>45</ele>
        <time>2012-08-20T07:55:30.999Z</time>
      </trkpt>
      <trkpt lat="47.4957" lon="-0.33962">
        <ele>45</ele>
        <time>2012-08-20T07:55:33.999Z</time>
      </trkpt>
      <trkpt lat="47.49575" lon="-0.33964">
        <ele>45</ele>
        <time>2012-08-20T07:55:36.999Z</time>
      </trkpt>
      <trkpt lat="47.4958" lon="-0.33968">
        <ele>45</ele>
        <time>2012-08-20T07:55:39.999Z</time>
      </trkpt>
      <trkpt lat="47.49584" lon="-0.33972">
        <ele>43</ele>
        <time>2012-08-20T07:55:42.999Z</time>
      </trkpt>
      <trkpt lat="47.49588" lon="-0.33977">
        <ele>43</ele>
        <time>2012-08-20T07:55:46.999Z</time>
      </trkpt>
      <trkpt lat="47.49592" lon="-0.33979">
        <ele>43</ele>
        <time>2012-08-20T07:55:49.999Z</time>
      </trkpt>
      <trkpt lat="47.49596" lon="-0.33984">
        <ele>43</ele>
        <time>2012-08-20T07:55:52.999Z</time>
      </trkpt>
      <trkpt lat="47.49601" lon="-0.33984">
        <ele>43</ele>
        <time>2012-08-20T07:55:55.999Z</time>
      </trkpt>
      <trkpt lat="47.49606" lon="-0.33984">
        <ele>43</ele>
        <time>2012-08-20T07:55:58.999Z</time>
      </trkpt>
      <trkpt lat="47.49611" lon="-0.33982">
        <ele>43</ele>
        <time>2012-08-20T07:56:00.999Z</time>
      </trkpt>
      <trkpt lat="47.49615" lon="-0.33981">
        <ele>42</ele>
        <time>2012-08-20T07:56:02.999Z</time>
      </trkpt>
      <trkpt lat="47.49621" lon="-0.33982">
        <ele>42</ele>
        <time>2012-08-20T07:56:04.999Z</time>
      </trkpt>
      <trkpt lat="47.49626" lon="-0.33982">
        <ele>42</ele>
        <time>2012-08-20T07:56:06.999Z</time>
      </trkpt>
      <trkpt lat="47.49631" lon="-0.33981">
        <ele>42</ele>
        <time>2012-08-20T07:56:08.999Z</time>
      </trkpt>
      <trkpt lat="47.49635" lon="-0.33977">
        <ele>42</ele>
        <time>2012-08-20T07:56:10.999Z</time>
      </trkpt>
      <trkpt lat="47.49635" lon="-0.3397">
        <ele>42</ele>
        <time>2012-08-20T07:56:15.999Z</time>
      </trkpt>
      <trkpt lat="47.49631" lon="-0.33965">
        <ele>42</ele>
        <time>2012-08-20T07:56:18.999Z</time>
      </trkpt>
      <trkpt lat="47.49627" lon="-0.33961">
        <ele>42</ele>
        <time>2012-08-20T07:56:21.999Z</time>
      </trkpt>
      <trkpt lat="47.49623" lon="-0.33958">
        <ele>42</ele>
        <time>2012-08-20T07:56:24.999Z</time>
      </trkpt>
      <trkpt lat="47.49618" lon="-0.33954">
        <ele>42</ele>
        <time>2012-08-20T07:56:27.999Z</time>
      </trkpt>
      <trkpt lat="47.49614" lon="-0.33949">
        <ele>42</ele>
        <time>2012-08-20T07:56:31.999Z</time>
      </trkpt>
      <trkpt lat="47.4961" lon="-0.33945">
        <ele>43</ele>
        <time>2012-08-20T07:56:35.999Z</time>
      </trkpt>
      <trkpt lat="47.49608" lon="-0.33938">
        <ele>43</ele>
        <time>2012-08-20T07:56:39.999Z</time>
      </trkpt>
      <trkpt lat="47.49611" lon="-0.33932">
        <ele>43</ele>
        <time>2012-08-20T07:56:42.999Z</time>
      </trkpt>
      <trkpt lat="47.49617" lon="-0.33927">
        <ele>42</ele>
        <time>2012-08-20T07:56:45.999Z</time>
      </trkpt>
      <trkpt lat="47.49622" lon="-0.33925">
        <ele>42</ele>
        <time>2012-08-20T07:56:48.999Z</time>
      </trkpt>
      <trkpt lat="47.49626" lon="-0.33924">
        <ele>42</ele>
        <time>2012-08-20T07:56:50.999Z</time>
      </trkpt>
      <trkpt lat="47.49633" lon="-0.33923">
        <ele>42</ele>
        <time>2012-08-20T07:56:53.999Z</time>
      </trkpt>
      <trkpt lat="47.49639" lon="-0.33924">
        <ele>41</ele>
        <time>2012-08-20T07:56:56.999Z</time>
      </trkpt>
      <trkpt lat="47.49644" lon="-0.33925">
        <ele>41</ele>
        <time>2012-08-20T07:56:58.999Z</time>
      </trkpt>
      <trkpt lat="47.49649" lon="-0.33926">
        <ele>41</ele>
        <time>2012-08-20T07:57:00.999Z</time>
      </trkpt>
      <trkpt lat="47.49654" lon="-0.33927">
        <ele>40</ele>
        <time>2012-08-20T07:57:02.999Z</time>
      </trkpt>
      <trkpt lat="47.49659" lon="-0.33929">
        <ele>40</ele>
        <time>2012-08-20T07:57:04.999Z</time>
      </trkpt>
      <trkpt lat="47.49664" lon="-0.33929">
        <ele>40</ele>
        <time>2012-08-20T07:57:07.999Z</time>
      </trkpt>
      <trkpt lat="47.49669" lon="-0.33928">
        <ele>39</ele>
        <time>2012-08-20T07:57:11.999Z</time>
      </trkpt>
      <trkpt lat="47.49674" lon="-0.33927">
        <ele>39</ele>
        <time>2012-08-20T07:57:15.999Z</time>
      </trkpt>
      <trkpt lat="47.49679" lon="-0.33926">
        <ele>39</ele>
        <time>2012-08-20T07:57:18.999Z</time>
      </trkpt>
      <trkpt lat="47.49684" lon="-0.33927">
        <ele>39</ele>
        <time>2012-08-20T07:57:22.999Z</time>
      </trkpt>
      <trkpt lat="47.49689" lon="-0.33926">
        <ele>39</ele>
        <time>2012-08-20T07:57:29.999Z</time>
      </trkpt>
      <trkpt lat="47.49694" lon="-0.33925">
        <ele>38</ele>
        <time>2012-08-20T07:57:35.999Z</time>
      </trkpt>
      <trkpt lat="47.49699" lon="-0.33924">
        <ele>38</ele>
        <time>2012-08-20T07:57:40.999Z</time>
      </trkpt>
      <trkpt lat="47.49703" lon="-0.33924">
        <ele>38</ele>
        <time>2012-08-20T07:57:45.999Z</time>
      </trkpt>
      <trkpt lat="47.49708" lon="-0.33923">
        <ele>38</ele>
        <time>2012-08-20T07:57:50.999Z</time>
      </trkpt>
      <trkpt lat="47.49712" lon="-0.33922">
        <ele>38</ele>
        <time>2012-08-20T07:57:54.999Z</time>
      </trkpt>
      <trkpt lat="47.49717" lon="-0.3392">
        <ele>38</ele>
        <time>2012-08-20T07:58:01.999Z</time>
      </trkpt>
      <trkpt lat="47.49722" lon="-0.33916">
        <ele>37</ele>
        <time>2012-08-20T07:58:05.999Z</time>
      </trkpt>
      <trkpt lat="47.49727" lon="-0.33915">
        <ele>37</ele>
        <time>2012-08-20T07:58:09.999Z</time>
      </trkpt>
      <trkpt lat="47.49732" lon="-0.33915">
        <ele>37</ele>
        <time>2012-08-20T07:58:12.999Z</time>
      </trkpt>
      <trkpt lat="47.49737" lon="-0.33915">
        <ele>37</ele>
        <time>2012-08-20T07:58:15.999Z</time>
      </trkpt>
      <trkpt lat="47.49742" lon="-0.33917">
        <ele>37</ele>
        <time>2012-08-20T07:58:18.999Z</time>
      </trkpt>
      <trkpt lat="47.49747" lon="-0.33917">
        <ele>36</ele>
        <time>2012-08-20T07:58:21.999Z</time>
      </trkpt>
      <trkpt lat="47.49752" lon="-0.33916">
        <ele>36</ele>
        <time>2012-08-20T07:58:25.999Z</time>
      </trkpt>
      <trkpt lat="47.49758" lon="-0.33917">
        <ele>36</ele>
        <time>2012-08-20T07:58:29.999Z</time>
      </trkpt>
      <trkpt lat="47.49762" lon="-0.33918">
        <ele>36</ele>
        <time>2012-08-20T07:58:33.999Z</time>
      </trkpt>
      <trkpt lat="47.49767" lon="-0.33918">
        <ele>36</ele>
        <time>2012-08-20T07:58:37.999Z</time>
      </trkpt>
      <trkpt lat="47.49772" lon="-0.33917">
        <ele>36</ele>
        <time>2012-08-20T07:58:41.999Z</time>
      </trkpt>
      <trkpt lat="47.49778" lon="-0.33917">
        <ele>36</ele>
        <time>2012-08-20T07:58:45.999Z</time>
      </trkpt>
      <trkpt lat="47.49783" lon="-0.33917">
        <ele>36</ele>
        <time>2012-08-20T07:58:49.999Z</time>
      </trkpt>
      <trkpt lat="47.49788" lon="-0.33917">
        <ele>36</ele>
        <time>2012-08-20T07:58:53.999Z</time>
      </trkpt>
      <trkpt lat="47.49793" lon="-0.33917">
        <ele>36</ele>
        <time>2012-08-20T07:59:03.999Z</time>
      </trkpt>
      <trkpt lat="47.49798" lon="-0.33917">
        <ele>36</ele>
        <time>2012-08-20T07:59:06.999Z</time>
      </trkpt>
      <trkpt lat="47.49804" lon="-0.33917">
        <ele>36</ele>
        <time>2012-08-20T07:59:09.999Z</time>
      </trkpt>
      <trkpt lat="47.49809" lon="-0.33919">
        <ele>35</ele>
        <time>2012-08-20T07:59:12.999Z</time>
      </trkpt>
      <trkpt lat="47.49814" lon="-0.33918">
        <ele>35</ele>
        <time>2012-08-20T07:59:15.999Z</time>
      </trkpt>
      <trkpt lat="47.49817" lon="-0.33914">
        <ele>35</ele>
        <time>2012-08-20T07:59:19.999Z</time>
      </trkpt>
      <trkpt lat="47.49822" lon="-0.33914">
        <ele>35</ele>
        <time>2012-08-20T07:59:23.999Z</time>
      </trkpt>
      <trkpt lat="47.49827" lon="-0.33914">
        <ele>35</ele>
        <time>2012-08-20T07:59:27.999Z</time>
      </trkpt>
      <trkpt lat="47.49832" lon="-0.33914">
        <ele>34</ele>
        <time>2012-08-20T07:59:32.999Z</time>
      </trkpt>
      <trkpt lat="47.49837" lon="-0.33916">
        <ele>34</ele>
        <time>2012-08-20T07:59:37.999Z</time>
      </trkpt>
      <trkpt lat="47.49842" lon="-0.33916">
        <ele>35</ele>
        <time>2012-08-20T07:59:40.999Z</time>
      </trkpt>
      <trkpt lat="47.49847" lon="-0.33916">
        <ele>35</ele>
        <time>2012-08-20T07:59:43.999Z</time>
      </trkpt>
      <trkpt lat="47.49853" lon="-0.33915">
        <ele>35</ele>
        <time>2012-08-20T07:59:47.999Z</time>
      </trkpt>
      <trkpt lat="47.49857" lon="-0.33914">
        <ele>35</ele>
        <time>2012-08-20T07:59:51.999Z</time>
      </trkpt>
      <trkpt lat="47.49862" lon="-0.33913">
        <ele>35</ele>
        <time>2012-08-20T07:59:55.999Z</time>
      </trkpt>
      <trkpt lat="47.49866" lon="-0.33911">
        <ele>35</ele>
        <time>2012-08-20T07:59:59.999Z</time>
      </trkpt>
      <trkpt lat="47.49872" lon="-0.33911">
        <ele>36</ele>
        <time>2012-08-20T08:00:04.999Z</time>
      </trkpt>
      <trkpt lat="47.49877" lon="-0.3391">
        <ele>36</ele>
        <time>2012-08-20T08:00:08.999Z</time>
      </trkpt>
      <trkpt lat="47.49881" lon="-0.3391">
        <ele>36</ele>
        <time>2012-08-20T08:00:11.999Z</time>
      </trkpt>
      <trkpt lat="47.49886" lon="-0.33911">
        <ele>36</ele>
        <time>2012-08-20T08:00:15.999Z</time>
      </trkpt>
      <trkpt lat="47.4989" lon="-0.33908">
        <ele>36</ele>
        <time>2012-08-20T08:00:20.999Z</time>
      </trkpt>
      <trkpt lat="47.49895" lon="-0.33905">
        <ele>36</ele>
        <time>2012-08-20T08:00:24.999Z</time>
      </trkpt>
      <trkpt lat="47.49901" lon="-0.33906">
        <ele>36</ele>
        <time>2012-08-20T08:00:28.999Z</time>
      </trkpt>
      <trkpt lat="47.49905" lon="-0.33908">
        <ele>36</ele>
        <time>2012-08-20T08:00:31.999Z</time>
      </trkpt>
      <trkpt lat="47.49911" lon="-0.33908">
        <ele>36</ele>
        <time>2012-08-20T08:00:35.999Z</time>
      </trkpt>
      <trkpt lat="47.49916" lon="-0.33909">
        <ele>36</ele>
        <time>2012-08-20T08:00:38.999Z</time>
      </trkpt>
      <trkpt lat="47.49922" lon="-0.33909">
        <ele>36</ele>
        <time>2012-08-20T08:00:42.999Z</time>
      </trkpt>
      <trkpt lat="47.49927" lon="-0.33908">
        <ele>36</ele>
        <time>2012-08-20T08:00:45.999Z</time>
      </trkpt>
      <trkpt lat="47.49932" lon="-0.33906">
        <ele>35</ele>
        <time>2012-08-20T08:00:48.999Z</time>
      </trkpt>
      <trkpt lat="47.49936" lon="-0.33904">
        <ele>35</ele>
        <time>2012-08-20T08:00:51.999Z</time>
      </trkpt>
      <trkpt lat="47.4993" lon="-0.33899">
        <ele>35</ele>
        <time>2012-08-20T08:00:57.999Z</time>
      </trkpt>
      <trkpt lat="47.49925" lon="-0.33894">
        <ele>35</ele>
        <time>2012-08-20T08:01:00.999Z</time>
      </trkpt>
      <trkpt lat="47.49923" lon="-0.33888">
        <ele>35</ele>
        <time>2012-08-20T08:01:04.999Z</time>
      </trkpt>
      <trkpt lat="47.49922" lon="-0.3388">
        <ele>35</ele>
        <time>2012-08-20T08:01:09.999Z</time>
      </trkpt>
      <trkpt lat="47.49921" lon="-0.33873">
        <ele>35</ele>
        <time>2012-08-20T08:01:13.999Z</time>
      </trkpt>
      <trkpt lat="47.49919" lon="-0.33865">
        <ele>35</ele>
        <time>2012-08-20T08:01:18.999Z</time>
      </trkpt>
      <trkpt lat="47.49916" lon="-0.33858">
        <ele>36</ele>
        <time>2012-08-20T08:01:24.999Z</time>
      </trkpt>
      <trkpt lat="47.49915" lon="-0.33851">
        <ele>36</ele>
        <time>2012-08-20T08:01:29.999Z</time>
      </trkpt>
      <trkpt lat="47.49914" lon="-0.33843">
        <ele>36</ele>
        <time>2012-08-20T08:01:33.999Z</time>
      </trkpt>
      <trkpt lat="47.49914" lon="-0.33836">
        <ele>36</ele>
        <time>2012-08-20T08:01:37.999Z</time>
      </trkpt>
      <trkpt lat="47.49913" lon="-0.33827">
        <ele>36</ele>
        <time>2012-08-20T08:01:41.999Z</time>
      </trkpt>
      <trkpt lat="47.49912" lon="-0.33821">
        <ele>36</ele>
        <time>2012-08-20T08:01:48.999Z</time>
      </trkpt>
      <trkpt lat="47.4991" lon="-0.33814">
        <ele>37</ele>
        <time>2012-08-20T08:01:53.999Z</time>
      </trkpt>
      <trkpt lat="47.49908" lon="-0.33807">
        <ele>37</ele>
        <time>2012-08-20T08:02:00.999Z</time>
      </trkpt>
      <trkpt lat="47.49907" lon="-0.33801">
        <ele>37</ele>
        <time>2012-08-20T08:02:03.999Z</time>
      </trkpt>
      <trkpt lat="47.49905" lon="-0.33794">
        <ele>37</ele>
        <time>2012-08-20T08:02:05.999Z</time>
      </trkpt>
      <trkpt lat="47.49903" lon="-0.33786">
        <ele>37</ele>
        <time>2012-08-20T08:02:08.999Z</time>
      </trkpt>
      <trkpt lat="47.49901" lon="-0.33778">
        <ele>37</ele>
        <time>2012-08-20T08:02:11.999Z</time>
      </trkpt>
      <trkpt lat="47.499" lon="-0.3377">
        <ele>37</ele>
        <time>2012-08-20T08:02:15.999Z</time>
      </trkpt>
      <trkpt lat="47.499" lon="-0.33762">
        <ele>37</ele>
        <time>2012-08-20T08:02:20.999Z</time>
      </trkpt>
      <trkpt lat="47.49898" lon="-0.33755">
        <ele>37</ele>
        <time>2012-08-20T08:02:25.999Z</time>
      </trkpt>
      <trkpt lat="47.49898" lon="-0.33748">
        <ele>36</ele>
        <time>2012-08-20T08:02:30.999Z</time>
      </trkpt>
      <trkpt lat="47.49898" lon="-0.33741">
        <ele>36</ele>
        <time>2012-08-20T08:02:34.999Z</time>
      </trkpt>
      <trkpt lat="47.49899" lon="-0.33733">
        <ele>36</ele>
        <time>2012-08-20T08:02:38.999Z</time>
      </trkpt>
      <trkpt lat="47.49901" lon="-0.33725">
        <ele>36</ele>
        <time>2012-08-20T08:02:42.999Z</time>
      </trkpt>
      <trkpt lat="47.49903" lon="-0.33718">
        <ele>36</ele>
        <time>2012-08-20T08:02:46.999Z</time>
      </trkpt>
      <trkpt lat="47.49905" lon="-0.33712">
        <ele>36</ele>
        <time>2012-08-20T08:02:50.999Z</time>
      </trkpt>
      <trkpt lat="47.49907" lon="-0.33705">
        <ele>35</ele>
        <time>2012-08-20T08:02:54.999Z</time>
      </trkpt>
      <trkpt lat="47.4991" lon="-0.33699">
        <ele>35</ele>
        <time>2012-08-20T08:02:59.999Z</time>
      </trkpt>
      <trkpt lat="47.49913" lon="-0.33705">
        <ele>35</ele>
        <time>2012-08-20T08:03:03.999Z</time>
      </trkpt>
      <trkpt lat="47.49912" lon="-0.33697">
        <ele>35</ele>
        <time>2012-08-20T08:05:59.999Z</time>
      </trkpt>
      <trkpt lat="47.4991" lon="-0.33689">
        <ele>35</ele>
        <time>2012-08-20T08:06:03.999Z</time>
      </trkpt>
      <trkpt lat="47.49907" lon="-0.33682">
        <ele>35</ele>
        <time>2012-08-20T08:06:07.999Z</time>
      </trkpt>
      <trkpt lat="47.49905" lon="-0.33676">
        <ele>35</ele>
        <time>2012-08-20T08:06:10.999Z</time>
      </trkpt>
      <trkpt lat="47.49902" lon="-0.33669">
        <ele>35</ele>
        <time>2012-08-20T08:06:13.999Z</time>
      </trkpt>
      <trkpt lat="47.499" lon="-0.33663">
        <ele>34</ele>
        <time>2012-08-20T08:06:16.999Z</time>
      </trkpt>
      <trkpt lat="47.49898" lon="-0.33654">
        <ele>34</ele>
        <time>2012-08-20T08:06:20.999Z</time>
      </trkpt>
      <trkpt lat="47.49896" lon="-0.33646">
        <ele>34</ele>
        <time>2012-08-20T08:06:24.999Z</time>
      </trkpt>
      <trkpt lat="47.49894" lon="-0.33638">
        <ele>34</ele>
        <time>2012-08-20T08:06:28.999Z</time>
      </trkpt>
      <trkpt lat="47.49892" lon="-0.33631">
        <ele>34</ele>
        <time>2012-08-20T08:06:32.999Z</time>
      </trkpt>
      <trkpt lat="47.49891" lon="-0.33624">
        <ele>34</ele>
        <time>2012-08-20T08:06:36.999Z</time>
      </trkpt>
      <trkpt lat="47.4989" lon="-0.33617">
        <ele>34</ele>
        <time>2012-08-20T08:06:40.999Z</time>
      </trkpt>
      <trkpt lat="47.49888" lon="-0.33609">
        <ele>34</ele>
        <time>2012-08-20T08:06:44.999Z</time>
      </trkpt>
      <trkpt lat="47.49886" lon="-0.33602">
        <ele>34</ele>
        <time>2012-08-20T08:06:48.999Z</time>
      </trkpt>
      <trkpt lat="47.49886" lon="-0.33594">
        <ele>34</ele>
        <time>2012-08-20T08:06:52.999Z</time>
      </trkpt>
      <trkpt lat="47.49884" lon="-0.33586">
        <ele>34</ele>
        <time>2012-08-20T08:06:56.999Z</time>
      </trkpt>
      <trkpt lat="47.49883" lon="-0.33579">
        <ele>34</ele>
        <time>2012-08-20T08:06:59.999Z</time>
      </trkpt>
      <trkpt lat="47.49882" lon="-0.33571">
        <ele>34</ele>
        <time>2012-08-20T08:07:03.999Z</time>
      </trkpt>
      <trkpt lat="47.49881" lon="-0.33562">
        <ele>34</ele>
        <time>2012-08-20T08:07:07.999Z</time>
      </trkpt>
      <trkpt lat="47.4988" lon="-0.33554">
        <ele>34</ele>
        <time>2012-08-20T08:07:11.999Z</time>
      </trkpt>
      <trkpt lat="47.4988" lon="-0.33546">
        <ele>34</ele>
        <time>2012-08-20T08:07:15.999Z</time>
      </trkpt>
      <trkpt lat="47.49879" lon="-0.33538">
        <ele>34</ele>
        <time>2012-08-20T08:07:19.999Z</time>
      </trkpt>
      <trkpt lat="47.49878" lon="-0.33529">
        <ele>34</ele>
        <time>2012-08-20T08:07:23.999Z</time>
      </trkpt>
      <trkpt lat="47.49878" lon="-0.33522">
        <ele>34</ele>
        <time>2012-08-20T08:07:27.999Z</time>
      </trkpt>
      <trkpt lat="47.49876" lon="-0.33514">
        <ele>34</ele>
        <time>2012-08-20T08:07:31.999Z</time>
      </trkpt>
      <trkpt lat="47.49876" lon="-0.33505">
        <ele>34</ele>
        <time>2012-08-20T08:07:35.999Z</time>
      </trkpt>
      <trkpt lat="47.49876" lon="-0.33497">
        <ele>33</ele>
        <time>2012-08-20T08:07:39.999Z</time>
      </trkpt>
      <trkpt lat="47.4988" lon="-0.33493">
        <ele>33</ele>
        <time>2012-08-20T08:07:49.999Z</time>
      </trkpt>
      <trkpt lat="47.49885" lon="-0.33493">
        <ele>33</ele>
        <time>2012-08-20T08:07:55.999Z</time>
      </trkpt>
      <trkpt lat="47.4989" lon="-0.33494">
        <ele>33</ele>
        <time>2012-08-20T08:07:59.999Z</time>
      </trkpt>
      <trkpt lat="47.49895" lon="-0.33495">
        <ele>33</ele>
        <time>2012-08-20T08:08:03.999Z</time>
      </trkpt>
      <trkpt lat="47.499" lon="-0.33495">
        <ele>33</ele>
        <time>2012-08-20T08:08:07.999Z</time>
      </trkpt>
      <trkpt lat="47.49905" lon="-0.33495">
        <ele>33</ele>
        <time>2012-08-20T08:08:11.999Z</time>
      </trkpt>
      <trkpt lat="47.4991" lon="-0.33496">
        <ele>33</ele>
        <time>2012-08-20T08:08:32.999Z</time>
      </trkpt>
      <trkpt lat="47.49916" lon="-0.33497">
        <ele>33</ele>
        <time>2012-08-20T08:08:36.999Z</time>
      </trkpt>
      <trkpt lat="47.49921" lon="-0.33496">
        <ele>33</ele>
        <time>2012-08-20T08:08:41.999Z</time>
      </trkpt>
      <trkpt lat="47.49927" lon="-0.33495">
        <ele>33</ele>
        <time>2012-08-20T08:08:45.999Z</time>
      </trkpt>
      <trkpt lat="47.49932" lon="-0.33494">
        <ele>33</ele>
        <time>2012-08-20T08:08:48.999Z</time>
      </trkpt>
      <trkpt lat="47.49937" lon="-0.33494">
        <ele>33</ele>
        <time>2012-08-20T08:08:52.999Z</time>
      </trkpt>
      <trkpt lat="47.49942" lon="-0.33492">
        <ele>32</ele>
        <time>2012-08-20T08:08:56.999Z</time>
      </trkpt>
      <trkpt lat="47.49947" lon="-0.33492">
        <ele>32</ele>
        <time>2012-08-20T08:09:00.999Z</time>
      </trkpt>
      <trkpt lat="47.49953" lon="-0.33491">
        <ele>32</ele>
        <time>2012-08-20T08:09:04.999Z</time>
      </trkpt>
      <trkpt lat="47.49958" lon="-0.3349">
        <ele>32</ele>
        <time>2012-08-20T08:09:08.999Z</time>
      </trkpt>
      <trkpt lat="47.49962" lon="-0.33489">
        <ele>32</ele>
        <time>2012-08-20T08:09:12.999Z</time>
      </trkpt>
      <trkpt lat="47.49967" lon="-0.33488">
        <ele>32</ele>
        <time>2012-08-20T08:09:16.999Z</time>
      </trkpt>
      <trkpt lat="47.49972" lon="-0.33487">
        <ele>32</ele>
        <time>2012-08-20T08:09:20.999Z</time>
      </trkpt>
      <trkpt lat="47.49977" lon="-0.33487">
        <ele>32</ele>
        <time>2012-08-20T08:09:24.999Z</time>
      </trkpt>
      <trkpt lat="47.49982" lon="-0.33486">
        <ele>32</ele>
        <time>2012-08-20T08:09:28.999Z</time>
      </trkpt>
      <trkpt lat="47.49987" lon="-0.33486">
        <ele>32</ele>
        <time>2012-08-20T08:09:32.999Z</time>
      </trkpt>
      <trkpt lat="47.49992" lon="-0.33484">
        <ele>32</ele>
        <time>2012-08-20T08:09:36.999Z</time>
      </trkpt>
      <trkpt lat="47.49997" lon="-0.33484">
        <ele>32</ele>
        <time>2012-08-20T08:09:40.999Z</time>
      </trkpt>
      <trkpt lat="47.50001" lon="-0.33483">
        <ele>32</ele>
        <time>2012-08-20T08:09:44.999Z</time>
      </trkpt>
      <trkpt lat="47.50006" lon="-0.33481">
        <ele>32</ele>
        <time>2012-08-20T08:09:48.999Z</time>
      </trkpt>
      <trkpt lat="47.50011" lon="-0.33479">
        <ele>32</ele>
        <time>2012-08-20T08:09:52.999Z</time>
      </trkpt>
      <trkpt lat="47.50016" lon="-0.33476">
        <ele>32</ele>
        <time>2012-08-20T08:09:56.999Z</time>
      </trkpt>
      <trkpt lat="47.50021" lon="-0.33474">
        <ele>32</ele>
        <time>2012-08-20T08:10:00.999Z</time>
      </trkpt>
      <trkpt lat="47.50026" lon="-0.33471">
        <ele>32</ele>
        <time>2012-08-20T08:10:04.999Z</time>
      </trkpt>
      <trkpt lat="47.50031" lon="-0.33467">
        <ele>32</ele>
        <time>2012-08-20T08:10:08.999Z</time>
      </trkpt>
      <trkpt lat="47.50034" lon="-0.33462">
        <ele>32</ele>
        <time>2012-08-20T08:10:11.999Z</time>
      </trkpt>
      <trkpt lat="47.50038" lon="-0.33456">
        <ele>32</ele>
        <time>2012-08-20T08:10:15.999Z</time>
      </trkpt>
      <trkpt lat="47.50043" lon="-0.33452">
        <ele>32</ele>
        <time>2012-08-20T08:10:19.999Z</time>
      </trkpt>
      <trkpt lat="47.50049" lon="-0.33451">
        <ele>32</ele>
        <time>2012-08-20T08:10:23.999Z</time>
      </trkpt>
      <trkpt lat="47.50054" lon="-0.33449">
        <ele>32</ele>
        <time>2012-08-20T08:10:27.999Z</time>
      </trkpt>
      <trkpt lat="47.50058" lon="-0.33446">
        <ele>32</ele>
        <time>2012-08-20T08:10:31.999Z</time>
      </trkpt>
      <trkpt lat="47.50062" lon="-0.3344">
        <ele>32</ele>
        <time>2012-08-20T08:10:36.999Z</time>
      </trkpt>
      <trkpt lat="47.50066" lon="-0.33434">
        <ele>32</ele>
        <time>2012-08-20T08:10:40.999Z</time>
      </trkpt>
      <trkpt lat="47.5007" lon="-0.3343">
        <ele>32</ele>
        <time>2012-08-20T08:10:44.999Z</time>
      </trkpt>
      <trkpt lat="47.50073" lon="-0.33426">
        <ele>31</ele>
        <time>2012-08-20T08:10:49.999Z</time>
      </trkpt>
      <trkpt lat="47.50075" lon="-0.33419">
        <ele>31</ele>
        <time>2012-08-20T08:10:54.999Z</time>
      </trkpt>
      <trkpt lat="47.50079" lon="-0.33415">
        <ele>31</ele>
        <time>2012-08-20T08:10:59.999Z</time>
      </trkpt>
      <trkpt lat="47.50084" lon="-0.33412">
        <ele>31</ele>
        <time>2012-08-20T08:11:03.999Z</time>
      </trkpt>
      <trkpt lat="47.50088" lon="-0.33408">
        <ele>31</ele>
        <time>2012-08-20T08:11:07.999Z</time>
      </trkpt>
      <trkpt lat="47.50092" lon="-0.33404">
        <ele>31</ele>
        <time>2012-08-20T08:11:11.999Z</time>
      </trkpt>
      <trkpt lat="47.50096" lon="-0.334">
        <ele>31</ele>
        <time>2012-08-20T08:11:15.999Z</time>
      </trkpt>
      <trkpt lat="47.50101" lon="-0.33397">
        <ele>31</ele>
        <time>2012-08-20T08:11:19.999Z</time>
      </trkpt>
      <trkpt lat="47.50105" lon="-0.33392">
        <ele>31</ele>
        <time>2012-08-20T08:11:23.999Z</time>
      </trkpt>
      <trkpt lat="47.5011" lon="-0.33388">
        <ele>31</ele>
        <time>2012-08-20T08:11:27.999Z</time>
      </trkpt>
      <trkpt lat="47.50114" lon="-0.33385">
        <ele>31</ele>
        <time>2012-08-20T08:11:31.999Z</time>
      </trkpt>
      <trkpt lat="47.50119" lon="-0.33382">
        <ele>31</ele>
        <time>2012-08-20T08:11:35.999Z</time>
      </trkpt>
      <trkpt lat="47.50123" lon="-0.33378">
        <ele>31</ele>
        <time>2012-08-20T08:11:39.999Z</time>
      </trkpt>
      <trkpt lat="47.50127" lon="-0.33373">
        <ele>32</ele>
        <time>2012-08-20T08:11:44.999Z</time>
      </trkpt>
      <trkpt lat="47.5013" lon="-0.33369">
        <ele>32</ele>
        <time>2012-08-20T08:11:48.999Z</time>
      </trkpt>
      <trkpt lat="47.50134" lon="-0.33366">
        <ele>32</ele>
        <time>2012-08-20T08:11:53.999Z</time>
      </trkpt>
      <trkpt lat="47.50139" lon="-0.3337">
        <ele>32</ele>
        <time>2012-08-20T08:11:57.999Z</time>
      </trkpt>
      <trkpt lat="47.50143" lon="-0.33374">
        <ele>32</ele>
        <time>2012-08-20T08:12:03.999Z</time>
      </trkpt>
      <trkpt lat="47.50146" lon="-0.3338">
        <ele>31</ele>
        <time>2012-08-20T08:12:08.999Z</time>
      </trkpt>
      <trkpt lat="47.50148" lon="-0.33385">
        <ele>31</ele>
        <time>2012-08-20T08:12:13.999Z</time>
      </trkpt>
      <trkpt lat="47.50152" lon="-0.33391">
        <ele>31</ele>
        <time>2012-08-20T08:12:18.999Z</time>
      </trkpt>
      <trkpt lat="47.50156" lon="-0.33396">
        <ele>31</ele>
        <time>2012-08-20T08:12:22.999Z</time>
      </trkpt>
      <trkpt lat="47.50158" lon="-0.33402">
        <ele>31</ele>
        <time>2012-08-20T08:12:26.999Z</time>
      </trkpt>
      <trkpt lat="47.50161" lon="-0.33408">
        <ele>31</ele>
        <time>2012-08-20T08:12:30.999Z</time>
      </trkpt>
      <trkpt lat="47.50164" lon="-0.33414">
        <ele>31</ele>
        <time>2012-08-20T08:12:34.999Z</time>
      </trkpt>
      <trkpt lat="47.50168" lon="-0.33418">
        <ele>31</ele>
        <time>2012-08-20T08:12:38.999Z</time>
      </trkpt>
      <trkpt lat="47.50171" lon="-0.33423">
        <ele>31</ele>
        <time>2012-08-20T08:12:42.999Z</time>
      </trkpt>
      <trkpt lat="47.50175" lon="-0.33429">
        <ele>31</ele>
        <time>2012-08-20T08:12:47.999Z</time>
      </trkpt>
      <trkpt lat="47.50179" lon="-0.33434">
        <ele>31</ele>
        <time>2012-08-20T08:12:52.999Z</time>
      </trkpt>
      <trkpt lat="47.50183" lon="-0.33438">
        <ele>31</ele>
        <time>2012-08-20T08:12:56.999Z</time>
      </trkpt>
      <trkpt lat="47.50186" lon="-0.33443">
        <ele>31</ele>
        <time>2012-08-20T08:13:00.999Z</time>
      </trkpt>
      <trkpt lat="47.5019" lon="-0.33448">
        <ele>31</ele>
        <time>2012-08-20T08:13:05.999Z</time>
      </trkpt>
      <trkpt lat="47.5019" lon="-0.33456">
        <ele>31</ele>
        <time>2012-08-20T08:13:27.999Z</time>
      </trkpt>
      <trkpt lat="47.50191" lon="-0.33462">
        <ele>32</ele>
        <time>2012-08-20T08:13:28.999Z</time>
      </trkpt>
      <trkpt lat="47.50195" lon="-0.3347">
        <ele>32</ele>
        <time>2012-08-20T08:13:30.999Z</time>
      </trkpt>
      <trkpt lat="47.50199" lon="-0.33474">
        <ele>32</ele>
        <time>2012-08-20T08:13:32.999Z</time>
      </trkpt>
      <trkpt lat="47.50203" lon="-0.33476">
        <ele>32</ele>
        <time>2012-08-20T08:13:34.999Z</time>
      </trkpt>
      <trkpt lat="47.50208" lon="-0.3348">
        <ele>32</ele>
        <time>2012-08-20T08:13:37.999Z</time>
      </trkpt>
      <trkpt lat="47.50213" lon="-0.33483">
        <ele>31</ele>
        <time>2012-08-20T08:13:40.999Z</time>
      </trkpt>
      <trkpt lat="47.50218" lon="-0.33488">
        <ele>31</ele>
        <time>2012-08-20T08:13:44.999Z</time>
      </trkpt>
      <trkpt lat="47.50222" lon="-0.33492">
        <ele>31</ele>
        <time>2012-08-20T08:13:47.999Z</time>
      </trkpt>
      <trkpt lat="47.50226" lon="-0.33495">
        <ele>31</ele>
        <time>2012-08-20T08:13:50.999Z</time>
      </trkpt>
      <trkpt lat="47.5023" lon="-0.335">
        <ele>31</ele>
        <time>2012-08-20T08:13:54.999Z</time>
      </trkpt>
      <trkpt lat="47.50234" lon="-0.33505">
        <ele>31</ele>
        <time>2012-08-20T08:13:58.999Z</time>
      </trkpt>
      <trkpt lat="47.50238" lon="-0.33509">
        <ele>31</ele>
        <time>2012-08-20T08:14:02.999Z</time>
      </trkpt>
      <trkpt lat="47.50242" lon="-0.33514">
        <ele>31</ele>
        <time>2012-08-20T08:14:07.999Z</time>
      </trkpt>
      <trkpt lat="47.50246" lon="-0.33518">
        <ele>31</ele>
        <time>2012-08-20T08:14:11.999Z</time>
      </trkpt>
      <trkpt lat="47.50251" lon="-0.33523">
        <ele>31</ele>
        <time>2012-08-20T08:14:15.999Z</time>
      </trkpt>
      <trkpt lat="47.50255" lon="-0.33527">
        <ele>31</ele>
        <time>2012-08-20T08:14:19.999Z</time>
      </trkpt>
      <trkpt lat="47.50258" lon="-0.33531">
        <ele>31</ele>
        <time>2012-08-20T08:14:23.999Z</time>
      </trkpt>
      <trkpt lat="47.50262" lon="-0.33535">
        <ele>31</ele>
        <time>2012-08-20T08:14:27.999Z</time>
      </trkpt>
      <trkpt lat="47.50266" lon="-0.3354">
        <ele>31</ele>
        <time>2012-08-20T08:14:31.999Z</time>
      </trkpt>
      <trkpt lat="47.5027" lon="-0.33547">
        <ele>31</ele>
        <time>2012-08-20T08:15:15.999Z</time>
      </trkpt>
      <trkpt lat="47.50273" lon="-0.33552">
        <ele>31</ele>
        <time>2012-08-20T08:15:16.999Z</time>
      </trkpt>
      <trkpt lat="47.50277" lon="-0.33558">
        <ele>31</ele>
        <time>2012-08-20T08:15:17.999Z</time>
      </trkpt>
      <trkpt lat="47.50281" lon="-0.33563">
        <ele>31</ele>
        <time>2012-08-20T08:15:18.999Z</time>
      </trkpt>
      <trkpt lat="47.50286" lon="-0.33567">
        <ele>31</ele>
        <time>2012-08-20T08:15:19.999Z</time>
      </trkpt>
      <trkpt lat="47.50291" lon="-0.3357">
        <ele>31</ele>
        <time>2012-08-20T08:15:20.999Z</time>
      </trkpt>
      <trkpt lat="47.50295" lon="-0.33573">
        <ele>31</ele>
        <time>2012-08-20T08:15:21.999Z</time>
      </trkpt>
      <trkpt lat="47.50299" lon="-0.33576">
        <ele>31</ele>
        <time>2012-08-20T08:15:22.999Z</time>
      </trkpt>
      <trkpt lat="47.50306" lon="-0.33579">
        <ele>31</ele>
        <time>2012-08-20T08:15:24.999Z</time>
      </trkpt>
      <trkpt lat="47.50312" lon="-0.33582">
        <ele>31</ele>
        <time>2012-08-20T08:15:26.999Z</time>
      </trkpt>
      <trkpt lat="47.50315" lon="-0.33587">
        <ele>31</ele>
        <time>2012-08-20T08:15:37.999Z</time>
      </trkpt>
      <trkpt lat="47.50318" lon="-0.33595">
        <ele>31</ele>
        <time>2012-08-20T08:15:39.999Z</time>
      </trkpt>
      <trkpt lat="47.50322" lon="-0.336">
        <ele>31</ele>
        <time>2012-08-20T08:15:41.999Z</time>
      </trkpt>
      <trkpt lat="47.50327" lon="-0.33605">
        <ele>31</ele>
        <time>2012-08-20T08:15:44.999Z</time>
      </trkpt>
      <trkpt lat="47.50331" lon="-0.3361">
        <ele>31</ele>
        <time>2012-08-20T08:15:47.999Z</time>
      </trkpt>
      <trkpt lat="47.50336" lon="-0.33615">
        <ele>31</ele>
        <time>2012-08-20T08:15:50.999Z</time>
      </trkpt>
      <trkpt lat="47.50339" lon="-0.3362">
        <ele>31</ele>
        <time>2012-08-20T08:15:53.999Z</time>
      </trkpt>
      <trkpt lat="47.50342" lon="-0.33626">
        <ele>31</ele>
        <time>2012-08-20T08:15:57.999Z</time>
      </trkpt>
      <trkpt lat="47.50345" lon="-0.33632">
        <ele>31</ele>
        <time>2012-08-20T08:16:01.999Z</time>
      </trkpt>
      <trkpt lat="47.50347" lon="-0.33639">
        <ele>31</ele>
        <time>2012-08-20T08:16:06.999Z</time>
      </trkpt>
      <trkpt lat="47.50349" lon="-0.33646">
        <ele>31</ele>
        <time>2012-08-20T08:16:10.999Z</time>
      </trkpt>
      <trkpt lat="47.5035" lon="-0.33653">
        <ele>31</ele>
        <time>2012-08-20T08:16:15.999Z</time>
      </trkpt>
      <trkpt lat="47.50352" lon="-0.3366">
        <ele>31</ele>
        <time>2012-08-20T08:16:20.999Z</time>
      </trkpt>
      <trkpt lat="47.50353" lon="-0.33668">
        <ele>31</ele>
        <time>2012-08-20T08:16:25.999Z</time>
      </trkpt>
      <trkpt lat="47.50355" lon="-0.33676">
        <ele>31</ele>
        <time>2012-08-20T08:16:29.999Z</time>
      </trkpt>
      <trkpt lat="47.50357" lon="-0.33684">
        <ele>31</ele>
        <time>2012-08-20T08:16:33.999Z</time>
      </trkpt>
      <trkpt lat="47.50359" lon="-0.33691">
        <ele>31</ele>
        <time>2012-08-20T08:16:37.999Z</time>
      </trkpt>
      <trkpt lat="47.50362" lon="-0.33698">
        <ele>31</ele>
        <time>2012-08-20T08:16:42.999Z</time>
      </trkpt>
      <trkpt lat="47.50364" lon="-0.33704">
        <ele>31</ele>
        <time>2012-08-20T08:16:46.999Z</time>
      </trkpt>
      <trkpt lat="47.50366" lon="-0.3371">
        <ele>31</ele>
        <time>2012-08-20T08:16:50.999Z</time>
      </trkpt>
      <trkpt lat="47.50368" lon="-0.33716">
        <ele>31</ele>
        <time>2012-08-20T08:16:54.999Z</time>
      </trkpt>
      <trkpt lat="47.50371" lon="-0.33722">
        <ele>31</ele>
        <time>2012-08-20T08:16:59.999Z</time>
      </trkpt>
      <trkpt lat="47.50375" lon="-0.33728">
        <ele>31</ele>
        <time>2012-08-20T08:17:04.999Z</time>
      </trkpt>
      <trkpt lat="47.50378" lon="-0.33732">
        <ele>31</ele>
        <time>2012-08-20T08:17:08.999Z</time>
      </trkpt>
      <trkpt lat="47.50382" lon="-0.33737">
        <ele>31</ele>
        <time>2012-08-20T08:17:12.999Z</time>
      </trkpt>
      <trkpt lat="47.50385" lon="-0.33741">
        <ele>31</ele>
        <time>2012-08-20T08:17:16.999Z</time>
      </trkpt>
      <trkpt lat="47.5039" lon="-0.33745">
        <ele>31</ele>
        <time>2012-08-20T08:17:20.999Z</time>
      </trkpt>
      <trkpt lat="47.50394" lon="-0.33749">
        <ele>31</ele>
        <time>2012-08-20T08:17:24.999Z</time>
      </trkpt>
      <trkpt lat="47.50397" lon="-0.33753">
        <ele>32</ele>
        <time>2012-08-20T08:17:28.999Z</time>
      </trkpt>
      <trkpt lat="47.50401" lon="-0.33758">
        <ele>32</ele>
        <time>2012-08-20T08:17:33.999Z</time>
      </trkpt>
      <trkpt lat="47.50403" lon="-0.33765">
        <ele>32</ele>
        <time>2012-08-20T08:17:49.999Z</time>
      </trkpt>
      <trkpt lat="47.50407" lon="-0.33772">
        <ele>32</ele>
        <time>2012-08-20T08:17:52.999Z</time>
      </trkpt>
      <trkpt lat="47.50412" lon="-0.33777">
        <ele>32</ele>
        <time>2012-08-20T08:17:55.999Z</time>
      </trkpt>
      <trkpt lat="47.50417" lon="-0.33781">
        <ele>32</ele>
        <time>2012-08-20T08:17:58.999Z</time>
      </trkpt>
      <trkpt lat="47.50421" lon="-0.33784">
        <ele>32</ele>
        <time>2012-08-20T08:18:01.999Z</time>
      </trkpt>
      <trkpt lat="47.50426" lon="-0.33789">
        <ele>32</ele>
        <time>2012-08-20T08:18:05.999Z</time>
      </trkpt>
      <trkpt lat="47.5043" lon="-0.33793">
        <ele>32</ele>
        <time>2012-08-20T08:18:09.999Z</time>
      </trkpt>
      <trkpt lat="47.50434" lon="-0.33798">
        <ele>32</ele>
        <time>2012-08-20T08:18:13.999Z</time>
      </trkpt>
      <trkpt lat="47.50437" lon="-0.33803">
        <ele>33</ele>
        <time>2012-08-20T08:18:17.999Z</time>
      </trkpt>
      <trkpt lat="47.5044" lon="-0.33808">
        <ele>33</ele>
        <time>2012-08-20T08:18:21.999Z</time>
      </trkpt>
      <trkpt lat="47.50443" lon="-0.33814">
        <ele>33</ele>
        <time>2012-08-20T08:18:25.999Z</time>
      </trkpt>
      <trkpt lat="47.50446" lon="-0.3382">
        <ele>33</ele>
        <time>2012-08-20T08:18:29.999Z</time>
      </trkpt>
      <trkpt lat="47.5045" lon="-0.33825">
        <ele>33</ele>
        <time>2012-08-20T08:18:33.999Z</time>
      </trkpt>
      <trkpt lat="47.50453" lon="-0.33831">
        <ele>33</ele>
        <time>2012-08-20T08:18:37.999Z</time>
      </trkpt>
      <trkpt lat="47.50456" lon="-0.33838">
        <ele>34</ele>
        <time>2012-08-20T08:18:41.999Z</time>
      </trkpt>
      <trkpt lat="47.50459" lon="-0.33844">
        <ele>34</ele>
        <time>2012-08-20T08:18:45.999Z</time>
      </trkpt>
      <trkpt lat="47.50462" lon="-0.3385">
        <ele>34</ele>
        <time>2012-08-20T08:18:49.999Z</time>
      </trkpt>
      <trkpt lat="47.50465" lon="-0.33855">
        <ele>34</ele>
        <time>2012-08-20T08:18:53.999Z</time>
      </trkpt>
      <trkpt lat="47.50468" lon="-0.33862">
        <ele>34</ele>
        <time>2012-08-20T08:18:58.999Z</time>
      </trkpt>
      <trkpt lat="47.50471" lon="-0.33868">
        <ele>34</ele>
        <time>2012-08-20T08:19:03.999Z</time>
      </trkpt>
      <trkpt lat="47.50473" lon="-0.33874">
        <ele>34</ele>
        <time>2012-08-20T08:19:07.999Z</time>
      </trkpt>
      <trkpt lat="47.50476" lon="-0.3388">
        <ele>34</ele>
        <time>2012-08-20T08:19:11.999Z</time>
      </trkpt>
      <trkpt lat="47.50478" lon="-0.33886">
        <ele>34</ele>
        <time>2012-08-20T08:19:16.999Z</time>
      </trkpt>
      <trkpt lat="47.50483" lon="-0.3389">
        <ele>34</ele>
        <time>2012-08-20T08:19:22.999Z</time>
      </trkpt>
      <trkpt lat="47.50488" lon="-0.33889">
        <ele>34</ele>
        <time>2012-08-20T08:19:26.999Z</time>
      </trkpt>
      <trkpt lat="47.50493" lon="-0.33889">
        <ele>34</ele>
        <time>2012-08-20T08:19:29.999Z</time>
      </trkpt>
      <trkpt lat="47.50498" lon="-0.33889">
        <ele>34</ele>
        <time>2012-08-20T08:19:33.999Z</time>
      </trkpt>
      <trkpt lat="47.50503" lon="-0.33887">
        <ele>34</ele>
        <time>2012-08-20T08:19:39.999Z</time>
      </trkpt>
      <trkpt lat="47.50508" lon="-0.33886">
        <ele>34</ele>
        <time>2012-08-20T08:19:43.999Z</time>
      </trkpt>
      <trkpt lat="47.50512" lon="-0.33885">
        <ele>34</ele>
        <time>2012-08-20T08:19:47.999Z</time>
      </trkpt>
      <trkpt lat="47.50516" lon="-0.3388">
        <ele>34</ele>
        <time>2012-08-20T08:19:53.999Z</time>
      </trkpt>
      <trkpt lat="47.5052" lon="-0.33876">
        <ele>34</ele>
        <time>2012-08-20T08:19:58.999Z</time>
      </trkpt>
      <trkpt lat="47.50525" lon="-0.33874">
        <ele>34</ele>
        <time>2012-08-20T08:20:02.999Z</time>
      </trkpt>
      <trkpt lat="47.5053" lon="-0.33872">
        <ele>34</ele>
        <time>2012-08-20T08:20:07.999Z</time>
      </trkpt>
      <trkpt lat="47.50535" lon="-0.3387">
        <ele>34</ele>
        <time>2012-08-20T08:20:12.999Z</time>
      </trkpt>
      <trkpt lat="47.5054" lon="-0.33867">
        <ele>34</ele>
        <time>2012-08-20T08:20:17.999Z</time>
      </trkpt>
      <trkpt lat="47.50544" lon="-0.33864">
        <ele>34</ele>
        <time>2012-08-20T08:20:21.999Z</time>
      </trkpt>
      <trkpt lat="47.50549" lon="-0.33862">
        <ele>34</ele>
        <time>2012-08-20T08:20:25.999Z</time>
      </trkpt>
      <trkpt lat="47.50554" lon="-0.33862">
        <ele>34</ele>
        <time>2012-08-20T08:20:29.999Z</time>
      </trkpt>
      <trkpt lat="47.50558" lon="-0.3386">
        <ele>34</ele>
        <time>2012-08-20T08:20:34.999Z</time>
      </trkpt>
      <trkpt lat="47.50562" lon="-0.33854">
        <ele>34</ele>
        <time>2012-08-20T08:20:38.999Z</time>
      </trkpt>
      <trkpt lat="47.50566" lon="-0.33852">
        <ele>33</ele>
        <time>2012-08-20T08:20:42.999Z</time>
      </trkpt>
      <trkpt lat="47.5057" lon="-0.33849">
        <ele>33</ele>
        <time>2012-08-20T08:20:47.999Z</time>
      </trkpt>
      <trkpt lat="47.50575" lon="-0.3385">
        <ele>33</ele>
        <time>2012-08-20T08:20:50.999Z</time>
      </trkpt>
      <trkpt lat="47.5058" lon="-0.33852">
        <ele>33</ele>
        <time>2012-08-20T08:20:53.999Z</time>
      </trkpt>
      <trkpt lat="47.50586" lon="-0.33852">
        <ele>33</ele>
        <time>2012-08-20T08:20:56.999Z</time>
      </trkpt>
      <trkpt lat="47.5059" lon="-0.33851">
        <ele>33</ele>
        <time>2012-08-20T08:21:00.999Z</time>
      </trkpt>
      <trkpt lat="47.50596" lon="-0.33852">
        <ele>33</ele>
        <time>2012-08-20T08:21:05.999Z</time>
      </trkpt>
      <trkpt lat="47.50599" lon="-0.33847">
        <ele>33</ele>
        <time>2012-08-20T08:21:10.999Z</time>
      </trkpt>
      <trkpt lat="47.50603" lon="-0.33842">
        <ele>33</ele>
        <time>2012-08-20T08:21:18.999Z</time>
      </trkpt>
      <trkpt lat="47.50608" lon="-0.3384">
        <ele>33</ele>
        <time>2012-08-20T08:21:22.999Z</time>
      </trkpt>
      <trkpt lat="47.50612" lon="-0.33835">
        <ele>33</ele>
        <time>2012-08-20T08:21:27.999Z</time>
      </trkpt>
      <trkpt lat="47.50617" lon="-0.33831">
        <ele>33</ele>
        <time>2012-08-20T08:21:31.999Z</time>
      </trkpt>
      <trkpt lat="47.5062" lon="-0.33824">
        <ele>33</ele>
        <time>2012-08-20T08:21:36.999Z</time>
      </trkpt>
      <trkpt lat="47.50622" lon="-0.33817">
        <ele>33</ele>
        <time>2012-08-20T08:21:41.999Z</time>
      </trkpt>
      <trkpt lat="47.50622" lon="-0.3381">
        <ele>33</ele>
        <time>2012-08-20T08:21:46.999Z</time>
      </trkpt>
      <trkpt lat="47.50622" lon="-0.33802">
        <ele>33</ele>
        <time>2012-08-20T08:21:51.999Z</time>
      </trkpt>
      <trkpt lat="47.50623" lon="-0.33794">
        <ele>33</ele>
        <time>2012-08-20T08:21:57.999Z</time>
      </trkpt>
      <trkpt lat="47.50626" lon="-0.33788">
        <ele>33</ele>
        <time>2012-08-20T08:22:03.999Z</time>
      </trkpt>
      <trkpt lat="47.50628" lon="-0.33782">
        <ele>33</ele>
        <time>2012-08-20T08:22:08.999Z</time>
      </trkpt>
      <trkpt lat="47.50629" lon="-0.33774">
        <ele>33</ele>
        <time>2012-08-20T08:22:13.999Z</time>
      </trkpt>
      <trkpt lat="47.50632" lon="-0.33767">
        <ele>33</ele>
        <time>2012-08-20T08:22:18.999Z</time>
      </trkpt>
      <trkpt lat="47.50634" lon="-0.3376">
        <ele>33</ele>
        <time>2012-08-20T08:22:22.999Z</time>
      </trkpt>
      <trkpt lat="47.50636" lon="-0.33753">
        <ele>33</ele>
        <time>2012-08-20T08:22:25.999Z</time>
      </trkpt>
      <trkpt lat="47.50638" lon="-0.33746">
        <ele>33</ele>
        <time>2012-08-20T08:22:28.999Z</time>
      </trkpt>
      <trkpt lat="47.50641" lon="-0.3374">
        <ele>33</ele>
        <time>2012-08-20T08:22:31.999Z</time>
      </trkpt>
      <trkpt lat="47.50644" lon="-0.33735">
        <ele>33</ele>
        <time>2012-08-20T08:22:34.999Z</time>
      </trkpt>
      <trkpt lat="47.50646" lon="-0.3373">
        <ele>33</ele>
        <time>2012-08-20T08:22:37.999Z</time>
      </trkpt>
      <trkpt lat="47.5065" lon="-0.33725">
        <ele>33</ele>
        <time>2012-08-20T08:22:40.999Z</time>
      </trkpt>
      <trkpt lat="47.50654" lon="-0.33719">
        <ele>33</ele>
        <time>2012-08-20T08:22:43.999Z</time>
      </trkpt>
      <trkpt lat="47.50657" lon="-0.33712">
        <ele>33</ele>
        <time>2012-08-20T08:22:47.999Z</time>
      </trkpt>
      <trkpt lat="47.50659" lon="-0.33706">
        <ele>33</ele>
        <time>2012-08-20T08:22:51.999Z</time>
      </trkpt>
      <trkpt lat="47.50662" lon="-0.337">
        <ele>33</ele>
        <time>2012-08-20T08:22:56.999Z</time>
      </trkpt>
      <trkpt lat="47.50666" lon="-0.33695">
        <ele>33</ele>
        <time>2012-08-20T08:23:01.999Z</time>
      </trkpt>
      <trkpt lat="47.50671" lon="-0.33691">
        <ele>35</ele>
        <time>2012-08-20T08:23:06.999Z</time>
      </trkpt>
      <trkpt lat="47.50675" lon="-0.33688">
        <ele>35</ele>
        <time>2012-08-20T08:23:10.999Z</time>
      </trkpt>
      <trkpt lat="47.50679" lon="-0.33684">
        <ele>35</ele>
        <time>2012-08-20T08:23:14.999Z</time>
      </trkpt>
      <trkpt lat="47.50684" lon="-0.3368">
        <ele>35</ele>
        <time>2012-08-20T08:23:19.999Z</time>
      </trkpt>
      <trkpt lat="47.50688" lon="-0.33677">
        <ele>35</ele>
        <time>2012-08-20T08:23:23.999Z</time>
      </trkpt>
      <trkpt lat="47.50691" lon="-0.33673">
        <ele>35</ele>
        <time>2012-08-20T08:23:27.999Z</time>
      </trkpt>
      <trkpt lat="47.50695" lon="-0.33667">
        <ele>35</ele>
        <time>2012-08-20T08:23:32.999Z</time>
      </trkpt>
      <trkpt lat="47.50698" lon="-0.33662">
        <ele>35</ele>
        <time>2012-08-20T08:23:37.999Z</time>
      </trkpt>
      <trkpt lat="47.50702" lon="-0.33657">
        <ele>35</ele>
        <time>2012-08-20T08:23:42.999Z</time>
      </trkpt>
      <trkpt lat="47.50706" lon="-0.33652">
        <ele>35</ele>
        <time>2012-08-20T08:23:47.999Z</time>
      </trkpt>
      <trkpt lat="47.5071" lon="-0.33647">
        <ele>36</ele>
        <time>2012-08-20T08:23:51.999Z</time>
      </trkpt>
      <trkpt lat="47.50713" lon="-0.33642">
        <ele>36</ele>
        <time>2012-08-20T08:23:55.999Z</time>
      </trkpt>
      <trkpt lat="47.50717" lon="-0.33638">
        <ele>36</ele>
        <time>2012-08-20T08:23:59.999Z</time>
      </trkpt>
      <trkpt lat="47.50721" lon="-0.33632">
        <ele>36</ele>
        <time>2012-08-20T08:24:04.999Z</time>
      </trkpt>
      <trkpt lat="47.50724" lon="-0.33626">
        <ele>36</ele>
        <time>2012-08-20T08:24:09.999Z</time>
      </trkpt>
      <trkpt lat="47.50727" lon="-0.33621">
        <ele>36</ele>
        <time>2012-08-20T08:24:14.999Z</time>
      </trkpt>
      <trkpt lat="47.50731" lon="-0.33615">
        <ele>36</ele>
        <time>2012-08-20T08:24:19.999Z</time>
      </trkpt>
      <trkpt lat="47.50735" lon="-0.3361">
        <ele>36</ele>
        <time>2012-08-20T08:24:23.999Z</time>
      </trkpt>
      <trkpt lat="47.50739" lon="-0.33605">
        <ele>37</ele>
        <time>2012-08-20T08:24:27.999Z</time>
      </trkpt>
      <trkpt lat="47.50743" lon="-0.33602">
        <ele>37</ele>
        <time>2012-08-20T08:24:31.999Z</time>
      </trkpt>
      <trkpt lat="47.50749" lon="-0.33608">
        <ele>37</ele>
        <time>2012-08-20T08:25:30.999Z</time>
      </trkpt>
      <trkpt lat="47.50753" lon="-0.33618">
        <ele>40</ele>
        <time>2012-08-20T08:25:31.999Z</time>
      </trkpt>
      <trkpt lat="47.50758" lon="-0.33627">
        <ele>40</ele>
        <time>2012-08-20T08:25:32.999Z</time>
      </trkpt>
      <trkpt lat="47.50764" lon="-0.33634">
        <ele>40</ele>
        <time>2012-08-20T08:25:33.999Z</time>
      </trkpt>
      <trkpt lat="47.5077" lon="-0.33641">
        <ele>40</ele>
        <time>2012-08-20T08:25:34.999Z</time>
      </trkpt>
      <trkpt lat="47.50777" lon="-0.33647">
        <ele>40</ele>
        <time>2012-08-20T08:25:35.999Z</time>
      </trkpt>
      <trkpt lat="47.50783" lon="-0.33651">
        <ele>41</ele>
        <time>2012-08-20T08:25:36.999Z</time>
      </trkpt>
      <trkpt lat="47.50789" lon="-0.33656">
        <ele>41</ele>
        <time>2012-08-20T08:25:37.999Z</time>
      </trkpt>
      <trkpt lat="47.50794" lon="-0.3366">
        <ele>41</ele>
        <time>2012-08-20T08:25:38.999Z</time>
      </trkpt>
      <trkpt lat="47.50799" lon="-0.33663">
        <ele>41</ele>
        <time>2012-08-20T08:25:39.999Z</time>
      </trkpt>
      <trkpt lat="47.50807" lon="-0.33668">
        <ele>42</ele>
        <time>2012-08-20T08:25:41.999Z</time>
      </trkpt>
      <trkpt lat="47.50812" lon="-0.33672">
        <ele>42</ele>
        <time>2012-08-20T08:25:43.999Z</time>
      </trkpt>
      <trkpt lat="47.50817" lon="-0.33676">
        <ele>42</ele>
        <time>2012-08-20T08:25:45.999Z</time>
      </trkpt>
      <trkpt lat="47.50822" lon="-0.33681">
        <ele>42</ele>
        <time>2012-08-20T08:25:48.999Z</time>
      </trkpt>
      <trkpt lat="47.50825" lon="-0.33685">
        <ele>42</ele>
        <time>2012-08-20T08:25:51.999Z</time>
      </trkpt>
      <trkpt lat="47.50828" lon="-0.3369">
        <ele>42</ele>
        <time>2012-08-20T08:25:54.999Z</time>
      </trkpt>
      <trkpt lat="47.50832" lon="-0.33696">
        <ele>42</ele>
        <time>2012-08-20T08:25:58.999Z</time>
      </trkpt>
      <trkpt lat="47.50836" lon="-0.33703">
        <ele>45</ele>
        <time>2012-08-20T08:26:02.999Z</time>
      </trkpt>
      <trkpt lat="47.50838" lon="-0.33709">
        <ele>45</ele>
        <time>2012-08-20T08:26:06.999Z</time>
      </trkpt>
      <trkpt lat="47.5084" lon="-0.33715">
        <ele>45</ele>
        <time>2012-08-20T08:26:10.999Z</time>
      </trkpt>
      <trkpt lat="47.5084" lon="-0.33722">
        <ele>44</ele>
        <time>2012-08-20T08:26:14.999Z</time>
      </trkpt>
      <trkpt lat="47.50841" lon="-0.3373">
        <ele>44</ele>
        <time>2012-08-20T08:26:18.999Z</time>
      </trkpt>
      <trkpt lat="47.50842" lon="-0.33737">
        <ele>44</ele>
        <time>2012-08-20T08:26:22.999Z</time>
      </trkpt>
      <trkpt lat="47.50844" lon="-0.33743">
        <ele>44</ele>
        <time>2012-08-20T08:26:26.999Z</time>
      </trkpt>
      <trkpt lat="47.50845" lon="-0.3375">
        <ele>43</ele>
        <time>2012-08-20T08:26:30.999Z</time>
      </trkpt>
      <trkpt lat="47.50846" lon="-0.33757">
        <ele>44</ele>
        <time>2012-08-20T08:26:34.999Z</time>
      </trkpt>
      <trkpt lat="47.50848" lon="-0.33764">
        <ele>44</ele>
        <time>2012-08-20T08:26:38.999Z</time>
      </trkpt>
      <trkpt lat="47.50848" lon="-0.33772">
        <ele>44</ele>
        <time>2012-08-20T08:26:42.999Z</time>
      </trkpt>
      <trkpt lat="47.50849" lon="-0.33779">
        <ele>44</ele>
        <time>2012-08-20T08:26:46.999Z</time>
      </trkpt>
      <trkpt lat="47.50851" lon="-0.33785">
        <ele>44</ele>
        <time>2012-08-20T08:26:49.999Z</time>
      </trkpt>
      <trkpt lat="47.50853" lon="-0.33793">
        <ele>44</ele>
        <time>2012-08-20T08:26:52.999Z</time>
      </trkpt>
      <trkpt lat="47.50856" lon="-0.33799">
        <ele>44</ele>
        <time>2012-08-20T08:26:56.999Z</time>
      </trkpt>
      <trkpt lat="47.50862" lon="-0.33799">
        <ele>44</ele>
        <time>2012-08-20T08:27:10.999Z</time>
      </trkpt>
      <trkpt lat="47.50867" lon="-0.33801">
        <ele>44</ele>
        <time>2012-08-20T08:27:12.999Z</time>
      </trkpt>
      <trkpt lat="47.50873" lon="-0.33804">
        <ele>44</ele>
        <time>2012-08-20T08:27:15.999Z</time>
      </trkpt>
      <trkpt lat="47.5088" lon="-0.33806">
        <ele>44</ele>
        <time>2012-08-20T08:27:18.999Z</time>
      </trkpt>
      <trkpt lat="47.50886" lon="-0.33807">
        <ele>44</ele>
        <time>2012-08-20T08:27:21.999Z</time>
      </trkpt>
      <trkpt lat="47.50891" lon="-0.33807">
        <ele>45</ele>
        <time>2012-08-20T08:27:24.999Z</time>
      </trkpt>
      <trkpt lat="47.50896" lon="-0.33807">
        <ele>45</ele>
        <time>2012-08-20T08:27:28.999Z</time>
      </trkpt>
      <trkpt lat="47.50899" lon="-0.33801">
        <ele>45</ele>
        <time>2012-08-20T08:27:32.999Z</time>
      </trkpt>
      <trkpt lat="47.50903" lon="-0.33796">
        <ele>45</ele>
        <time>2012-08-20T08:27:38.999Z</time>
      </trkpt>
      <trkpt lat="47.50907" lon="-0.33794">
        <ele>45</ele>
        <time>2012-08-20T08:27:43.999Z</time>
      </trkpt>
      <trkpt lat="47.50912" lon="-0.33794">
        <ele>45</ele>
        <time>2012-08-20T08:27:46.999Z</time>
      </trkpt>
      <trkpt lat="47.50917" lon="-0.33794">
        <ele>49</ele>
        <time>2012-08-20T08:27:49.999Z</time>
      </trkpt>
      <trkpt lat="47.50922" lon="-0.33794">
        <ele>49</ele>
        <time>2012-08-20T08:27:52.999Z</time>
      </trkpt>
      <trkpt lat="47.50927" lon="-0.33792">
        <ele>49</ele>
        <time>2012-08-20T08:27:56.999Z</time>
      </trkpt>
      <trkpt lat="47.50932" lon="-0.33791">
        <ele>49</ele>
        <time>2012-08-20T08:28:01.999Z</time>
      </trkpt>
      <trkpt lat="47.50936" lon="-0.33788">
        <ele>49</ele>
        <time>2012-08-20T08:28:08.999Z</time>
      </trkpt>
      <trkpt lat="47.50942" lon="-0.33785">
        <ele>49</ele>
        <time>2012-08-20T08:28:13.999Z</time>
      </trkpt>
      <trkpt lat="47.50947" lon="-0.33786">
        <ele>50</ele>
        <time>2012-08-20T08:28:16.999Z</time>
      </trkpt>
      <trkpt lat="47.50952" lon="-0.33787">
        <ele>50</ele>
        <time>2012-08-20T08:28:19.998Z</time>
      </trkpt>
      <trkpt lat="47.50958" lon="-0.33788">
        <ele>50</ele>
        <time>2012-08-20T08:28:22.998Z</time>
      </trkpt>
      <trkpt lat="47.50963" lon="-0.33789">
        <ele>50</ele>
        <time>2012-08-20T08:28:35.998Z</time>
      </trkpt>
      <trkpt lat="47.50968" lon="-0.33785">
        <ele>51</ele>
        <time>2012-08-20T08:28:39.998Z</time>
      </trkpt>
      <trkpt lat="47.50973" lon="-0.33784">
        <ele>51</ele>
        <time>2012-08-20T08:28:42.998Z</time>
      </trkpt>
      <trkpt lat="47.50978" lon="-0.33784">
        <ele>51</ele>
        <time>2012-08-20T08:28:45.998Z</time>
      </trkpt>
      <trkpt lat="47.50982" lon="-0.33784">
        <ele>51</ele>
        <time>2012-08-20T08:28:48.998Z</time>
      </trkpt>
      <trkpt lat="47.50987" lon="-0.33787">
        <ele>52</ele>
        <time>2012-08-20T08:28:51.998Z</time>
      </trkpt>
      <trkpt lat="47.5099" lon="-0.3379">
        <ele>52</ele>
        <time>2012-08-20T08:28:54.998Z</time>
      </trkpt>
      <trkpt lat="47.50995" lon="-0.33794">
        <ele>52</ele>
        <time>2012-08-20T08:28:57.998Z</time>
      </trkpt>
      <trkpt lat="47.50999" lon="-0.33798">
        <ele>52</ele>
        <time>2012-08-20T08:29:00.998Z</time>
      </trkpt>
      <trkpt lat="47.51003" lon="-0.338">
        <ele>57</ele>
        <time>2012-08-20T08:29:02.998Z</time>
      </trkpt>
      <trkpt lat="47.51008" lon="-0.33801">
        <ele>57</ele>
        <time>2012-08-20T08:29:04.998Z</time>
      </trkpt>
      <trkpt lat="47.51014" lon="-0.33801">
        <ele>57</ele>
        <time>2012-08-20T08:29:07.998Z</time>
      </trkpt>
      <trkpt lat="47.51019" lon="-0.33805">
        <ele>57</ele>
        <time>2012-08-20T08:29:10.998Z</time>
      </trkpt>
      <trkpt lat="47.51024" lon="-0.33804">
        <ele>58</ele>
        <time>2012-08-20T08:29:14.998Z</time>
      </trkpt>
      <trkpt lat="47.51025" lon="-0.33812">
        <ele>58</ele>
        <time>2012-08-20T08:29:17.998Z</time>
      </trkpt>
      <trkpt lat="47.51029" lon="-0.33819">
        <ele>58</ele>
        <time>2012-08-20T08:29:24.998Z</time>
      </trkpt>
      <trkpt lat="47.51034" lon="-0.33821">
        <ele>58</ele>
        <time>2012-08-20T08:29:27.998Z</time>
      </trkpt>
      <trkpt lat="47.51039" lon="-0.33826">
        <ele>58</ele>
        <time>2012-08-20T08:29:30.998Z</time>
      </trkpt>
      <trkpt lat="47.51044" lon="-0.33824">
        <ele>59</ele>
        <time>2012-08-20T08:29:34.998Z</time>
      </trkpt>
      <trkpt lat="47.51049" lon="-0.33823">
        <ele>59</ele>
        <time>2012-08-20T08:29:37.998Z</time>
      </trkpt>
      <trkpt lat="47.51053" lon="-0.33826">
        <ele>59</ele>
        <time>2012-08-20T08:29:44.998Z</time>
      </trkpt>
      <trkpt lat="47.51058" lon="-0.33826">
        <ele>60</ele>
        <time>2012-08-20T08:29:49.998Z</time>
      </trkpt>
      <trkpt lat="47.51061" lon="-0.33831">
        <ele>60</ele>
        <time>2012-08-20T08:29:52.998Z</time>
      </trkpt>
      <trkpt lat="47.51066" lon="-0.33834">
        <ele>61</ele>
        <time>2012-08-20T08:29:58.998Z</time>
      </trkpt>
      <trkpt lat="47.5107" lon="-0.33834">
        <ele>62</ele>
        <time>2012-08-20T08:30:01.998Z</time>
      </trkpt>
      <trkpt lat="47.51075" lon="-0.33834">
        <ele>62</ele>
        <time>2012-08-20T08:30:04.998Z</time>
      </trkpt>
      <trkpt lat="47.51079" lon="-0.33827">
        <ele>62</ele>
        <time>2012-08-20T08:30:07.998Z</time>
      </trkpt>
      <trkpt lat="47.51083" lon="-0.33824">
        <ele>62</ele>
        <time>2012-08-20T08:30:11.998Z</time>
      </trkpt>
      <trkpt lat="47.51088" lon="-0.33826">
        <ele>63</ele>
        <time>2012-08-20T08:30:14.998Z</time>
      </trkpt>
      <trkpt lat="47.51092" lon="-0.33831">
        <ele>64</ele>
        <time>2012-08-20T08:30:17.998Z</time>
      </trkpt>
      <trkpt lat="47.51096" lon="-0.33837">
        <ele>64</ele>
        <time>2012-08-20T08:30:23.998Z</time>
      </trkpt>
      <trkpt lat="47.51101" lon="-0.33843">
        <ele>64</ele>
        <time>2012-08-20T08:30:26.998Z</time>
      </trkpt>
      <trkpt lat="47.51105" lon="-0.33847">
        <ele>65</ele>
        <time>2012-08-20T08:30:29.998Z</time>
      </trkpt>
      <trkpt lat="47.51101" lon="-0.33843">
        <ele>64</ele>
        <time>2012-08-20T08:30:36.998Z</time>
      </trkpt>
      <trkpt lat="47.51107" lon="-0.33845">
        <ele>65</ele>
        <time>2012-08-20T08:30:41.998Z</time>
      </trkpt>
      <trkpt lat="47.51112" lon="-0.33845">
        <ele>65</ele>
        <time>2012-08-20T08:30:50.998Z</time>
      </trkpt>
      <trkpt lat="47.51117" lon="-0.33845">
        <ele>65</ele>
        <time>2012-08-20T08:30:53.998Z</time>
      </trkpt>
      <trkpt lat="47.51122" lon="-0.33846">
        <ele>65</ele>
        <time>2012-08-20T08:30:56.998Z</time>
      </trkpt>
      <trkpt lat="47.51126" lon="-0.3385">
        <ele>65</ele>
        <time>2012-08-20T08:31:03.998Z</time>
      </trkpt>
      <trkpt lat="47.5113" lon="-0.33854">
        <ele>65</ele>
        <time>2012-08-20T08:31:07.998Z</time>
      </trkpt>
      <trkpt lat="47.51134" lon="-0.33859">
        <ele>65</ele>
        <time>2012-08-20T08:31:10.998Z</time>
      </trkpt>
      <trkpt lat="47.51138" lon="-0.33864">
        <ele>66</ele>
        <time>2012-08-20T08:31:13.998Z</time>
      </trkpt>
      <trkpt lat="47.51142" lon="-0.33868">
        <ele>66</ele>
        <time>2012-08-20T08:31:17.998Z</time>
      </trkpt>
      <trkpt lat="47.51148" lon="-0.33867">
        <ele>66</ele>
        <time>2012-08-20T08:31:21.998Z</time>
      </trkpt>
      <trkpt lat="47.51152" lon="-0.33871">
        <ele>66</ele>
        <time>2012-08-20T08:31:27.998Z</time>
      </trkpt>
      <trkpt lat="47.51156" lon="-0.33874">
        <ele>66</ele>
        <time>2012-08-20T08:31:31.998Z</time>
      </trkpt>
      <trkpt lat="47.51162" lon="-0.33869">
        <ele>66</ele>
        <time>2012-08-20T08:31:34.998Z</time>
      </trkpt>
      <trkpt lat="47.51166" lon="-0.33866">
        <ele>66</ele>
        <time>2012-08-20T08:31:37.998Z</time>
      </trkpt>
      <trkpt lat="47.51172" lon="-0.33864">
        <ele>67</ele>
        <time>2012-08-20T08:31:40.998Z</time>
      </trkpt>
      <trkpt lat="47.51175" lon="-0.33858">
        <ele>67</ele>
        <time>2012-08-20T08:31:44.998Z</time>
      </trkpt>
      <trkpt lat="47.51181" lon="-0.33857">
        <ele>67</ele>
        <time>2012-08-20T08:31:47.998Z</time>
      </trkpt>
      <trkpt lat="47.51186" lon="-0.33857">
        <ele>68</ele>
        <time>2012-08-20T08:31:51.998Z</time>
      </trkpt>
      <trkpt lat="47.5119" lon="-0.33859">
        <ele>68</ele>
        <time>2012-08-20T08:31:55.998Z</time>
      </trkpt>
      <trkpt lat="47.51195" lon="-0.3386">
        <ele>68</ele>
        <time>2012-08-20T08:32:03.998Z</time>
      </trkpt>
      <trkpt lat="47.512" lon="-0.33864">
        <ele>68</ele>
        <time>2012-08-20T08:32:13.998Z</time>
      </trkpt>
      <trkpt lat="47.51204" lon="-0.3387">
        <ele>68</ele>
        <time>2012-08-20T08:32:16.998Z</time>
      </trkpt>
      <trkpt lat="47.51209" lon="-0.33876">
        <ele>68</ele>
        <time>2012-08-20T08:32:19.998Z</time>
      </trkpt>
      <trkpt lat="47.51214" lon="-0.3388">
        <ele>68</ele>
        <time>2012-08-20T08:32:22.998Z</time>
      </trkpt>
      <trkpt lat="47.51219" lon="-0.33884">
        <ele>68</ele>
        <time>2012-08-20T08:32:25.998Z</time>
      </trkpt>
      <trkpt lat="47.51224" lon="-0.33888">
        <ele>68</ele>
        <time>2012-08-20T08:32:28.998Z</time>
      </trkpt>
      <trkpt lat="47.51229" lon="-0.33889">
        <ele>68</ele>
        <time>2012-08-20T08:32:31.998Z</time>
      </trkpt>
      <trkpt lat="47.51234" lon="-0.33891">
        <ele>68</ele>
        <time>2012-08-20T08:32:34.998Z</time>
      </trkpt>
      <trkpt lat="47.51239" lon="-0.33892">
        <ele>68</ele>
        <time>2012-08-20T08:32:37.998Z</time>
      </trkpt>
      <trkpt lat="47.51242" lon="-0.33897">
        <ele>68</ele>
        <time>2012-08-20T08:32:41.998Z</time>
      </trkpt>
      <trkpt lat="47.51247" lon="-0.33895">
        <ele>68</ele>
        <time>2012-08-20T08:32:46.998Z</time>
      </trkpt>
      <trkpt lat="47.51252" lon="-0.33896">
        <ele>68</ele>
        <time>2012-08-20T08:32:55.998Z</time>
      </trkpt>
      <trkpt lat="47.51258" lon="-0.33896">
        <ele>68</ele>
        <time>2012-08-20T08:32:58.998Z</time>
      </trkpt>
      <trkpt lat="47.51263" lon="-0.33896">
        <ele>68</ele>
        <time>2012-08-20T08:33:02.998Z</time>
      </trkpt>
      <trkpt lat="47.51269" lon="-0.33897">
        <ele>69</ele>
        <time>2012-08-20T08:33:06.998Z</time>
      </trkpt>
      <trkpt lat="47.51275" lon="-0.33899">
        <ele>69</ele>
        <time>2012-08-20T08:33:09.998Z</time>
      </trkpt>
      <trkpt lat="47.5128" lon="-0.33901">
        <ele>69</ele>
        <time>2012-08-20T08:33:12.998Z</time>
      </trkpt>
      <trkpt lat="47.51286" lon="-0.33902">
        <ele>69</ele>
        <time>2012-08-20T08:33:15.998Z</time>
      </trkpt>
      <trkpt lat="47.51291" lon="-0.33904">
        <ele>69</ele>
        <time>2012-08-20T08:33:18.998Z</time>
      </trkpt>
      <trkpt lat="47.51296" lon="-0.33908">
        <ele>69</ele>
        <time>2012-08-20T08:33:21.998Z</time>
      </trkpt>
      <trkpt lat="47.51302" lon="-0.33912">
        <ele>69</ele>
        <time>2012-08-20T08:33:24.998Z</time>
      </trkpt>
      <trkpt lat="47.51309" lon="-0.33914">
        <ele>69</ele>
        <time>2012-08-20T08:33:29.998Z</time>
      </trkpt>
      <trkpt lat="47.51313" lon="-0.33917">
        <ele>69</ele>
        <time>2012-08-20T08:33:31.998Z</time>
      </trkpt>
      <trkpt lat="47.51319" lon="-0.33914">
        <ele>69</ele>
        <time>2012-08-20T08:33:36.998Z</time>
      </trkpt>
      <trkpt lat="47.51324" lon="-0.33918">
        <ele>69</ele>
        <time>2012-08-20T08:33:40.998Z</time>
      </trkpt>
      <trkpt lat="47.51328" lon="-0.33921">
        <ele>69</ele>
        <time>2012-08-20T08:33:43.998Z</time>
      </trkpt>
      <trkpt lat="47.51333" lon="-0.33926">
        <ele>69</ele>
        <time>2012-08-20T08:33:48.998Z</time>
      </trkpt>
      <trkpt lat="47.51336" lon="-0.3393">
        <ele>68</ele>
        <time>2012-08-20T08:33:55.998Z</time>
      </trkpt>
      <trkpt lat="47.51341" lon="-0.33929">
        <ele>68</ele>
        <time>2012-08-20T08:33:59.998Z</time>
      </trkpt>
      <trkpt lat="47.51346" lon="-0.33932">
        <ele>68</ele>
        <time>2012-08-20T08:34:02.998Z</time>
      </trkpt>
      <trkpt lat="47.51351" lon="-0.33937">
        <ele>68</ele>
        <time>2012-08-20T08:34:06.998Z</time>
      </trkpt>
      <trkpt lat="47.51356" lon="-0.33942">
        <ele>68</ele>
        <time>2012-08-20T08:34:08.998Z</time>
      </trkpt>
      <trkpt lat="47.51361" lon="-0.33942">
        <ele>68</ele>
        <time>2012-08-20T08:34:11.998Z</time>
      </trkpt>
      <trkpt lat="47.51366" lon="-0.33942">
        <ele>68</ele>
        <time>2012-08-20T08:34:16.998Z</time>
      </trkpt>
      <trkpt lat="47.51369" lon="-0.33937">
        <ele>68</ele>
        <time>2012-08-20T08:34:24.998Z</time>
      </trkpt>
      <trkpt lat="47.51375" lon="-0.33941">
        <ele>68</ele>
        <time>2012-08-20T08:34:36.998Z</time>
      </trkpt>
      <trkpt lat="47.5138" lon="-0.33946">
        <ele>68</ele>
        <time>2012-08-20T08:34:38.998Z</time>
      </trkpt>
      <trkpt lat="47.51385" lon="-0.33943">
        <ele>68</ele>
        <time>2012-08-20T08:34:42.998Z</time>
      </trkpt>
      <trkpt lat="47.51389" lon="-0.33948">
        <ele>67</ele>
        <time>2012-08-20T08:34:44.998Z</time>
      </trkpt>
      <trkpt lat="47.51394" lon="-0.33952">
        <ele>67</ele>
        <time>2012-08-20T08:34:46.998Z</time>
      </trkpt>
      <trkpt lat="47.51399" lon="-0.33957">
        <ele>67</ele>
        <time>2012-08-20T08:34:49.998Z</time>
      </trkpt>
      <trkpt lat="47.51403" lon="-0.33963">
        <ele>67</ele>
        <time>2012-08-20T08:35:02.998Z</time>
      </trkpt>
      <trkpt lat="47.51408" lon="-0.33967">
        <ele>67</ele>
        <time>2012-08-20T08:35:05.998Z</time>
      </trkpt>
      <trkpt lat="47.51414" lon="-0.33972">
        <ele>67</ele>
        <time>2012-08-20T08:35:08.998Z</time>
      </trkpt>
      <trkpt lat="47.51419" lon="-0.33976">
        <ele>66</ele>
        <time>2012-08-20T08:35:10.998Z</time>
      </trkpt>
      <trkpt lat="47.51424" lon="-0.3398">
        <ele>66</ele>
        <time>2012-08-20T08:35:12.998Z</time>
      </trkpt>
      <trkpt lat="47.51428" lon="-0.33984">
        <ele>66</ele>
        <time>2012-08-20T08:35:14.998Z</time>
      </trkpt>
      <trkpt lat="47.51433" lon="-0.33989">
        <ele>66</ele>
        <time>2012-08-20T08:35:17.998Z</time>
      </trkpt>
      <trkpt lat="47.51438" lon="-0.33992">
        <ele>66</ele>
        <time>2012-08-20T08:35:21.998Z</time>
      </trkpt>
      <trkpt lat="47.51443" lon="-0.33994">
        <ele>66</ele>
        <time>2012-08-20T08:35:25.998Z</time>
      </trkpt>
      <trkpt lat="47.51447" lon="-0.33996">
        <ele>66</ele>
        <time>2012-08-20T08:35:29.998Z</time>
      </trkpt>
      <trkpt lat="47.51451" lon="-0.34">
        <ele>67</ele>
        <time>2012-08-20T08:35:34.998Z</time>
      </trkpt>
      <trkpt lat="47.51455" lon="-0.34003">
        <ele>67</ele>
        <time>2012-08-20T08:35:39.998Z</time>
      </trkpt>
      <trkpt lat="47.51458" lon="-0.34008">
        <ele>67</ele>
        <time>2012-08-20T08:35:45.998Z</time>
      </trkpt>
      <trkpt lat="47.51462" lon="-0.34013">
        <ele>66</ele>
        <time>2012-08-20T08:35:54.998Z</time>
      </trkpt>
      <trkpt lat="47.51458" lon="-0.34016">
        <ele>67</ele>
        <time>2012-08-20T08:35:59.998Z</time>
      </trkpt>
      <trkpt lat="47.51459" lon="-0.34023">
        <ele>67</ele>
        <time>2012-08-20T08:36:05.998Z</time>
      </trkpt>
      <trkpt lat="47.51462" lon="-0.34017">
        <ele>66</ele>
        <time>2012-08-20T08:36:07.998Z</time>
      </trkpt>
      <trkpt lat="47.51466" lon="-0.34012">
        <ele>66</ele>
        <time>2012-08-20T08:36:11.998Z</time>
      </trkpt>
      <trkpt lat="47.51466" lon="-0.34005">
        <ele>66</ele>
        <time>2012-08-20T08:36:12.998Z</time>
      </trkpt>
      <trkpt lat="47.5147" lon="-0.33999">
        <ele>65</ele>
        <time>2012-08-20T08:36:14.998Z</time>
      </trkpt>
      <trkpt lat="47.51474" lon="-0.33996">
        <ele>65</ele>
        <time>2012-08-20T08:36:17.998Z</time>
      </trkpt>
      <trkpt lat="47.51479" lon="-0.33997">
        <ele>65</ele>
        <time>2012-08-20T08:36:23.998Z</time>
      </trkpt>
      <trkpt lat="47.51483" lon="-0.34001">
        <ele>66</ele>
        <time>2012-08-20T08:36:31.998Z</time>
      </trkpt>
      <trkpt lat="47.5148" lon="-0.33996">
        <ele>65</ele>
        <time>2012-08-20T08:36:50.998Z</time>
      </trkpt>
      <trkpt lat="47.51475" lon="-0.33997">
        <ele>65</ele>
        <time>2012-08-20T08:37:02.998Z</time>
      </trkpt>
      <trkpt lat="47.5147" lon="-0.33999">
        <ele>65</ele>
        <time>2012-08-20T08:37:05.998Z</time>
      </trkpt>
      <trkpt lat="47.51464" lon="-0.34003">
        <ele>66</ele>
        <time>2012-08-20T08:37:08.998Z</time>
      </trkpt>
      <trkpt lat="47.5146" lon="-0.34007">
        <ele>66</ele>
        <time>2012-08-20T08:37:11.998Z</time>
      </trkpt>
      <trkpt lat="47.51457" lon="-0.34012">
        <ele>67</ele>
        <time>2012-08-20T08:37:15.998Z</time>
      </trkpt>
      <trkpt lat="47.51453" lon="-0.34018">
        <ele>67</ele>
        <time>2012-08-20T08:37:19.998Z</time>
      </trkpt>
      <trkpt lat="47.51456" lon="-0.3401">
        <ele>67</ele>
        <time>2012-08-20T08:37:26.998Z</time>
      </trkpt>
      <trkpt lat="47.5146" lon="-0.34006">
        <ele>66</ele>
        <time>2012-08-20T08:37:29.998Z</time>
      </trkpt>
      <trkpt lat="47.51465" lon="-0.34003">
        <ele>66</ele>
        <time>2012-08-20T08:37:32.998Z</time>
      </trkpt>
      <trkpt lat="47.51467" lon="-0.33997">
        <ele>65</ele>
        <time>2012-08-20T08:37:37.998Z</time>
      </trkpt>
      <trkpt lat="47.51472" lon="-0.33998">
        <ele>65</ele>
        <time>2012-08-20T08:37:45.998Z</time>
      </trkpt>
      <trkpt lat="47.51467" lon="-0.33999">
        <ele>65</ele>
        <time>2012-08-20T08:37:54.998Z</time>
      </trkpt>
      <trkpt lat="47.51467" lon="-0.34007">
        <ele>66</ele>
        <time>2012-08-20T08:37:59.998Z</time>
      </trkpt>
      <trkpt lat="47.51462" lon="-0.34012">
        <ele>66</ele>
        <time>2012-08-20T08:38:06.998Z</time>
      </trkpt>
      <trkpt lat="47.51457" lon="-0.34014">
        <ele>67</ele>
        <time>2012-08-20T08:38:08.998Z</time>
      </trkpt>
      <trkpt lat="47.51454" lon="-0.3402">
        <ele>67</ele>
        <time>2012-08-20T08:38:10.998Z</time>
      </trkpt>
      <trkpt lat="47.51452" lon="-0.34026">
        <ele>67</ele>
        <time>2012-08-20T08:38:12.998Z</time>
      </trkpt>
      <trkpt lat="47.5145" lon="-0.34019">
        <ele>67</ele>
        <time>2012-08-20T08:38:21.998Z</time>
      </trkpt>
      <trkpt lat="47.51453" lon="-0.34012">
        <ele>67</ele>
        <time>2012-08-20T08:38:23.998Z</time>
      </trkpt>
      <trkpt lat="47.51453" lon="-0.34005">
        <ele>67</ele>
        <time>2012-08-20T08:38:27.998Z</time>
      </trkpt>
      <trkpt lat="47.51458" lon="-0.34006">
        <ele>66</ele>
        <time>2012-08-20T08:38:36.998Z</time>
      </trkpt>
      <trkpt lat="47.51461" lon="-0.34001">
        <ele>66</ele>
        <time>2012-08-20T08:38:57.998Z</time>
      </trkpt>
      <trkpt lat="47.5146" lon="-0.33994">
        <ele>65</ele>
        <time>2012-08-20T08:39:13.998Z</time>
      </trkpt>
      <trkpt lat="47.51477" lon="-0.34001">
        <ele>66</ele>
        <time>2012-08-20T08:39:24.998Z</time>
      </trkpt>
      <trkpt lat="47.51477" lon="-0.34001">
        <ele>66</ele>
        <time>2012-08-20T08:39:24.998Z</time>
      </trkpt>
      <trkpt lat="47.51477" lon="-0.34001">
        <ele>66</ele>
        <time>2012-08-20T08:39:26.998Z</time>
      </trkpt>
      <trkpt lat="47.51471" lon="-0.34004">
        <ele>66</ele>
        <time>2012-08-20T08:39:45.998Z</time>
      </trkpt>
      <trkpt lat="47.51466" lon="-0.34003">
        <ele>66</ele>
        <time>2012-08-20T08:39:47.998Z</time>
      </trkpt>
      <trkpt lat="47.51465" lon="-0.33996">
        <ele>65</ele>
        <time>2012-08-20T08:39:58.998Z</time>
      </trkpt>
      <trkpt lat="47.51465" lon="-0.33989">
        <ele>65</ele>
        <time>2012-08-20T08:40:04.998Z</time>
      </trkpt>
      <trkpt lat="47.51464" lon="-0.33996">
        <ele>65</ele>
        <time>2012-08-20T08:40:38.998Z</time>
      </trkpt>
      <trkpt lat="47.5146" lon="-0.34">
        <ele>66</ele>
        <time>2012-08-20T08:40:44.998Z</time>
      </trkpt>
      <trkpt lat="47.51456" lon="-0.34002">
        <ele>67</ele>
        <time>2012-08-20T08:41:37.998Z</time>
      </trkpt>
      <trkpt lat="47.51458" lon="-0.33996">
        <ele>66</ele>
        <time>2012-08-20T08:41:56.998Z</time>
      </trkpt>
      <trkpt lat="47.51461" lon="-0.33991">
        <ele>65</ele>
        <time>2012-08-20T08:42:03.998Z</time>
      </trkpt>
      <trkpt lat="47.5146" lon="-0.33984">
        <ele>65</ele>
        <time>2012-08-20T08:42:09.998Z</time>
      </trkpt>
      <trkpt lat="47.51457" lon="-0.33994">
        <ele>66</ele>
        <time>2012-08-20T08:42:17.998Z</time>
      </trkpt>
      <trkpt lat="47.5146" lon="-0.34001">
        <ele>66</ele>
        <time>2012-08-20T08:42:19.998Z</time>
      </trkpt>
      <trkpt lat="47.51464" lon="-0.34006">
        <ele>66</ele>
        <time>2012-08-20T08:42:28.998Z</time>
      </trkpt>
      <trkpt lat="47.51468" lon="-0.34011">
        <ele>66</ele>
        <time>2012-08-20T08:42:36.998Z</time>
      </trkpt>
      <trkpt lat="47.51469" lon="-0.34017">
        <ele>66</ele>
        <time>2012-08-20T08:42:40.998Z</time>
      </trkpt>
      <trkpt lat="47.51469" lon="-0.34024">
        <ele>66</ele>
        <time>2012-08-20T08:42:44.998Z</time>
      </trkpt>
      <trkpt lat="47.51473" lon="-0.34028">
        <ele>66</ele>
        <time>2012-08-20T08:42:51.998Z</time>
      </trkpt>
      <trkpt lat="47.51475" lon="-0.34021">
        <ele>66</ele>
        <time>2012-08-20T08:42:57.998Z</time>
      </trkpt>
      <trkpt lat="47.51474" lon="-0.34014">
        <ele>66</ele>
        <time>2012-08-20T08:43:02.998Z</time>
      </trkpt>
      <trkpt lat="47.51474" lon="-0.34007">
        <ele>66</ele>
        <time>2012-08-20T08:43:06.998Z</time>
      </trkpt>
      <trkpt lat="47.51473" lon="-0.33999">
        <ele>65</ele>
        <time>2012-08-20T08:43:25.998Z</time>
      </trkpt>
      <trkpt lat="47.51476" lon="-0.33993">
        <ele>65</ele>
        <time>2012-08-20T08:43:38.998Z</time>
      </trkpt>
      <trkpt lat="47.51478" lon="-0.33987">
        <ele>65</ele>
        <time>2012-08-20T08:43:41.998Z</time>
      </trkpt>
      <trkpt lat="47.51482" lon="-0.33982">
        <ele>65</ele>
        <time>2012-08-20T08:43:44.998Z</time>
      </trkpt>
      <trkpt lat="47.51478" lon="-0.33988">
        <ele>65</ele>
        <time>2012-08-20T08:44:03.998Z</time>
      </trkpt>
      <trkpt lat="47.51476" lon="-0.33994">
        <ele>65</ele>
        <time>2012-08-20T08:44:14.998Z</time>
      </trkpt>
      <trkpt lat="47.51474" lon="-0.34">
        <ele>66</ele>
        <time>2012-08-20T08:44:55.998Z</time>
      </trkpt>
      <trkpt lat="47.51474" lon="-0.34007">
        <ele>66</ele>
        <time>2012-08-20T08:45:12.998Z</time>
      </trkpt>
      <trkpt lat="47.51468" lon="-0.34005">
        <ele>66</ele>
        <time>2012-08-20T08:45:31.998Z</time>
      </trkpt>
      <trkpt lat="47.51466" lon="-0.33999">
        <ele>65</ele>
        <time>2012-08-20T08:45:35.998Z</time>
      </trkpt>
      <trkpt lat="47.51464" lon="-0.33993">
        <ele>65</ele>
        <time>2012-08-20T08:45:40.998Z</time>
      </trkpt>
      <trkpt lat="47.51465" lon="-0.33986">
        <ele>65</ele>
        <time>2012-08-20T08:45:46.998Z</time>
      </trkpt>
      <trkpt lat="47.51469" lon="-0.33978">
        <ele>65</ele>
        <time>2012-08-20T08:45:48.998Z</time>
      </trkpt>
      <trkpt lat="47.51473" lon="-0.3397">
        <ele>65</ele>
        <time>2012-08-20T08:45:50.998Z</time>
      </trkpt>
      <trkpt lat="47.51478" lon="-0.33962">
        <ele>65</ele>
        <time>2012-08-20T08:45:52.998Z</time>
      </trkpt>
      <trkpt lat="47.51482" lon="-0.33954">
        <ele>65</ele>
        <time>2012-08-20T08:45:54.998Z</time>
      </trkpt>
      <trkpt lat="47.51484" lon="-0.33948">
        <ele>65</ele>
        <time>2012-08-20T08:45:56.998Z</time>
      </trkpt>
      <trkpt lat="47.51486" lon="-0.3394">
        <ele>65</ele>
        <time>2012-08-20T08:45:59.998Z</time>
      </trkpt>
      <trkpt lat="47.51487" lon="-0.33933">
        <ele>64</ele>
        <time>2012-08-20T08:46:04.998Z</time>
      </trkpt>
      <trkpt lat="47.51485" lon="-0.3394">
        <ele>65</ele>
        <time>2012-08-20T08:46:08.998Z</time>
      </trkpt>
      <trkpt lat="47.51483" lon="-0.33947">
        <ele>65</ele>
        <time>2012-08-20T08:46:10.998Z</time>
      </trkpt>
      <trkpt lat="47.51479" lon="-0.33955">
        <ele>65</ele>
        <time>2012-08-20T08:46:12.998Z</time>
      </trkpt>
      <trkpt lat="47.51476" lon="-0.33962">
        <ele>65</ele>
        <time>2012-08-20T08:46:14.998Z</time>
      </trkpt>
      <trkpt lat="47.51473" lon="-0.33969">
        <ele>65</ele>
        <time>2012-08-20T08:46:16.998Z</time>
      </trkpt>
      <trkpt lat="47.51472" lon="-0.33979">
        <ele>65</ele>
        <time>2012-08-20T08:46:19.998Z</time>
      </trkpt>
      <trkpt lat="47.51474" lon="-0.33987">
        <ele>65</ele>
        <time>2012-08-20T08:46:22.998Z</time>
      </trkpt>
      <trkpt lat="47.51474" lon="-0.33994">
        <ele>65</ele>
        <time>2012-08-20T08:46:27.998Z</time>
      </trkpt>
      <trkpt lat="47.51477" lon="-0.33988">
        <ele>65</ele>
        <time>2012-08-20T08:46:45.998Z</time>
      </trkpt>
      <trkpt lat="47.51474" lon="-0.33982">
        <ele>65</ele>
        <time>2012-08-20T08:46:57.998Z</time>
      </trkpt>
      <trkpt lat="47.51468" lon="-0.33988">
        <ele>65</ele>
        <time>2012-08-20T08:47:08.998Z</time>
      </trkpt>
      <trkpt lat="47.51464" lon="-0.33992">
        <ele>65</ele>
        <time>2012-08-20T08:47:11.998Z</time>
      </trkpt>
      <trkpt lat="47.51463" lon="-0.33999">
        <ele>65</ele>
        <time>2012-08-20T08:47:18.998Z</time>
      </trkpt>
      <trkpt lat="47.51461" lon="-0.33992">
        <ele>65</ele>
        <time>2012-08-20T08:47:55.998Z</time>
      </trkpt>
      <trkpt lat="47.51462" lon="-0.33985">
        <ele>65</ele>
        <time>2012-08-20T08:48:00.998Z</time>
      </trkpt>
      <trkpt lat="47.5146" lon="-0.33979">
        <ele>65</ele>
        <time>2012-08-20T08:48:05.998Z</time>
      </trkpt>
      <trkpt lat="47.51469" lon="-0.34001">
        <ele>66</ele>
        <time>2012-08-20T08:48:14.998Z</time>
      </trkpt>
      <trkpt lat="47.51472" lon="-0.34008">
        <ele>66</ele>
        <time>2012-08-20T08:48:16.998Z</time>
      </trkpt>
      <trkpt lat="47.51469" lon="-0.34001">
        <ele>66</ele>
        <time>2012-08-20T08:48:22.998Z</time>
      </trkpt>
      <trkpt lat="47.51473" lon="-0.33998">
        <ele>65</ele>
        <time>2012-08-20T08:48:37.998Z</time>
      </trkpt>
      <trkpt lat="47.51478" lon="-0.34002">
        <ele>66</ele>
        <time>2012-08-20T08:48:59.998Z</time>
      </trkpt>
      <trkpt lat="47.51477" lon="-0.34008">
        <ele>66</ele>
        <time>2012-08-20T08:49:02.998Z</time>
      </trkpt>
      <trkpt lat="47.51477" lon="-0.34016">
        <ele>66</ele>
        <time>2012-08-20T08:49:06.998Z</time>
      </trkpt>
      <trkpt lat="47.51474" lon="-0.34024">
        <ele>66</ele>
        <time>2012-08-20T08:49:10.998Z</time>
      </trkpt>
      <trkpt lat="47.51472" lon="-0.34029">
        <ele>66</ele>
        <time>2012-08-20T08:49:14.998Z</time>
      </trkpt>
      <trkpt lat="47.51467" lon="-0.34024">
        <ele>66</ele>
        <time>2012-08-20T08:49:25.998Z</time>
      </trkpt>
      <trkpt lat="47.51467" lon="-0.34015">
        <ele>66</ele>
        <time>2012-08-20T08:49:29.998Z</time>
      </trkpt>
      <trkpt lat="47.51467" lon="-0.34008">
        <ele>66</ele>
        <time>2012-08-20T08:49:39.998Z</time>
      </trkpt>
      <trkpt lat="47.5147" lon="-0.34001">
        <ele>66</ele>
        <time>2012-08-20T08:49:43.998Z</time>
      </trkpt>
      <trkpt lat="47.51474" lon="-0.33998">
        <ele>65</ele>
        <time>2012-08-20T08:49:46.998Z</time>
      </trkpt>
      <trkpt lat="47.51476" lon="-0.34005">
        <ele>66</ele>
        <time>2012-08-20T08:49:52.998Z</time>
      </trkpt>
      <trkpt lat="47.51474" lon="-0.34013">
        <ele>66</ele>
        <time>2012-08-20T08:49:56.998Z</time>
      </trkpt>
      <trkpt lat="47.51468" lon="-0.34014">
        <ele>66</ele>
        <time>2012-08-20T08:49:59.998Z</time>
      </trkpt>
      <trkpt lat="47.51463" lon="-0.34015">
        <ele>66</ele>
        <time>2012-08-20T08:50:02.998Z</time>
      </trkpt>
      <trkpt lat="47.5146" lon="-0.3401">
        <ele>66</ele>
        <time>2012-08-20T08:50:05.998Z</time>
      </trkpt>
      <trkpt lat="47.51459" lon="-0.34003">
        <ele>66</ele>
        <time>2012-08-20T08:50:14.998Z</time>
      </trkpt>
      <trkpt lat="47.5146" lon="-0.33995">
        <ele>65</ele>
        <time>2012-08-20T08:50:23.998Z</time>
      </trkpt>
      <trkpt lat="47.51464" lon="-0.3399">
        <ele>65</ele>
        <time>2012-08-20T08:50:26.998Z</time>
      </trkpt>
      <trkpt lat="47.51468" lon="-0.33985">
        <ele>65</ele>
        <time>2012-08-20T08:50:30.998Z</time>
      </trkpt>
      <trkpt lat="47.51469" lon="-0.33992">
        <ele>65</ele>
        <time>2012-08-20T08:50:33.998Z</time>
      </trkpt>
      <trkpt lat="47.51474" lon="-0.33998">
        <ele>65</ele>
        <time>2012-08-20T08:50:36.998Z</time>
      </trkpt>
      <trkpt lat="47.51478" lon="-0.34003">
        <ele>66</ele>
        <time>2012-08-20T08:50:39.998Z</time>
      </trkpt>
      <trkpt lat="47.51482" lon="-0.34007">
        <ele>66</ele>
        <time>2012-08-20T08:50:42.998Z</time>
      </trkpt>
      <trkpt lat="47.51486" lon="-0.34011">
        <ele>66</ele>
        <time>2012-08-20T08:50:45.998Z</time>
      </trkpt>
      <trkpt lat="47.51486" lon="-0.34011">
        <ele>66</ele>
        <time>2012-08-20T08:50:45.998Z</time>
      </trkpt>
      <trkpt lat="47.51486" lon="-0.34011">
        <ele>66</ele>
        <time>2012-08-20T08:50:46.998Z</time>
      </trkpt>
      <trkpt lat="47.51486" lon="-0.34003">
        <ele>66</ele>
        <time>2012-08-20T08:50:47.998Z</time>
      </trkpt>
      <trkpt lat="47.51483" lon="-0.33992">
        <ele>65</ele>
        <time>2012-08-20T08:50:50.998Z</time>
      </trkpt>
      <trkpt lat="47.51478" lon="-0.33989">
        <ele>65</ele>
        <time>2012-08-20T08:50:52.998Z</time>
      </trkpt>
      <trkpt lat="47.51473" lon="-0.33987">
        <ele>65</ele>
        <time>2012-08-20T08:50:54.998Z</time>
      </trkpt>
      <trkpt lat="47.51468" lon="-0.33985">
        <ele>65</ele>
        <time>2012-08-20T08:50:57.998Z</time>
      </trkpt>
      <trkpt lat="47.51467" lon="-0.33977">
        <ele>65</ele>
        <time>2012-08-20T08:51:03.998Z</time>
      </trkpt>
      <trkpt lat="47.51461" lon="-0.33979">
        <ele>65</ele>
        <time>2012-08-20T08:51:10.998Z</time>
      </trkpt>
      <trkpt lat="47.51457" lon="-0.33983">
        <ele>65</ele>
        <time>2012-08-20T08:51:13.998Z</time>
      </trkpt>
      <trkpt lat="47.51458" lon="-0.33992">
        <ele>66</ele>
        <time>2012-08-20T08:51:16.998Z</time>
      </trkpt>
      <trkpt lat="47.51452" lon="-0.33989">
        <ele>66</ele>
        <time>2012-08-20T08:51:19.998Z</time>
      </trkpt>
      <trkpt lat="47.51443" lon="-0.3398">
        <ele>66</ele>
        <time>2012-08-20T08:51:25.998Z</time>
      </trkpt>
      <trkpt lat="47.51445" lon="-0.33974">
        <ele>66</ele>
        <time>2012-08-20T08:51:27.998Z</time>
      </trkpt>
      <trkpt lat="47.51448" lon="-0.33967">
        <ele>65</ele>
        <time>2012-08-20T08:51:30.998Z</time>
      </trkpt>
      <trkpt lat="47.51452" lon="-0.33962">
        <ele>65</ele>
        <time>2012-08-20T08:51:32.998Z</time>
      </trkpt>
      <trkpt lat="47.51453" lon="-0.33971">
        <ele>65</ele>
        <time>2012-08-20T08:51:51.998Z</time>
      </trkpt>
      <trkpt lat="47.51451" lon="-0.33977">
        <ele>66</ele>
        <time>2012-08-20T08:51:53.998Z</time>
      </trkpt>
      <trkpt lat="47.51455" lon="-0.3398">
        <ele>65</ele>
        <time>2012-08-20T08:52:07.998Z</time>
      </trkpt>
      <trkpt lat="47.51457" lon="-0.33987">
        <ele>66</ele>
        <time>2012-08-20T08:52:21.998Z</time>
      </trkpt>
      <trkpt lat="47.51454" lon="-0.33994">
        <ele>66</ele>
        <time>2012-08-20T08:52:26.998Z</time>
      </trkpt>
      <trkpt lat="47.5145" lon="-0.34002">
        <ele>67</ele>
        <time>2012-08-20T08:52:29.998Z</time>
      </trkpt>
      <trkpt lat="47.51448" lon="-0.3401">
        <ele>67</ele>
        <time>2012-08-20T08:52:32.998Z</time>
      </trkpt>
      <trkpt lat="47.51444" lon="-0.34016">
        <ele>67</ele>
        <time>2012-08-20T08:52:36.998Z</time>
      </trkpt>
      <trkpt lat="47.51448" lon="-0.34015">
        <ele>67</ele>
        <time>2012-08-20T08:52:50.998Z</time>
      </trkpt>
      <trkpt lat="47.51454" lon="-0.34011">
        <ele>67</ele>
        <time>2012-08-20T08:52:53.998Z</time>
      </trkpt>
      <trkpt lat="47.51456" lon="-0.34005">
        <ele>67</ele>
        <time>2012-08-20T08:52:55.998Z</time>
      </trkpt>
      <trkpt lat="47.51461" lon="-0.34">
        <ele>66</ele>
        <time>2012-08-20T08:52:57.998Z</time>
      </trkpt>
      <trkpt lat="47.51466" lon="-0.33994">
        <ele>65</ele>
        <time>2012-08-20T08:52:59.998Z</time>
      </trkpt>
      <trkpt lat="47.51469" lon="-0.33987">
        <ele>65</ele>
        <time>2012-08-20T08:53:03.998Z</time>
      </trkpt>
      <trkpt lat="47.51468" lon="-0.33974">
        <ele>65</ele>
        <time>2012-08-20T08:53:10.998Z</time>
      </trkpt>
      <trkpt lat="47.51471" lon="-0.33968">
        <ele>65</ele>
        <time>2012-08-20T08:53:12.998Z</time>
      </trkpt>
      <trkpt lat="47.51475" lon="-0.33959">
        <ele>65</ele>
        <time>2012-08-20T08:53:15.998Z</time>
      </trkpt>
      <trkpt lat="47.51477" lon="-0.3395">
        <ele>65</ele>
        <time>2012-08-20T08:53:17.998Z</time>
      </trkpt>
      <trkpt lat="47.51472" lon="-0.33946">
        <ele>65</ele>
        <time>2012-08-20T08:53:27.998Z</time>
      </trkpt>
      <trkpt lat="47.51469" lon="-0.3394">
        <ele>65</ele>
        <time>2012-08-20T08:53:40.998Z</time>
      </trkpt>
      <trkpt lat="47.51464" lon="-0.33934">
        <ele>65</ele>
        <time>2012-08-20T08:53:43.998Z</time>
      </trkpt>
      <trkpt lat="47.51458" lon="-0.3393">
        <ele>65</ele>
        <time>2012-08-20T08:53:45.998Z</time>
      </trkpt>
      <trkpt lat="47.51478" lon="-0.33898">
        <ele>65</ele>
        <time>2012-08-20T08:54:06.998Z</time>
      </trkpt>
      <trkpt lat="47.51484" lon="-0.33895">
        <ele>65</ele>
        <time>2012-08-20T08:54:08.998Z</time>
      </trkpt>
      <trkpt lat="47.5149" lon="-0.33903">
        <ele>65</ele>
        <time>2012-08-20T08:54:10.998Z</time>
      </trkpt>
      <trkpt lat="47.51495" lon="-0.33904">
        <ele>64</ele>
        <time>2012-08-20T08:54:12.998Z</time>
      </trkpt>
      <trkpt lat="47.51501" lon="-0.33904">
        <ele>64</ele>
        <time>2012-08-20T08:54:15.998Z</time>
      </trkpt>
      <trkpt lat="47.51507" lon="-0.33901">
        <ele>64</ele>
        <time>2012-08-20T08:54:20.998Z</time>
      </trkpt>
      <trkpt lat="47.51512" lon="-0.33897">
        <ele>64</ele>
        <time>2012-08-20T08:54:22.998Z</time>
      </trkpt>
      <trkpt lat="47.51516" lon="-0.33894">
        <ele>65</ele>
        <time>2012-08-20T08:54:24.998Z</time>
      </trkpt>
      <trkpt lat="47.51521" lon="-0.33891">
        <ele>65</ele>
        <time>2012-08-20T08:54:26.998Z</time>
      </trkpt>
      <trkpt lat="47.51522" lon="-0.33884">
        <ele>65</ele>
        <time>2012-08-20T08:54:28.998Z</time>
      </trkpt>
      <trkpt lat="47.51522" lon="-0.33872">
        <ele>65</ele>
        <time>2012-08-20T08:54:30.998Z</time>
      </trkpt>
      <trkpt lat="47.51521" lon="-0.33862">
        <ele>65</ele>
        <time>2012-08-20T08:54:32.998Z</time>
      </trkpt>
      <trkpt lat="47.51521" lon="-0.33854">
        <ele>66</ele>
        <time>2012-08-20T08:54:34.998Z</time>
      </trkpt>
      <trkpt lat="47.51523" lon="-0.33848">
        <ele>66</ele>
        <time>2012-08-20T08:54:38.998Z</time>
      </trkpt>
      <trkpt lat="47.51528" lon="-0.33844">
        <ele>66</ele>
        <time>2012-08-20T08:54:42.998Z</time>
      </trkpt>
      <trkpt lat="47.51529" lon="-0.33838">
        <ele>66</ele>
        <time>2012-08-20T08:54:50.998Z</time>
      </trkpt>
      <trkpt lat="47.5153" lon="-0.33846">
        <ele>66</ele>
        <time>2012-08-20T08:54:54.998Z</time>
      </trkpt>
      <trkpt lat="47.5153" lon="-0.33853">
        <ele>66</ele>
        <time>2012-08-20T08:54:58.998Z</time>
      </trkpt>
      <trkpt lat="47.51533" lon="-0.33846">
        <ele>66</ele>
        <time>2012-08-20T08:55:18.998Z</time>
      </trkpt>
      <trkpt lat="47.51533" lon="-0.33839">
        <ele>66</ele>
        <time>2012-08-20T08:55:21.998Z</time>
      </trkpt>
      <trkpt lat="47.51536" lon="-0.33832">
        <ele>66</ele>
        <time>2012-08-20T08:55:35.998Z</time>
      </trkpt>
      <trkpt lat="47.51539" lon="-0.33826">
        <ele>66</ele>
        <time>2012-08-20T08:55:38.998Z</time>
      </trkpt>
      <trkpt lat="47.51543" lon="-0.3382">
        <ele>66</ele>
        <time>2012-08-20T08:55:41.998Z</time>
      </trkpt>
      <trkpt lat="47.51543" lon="-0.33812">
        <ele>66</ele>
        <time>2012-08-20T08:55:43.998Z</time>
      </trkpt>
      <trkpt lat="47.51543" lon="-0.33803">
        <ele>66</ele>
        <time>2012-08-20T08:55:45.998Z</time>
      </trkpt>
      <trkpt lat="47.51542" lon="-0.33794">
        <ele>66</ele>
        <time>2012-08-20T08:55:47.998Z</time>
      </trkpt>
      <trkpt lat="47.51542" lon="-0.33785">
        <ele>66</ele>
        <time>2012-08-20T08:55:49.998Z</time>
      </trkpt>
      <trkpt lat="47.51542" lon="-0.33775">
        <ele>66</ele>
        <time>2012-08-20T08:55:51.998Z</time>
      </trkpt>
      <trkpt lat="47.51542" lon="-0.33766">
        <ele>66</ele>
        <time>2012-08-20T08:55:53.998Z</time>
      </trkpt>
      <trkpt lat="47.51543" lon="-0.33757">
        <ele>66</ele>
        <time>2012-08-20T08:55:56.998Z</time>
      </trkpt>
      <trkpt lat="47.51539" lon="-0.33752">
        <ele>66</ele>
        <time>2012-08-20T08:56:00.998Z</time>
      </trkpt>
      <trkpt lat="47.51534" lon="-0.33747">
        <ele>66</ele>
        <time>2012-08-20T08:56:05.998Z</time>
      </trkpt>
      <trkpt lat="47.5153" lon="-0.33745">
        <ele>66</ele>
        <time>2012-08-20T08:56:09.998Z</time>
      </trkpt>
      <trkpt lat="47.51524" lon="-0.33745">
        <ele>67</ele>
        <time>2012-08-20T08:56:14.998Z</time>
      </trkpt>
      <trkpt lat="47.51519" lon="-0.33743">
        <ele>67</ele>
        <time>2012-08-20T08:56:19.998Z</time>
      </trkpt>
      <trkpt lat="47.51513" lon="-0.33746">
        <ele>67</ele>
        <time>2012-08-20T08:56:22.998Z</time>
      </trkpt>
      <trkpt lat="47.51509" lon="-0.33752">
        <ele>68</ele>
        <time>2012-08-20T08:56:23.998Z</time>
      </trkpt>
      <trkpt lat="47.51506" lon="-0.33758">
        <ele>68</ele>
        <time>2012-08-20T08:56:24.998Z</time>
      </trkpt>
      <trkpt lat="47.51502" lon="-0.33764">
        <ele>68</ele>
        <time>2012-08-20T08:56:25.998Z</time>
      </trkpt>
      <trkpt lat="47.51499" lon="-0.3377">
        <ele>69</ele>
        <time>2012-08-20T08:56:26.998Z</time>
      </trkpt>
      <trkpt lat="47.51495" lon="-0.33776">
        <ele>69</ele>
        <time>2012-08-20T08:56:27.998Z</time>
      </trkpt>
      <trkpt lat="47.51492" lon="-0.33782">
        <ele>69</ele>
        <time>2012-08-20T08:56:28.998Z</time>
      </trkpt>
      <trkpt lat="47.51488" lon="-0.33787">
        <ele>69</ele>
        <time>2012-08-20T08:56:29.998Z</time>
      </trkpt>
      <trkpt lat="47.51482" lon="-0.33796">
        <ele>69</ele>
        <time>2012-08-20T08:56:31.998Z</time>
      </trkpt>
      <trkpt lat="47.51476" lon="-0.33802">
        <ele>69</ele>
        <time>2012-08-20T08:56:33.998Z</time>
      </trkpt>
      <trkpt lat="47.51471" lon="-0.33805">
        <ele>69</ele>
        <time>2012-08-20T08:56:36.998Z</time>
      </trkpt>
      <trkpt lat="47.51472" lon="-0.33798">
        <ele>69</ele>
        <time>2012-08-20T08:56:41.998Z</time>
      </trkpt>
      <trkpt lat="47.51475" lon="-0.3379">
        <ele>69</ele>
        <time>2012-08-20T08:56:44.998Z</time>
      </trkpt>
      <trkpt lat="47.51479" lon="-0.33768">
        <ele>69</ele>
        <time>2012-08-20T08:56:50.998Z</time>
      </trkpt>
      <trkpt lat="47.51479" lon="-0.33768">
        <ele>69</ele>
        <time>2012-08-20T08:56:50.998Z</time>
      </trkpt>
      <trkpt lat="47.51479" lon="-0.33768">
        <ele>69</ele>
        <time>2012-08-20T08:56:55.998Z</time>
      </trkpt>
      <trkpt lat="47.51474" lon="-0.33756">
        <ele>69</ele>
        <time>2012-08-20T08:56:56.998Z</time>
      </trkpt>
      <trkpt lat="47.51474" lon="-0.33756">
        <ele>69</ele>
        <time>2012-08-20T08:56:56.998Z</time>
      </trkpt>
      <trkpt lat="47.51474" lon="-0.33756">
        <ele>69</ele>
        <time>2012-08-20T08:57:16.998Z</time>
      </trkpt>
      <trkpt lat="47.51467" lon="-0.33748">
        <ele>69</ele>
        <time>2012-08-20T08:57:17.998Z</time>
      </trkpt>
      <trkpt lat="47.51467" lon="-0.33748">
        <ele>69</ele>
        <time>2012-08-20T08:57:17.998Z</time>
      </trkpt>
      <trkpt lat="47.51467" lon="-0.33748">
        <ele>69</ele>
        <time>2012-08-20T08:57:20.998Z</time>
      </trkpt>
      <trkpt lat="47.51462" lon="-0.33732">
        <ele>69</ele>
        <time>2012-08-20T08:57:21.998Z</time>
      </trkpt>
      <trkpt lat="47.51462" lon="-0.33732">
        <ele>69</ele>
        <time>2012-08-20T08:57:21.998Z</time>
      </trkpt>
      <trkpt lat="47.51462" lon="-0.33732">
        <ele>69</ele>
        <time>2012-08-20T08:57:25.998Z</time>
      </trkpt>
      <trkpt lat="47.51457" lon="-0.33719">
        <ele>69</ele>
        <time>2012-08-20T08:57:26.998Z</time>
      </trkpt>
      <trkpt lat="47.51457" lon="-0.33719">
        <ele>69</ele>
        <time>2012-08-20T08:57:26.998Z</time>
      </trkpt>
      <trkpt lat="47.51457" lon="-0.33719">
        <ele>69</ele>
        <time>2012-08-20T08:57:36.998Z</time>
      </trkpt>
      <trkpt lat="47.51452" lon="-0.33708">
        <ele>69</ele>
        <time>2012-08-20T08:57:37.998Z</time>
      </trkpt>
      <trkpt lat="47.51452" lon="-0.33708">
        <ele>69</ele>
        <time>2012-08-20T08:57:37.998Z</time>
      </trkpt>
      <trkpt lat="47.51452" lon="-0.33708">
        <ele>69</ele>
        <time>2012-08-20T08:57:47.998Z</time>
      </trkpt>
      <trkpt lat="47.51447" lon="-0.33695">
        <ele>69</ele>
        <time>2012-08-20T08:57:48.998Z</time>
      </trkpt>
      <trkpt lat="47.51447" lon="-0.33695">
        <ele>69</ele>
        <time>2012-08-20T08:57:48.998Z</time>
      </trkpt>
      <trkpt lat="47.51447" lon="-0.33695">
        <ele>69</ele>
        <time>2012-08-20T08:57:55.998Z</time>
      </trkpt>
      <trkpt lat="47.51438" lon="-0.33699">
        <ele>69</ele>
        <time>2012-08-20T08:57:56.998Z</time>
      </trkpt>
      <trkpt lat="47.51438" lon="-0.33699">
        <ele>69</ele>
        <time>2012-08-20T08:57:56.998Z</time>
      </trkpt>
      <trkpt lat="47.51438" lon="-0.33699">
        <ele>69</ele>
        <time>2012-08-20T08:58:03.998Z</time>
      </trkpt>
      <trkpt lat="47.51431" lon="-0.33711">
        <ele>69</ele>
        <time>2012-08-20T08:58:04.998Z</time>
      </trkpt>
      <trkpt lat="47.51431" lon="-0.33711">
        <ele>69</ele>
        <time>2012-08-20T08:58:04.998Z</time>
      </trkpt>
      <trkpt lat="47.51431" lon="-0.33711">
        <ele>69</ele>
        <time>2012-08-20T08:58:09.998Z</time>
      </trkpt>
      <trkpt lat="47.51422" lon="-0.33715">
        <ele>69</ele>
        <time>2012-08-20T08:58:10.998Z</time>
      </trkpt>
      <trkpt lat="47.51422" lon="-0.33715">
        <ele>69</ele>
        <time>2012-08-20T08:58:10.998Z</time>
      </trkpt>
      <trkpt lat="47.51422" lon="-0.33715">
        <ele>69</ele>
        <time>2012-08-20T08:58:52.998Z</time>
      </trkpt>
      <trkpt lat="47.51413" lon="-0.33713">
        <ele>69</ele>
        <time>2012-08-20T08:58:53.998Z</time>
      </trkpt>
      <trkpt lat="47.51413" lon="-0.33713">
        <ele>69</ele>
        <time>2012-08-20T08:58:53.998Z</time>
      </trkpt>
      <trkpt lat="47.51413" lon="-0.33713">
        <ele>69</ele>
        <time>2012-08-20T08:59:02.998Z</time>
      </trkpt>
      <trkpt lat="47.51403" lon="-0.33715">
        <ele>69</ele>
        <time>2012-08-20T08:59:03.998Z</time>
      </trkpt>
      <trkpt lat="47.51403" lon="-0.33715">
        <ele>69</ele>
        <time>2012-08-20T08:59:03.998Z</time>
      </trkpt>
      <trkpt lat="47.51403" lon="-0.33715">
        <ele>69</ele>
        <time>2012-08-20T08:59:15.998Z</time>
      </trkpt>
      <trkpt lat="47.51394" lon="-0.33715">
        <ele>69</ele>
        <time>2012-08-20T08:59:16.998Z</time>
      </trkpt>
      <trkpt lat="47.51394" lon="-0.33715">
        <ele>69</ele>
        <time>2012-08-20T08:59:16.998Z</time>
      </trkpt>
      <trkpt lat="47.51394" lon="-0.33715">
        <ele>69</ele>
        <time>2012-08-20T08:59:50.998Z</time>
      </trkpt>
      <trkpt lat="47.51384" lon="-0.33718">
        <ele>69</ele>
        <time>2012-08-20T08:59:51.998Z</time>
      </trkpt>
      <trkpt lat="47.51384" lon="-0.33718">
        <ele>69</ele>
        <time>2012-08-20T08:59:51.998Z</time>
      </trkpt>
      <trkpt lat="47.51384" lon="-0.33718">
        <ele>69</ele>
        <time>2012-08-20T08:59:54.998Z</time>
      </trkpt>
      <trkpt lat="47.51374" lon="-0.33721">
        <ele>68</ele>
        <time>2012-08-20T08:59:55.998Z</time>
      </trkpt>
      <trkpt lat="47.51374" lon="-0.33721">
        <ele>68</ele>
        <time>2012-08-20T08:59:55.998Z</time>
      </trkpt>
      <trkpt lat="47.51374" lon="-0.33721">
        <ele>68</ele>
        <time>2012-08-20T08:59:57.998Z</time>
      </trkpt>
      <trkpt lat="47.51364" lon="-0.3372">
        <ele>68</ele>
        <time>2012-08-20T08:59:58.998Z</time>
      </trkpt>
      <trkpt lat="47.51364" lon="-0.3372">
        <ele>68</ele>
        <time>2012-08-20T08:59:58.998Z</time>
      </trkpt>
      <trkpt lat="47.51364" lon="-0.3372">
        <ele>68</ele>
        <time>2012-08-20T09:00:03.998Z</time>
      </trkpt>
      <trkpt lat="47.51355" lon="-0.3372">
        <ele>68</ele>
        <time>2012-08-20T09:00:04.998Z</time>
      </trkpt>
      <trkpt lat="47.51355" lon="-0.3372">
        <ele>68</ele>
        <time>2012-08-20T09:00:04.998Z</time>
      </trkpt>
      <trkpt lat="47.51355" lon="-0.3372">
        <ele>68</ele>
        <time>2012-08-20T09:00:21.998Z</time>
      </trkpt>
      <trkpt lat="47.51347" lon="-0.33712">
        <ele>68</ele>
        <time>2012-08-20T09:00:22.998Z</time>
      </trkpt>
      <trkpt lat="47.51347" lon="-0.33712">
        <ele>68</ele>
        <time>2012-08-20T09:00:22.998Z</time>
      </trkpt>
      <trkpt lat="47.51347" lon="-0.33712">
        <ele>68</ele>
        <time>2012-08-20T09:00:28.998Z</time>
      </trkpt>
      <trkpt lat="47.51342" lon="-0.33701">
        <ele>68</ele>
        <time>2012-08-20T09:00:29.998Z</time>
      </trkpt>
      <trkpt lat="47.51342" lon="-0.33701">
        <ele>68</ele>
        <time>2012-08-20T09:00:29.998Z</time>
      </trkpt>
      <trkpt lat="47.51342" lon="-0.33701">
        <ele>68</ele>
        <time>2012-08-20T09:00:36.998Z</time>
      </trkpt>
      <trkpt lat="47.51334" lon="-0.33693">
        <ele>67</ele>
        <time>2012-08-20T09:00:37.998Z</time>
      </trkpt>
      <trkpt lat="47.51334" lon="-0.33693">
        <ele>67</ele>
        <time>2012-08-20T09:00:37.998Z</time>
      </trkpt>
      <trkpt lat="47.51334" lon="-0.33693">
        <ele>67</ele>
        <time>2012-08-20T09:00:39.998Z</time>
      </trkpt>
      <trkpt lat="47.51329" lon="-0.33678">
        <ele>67</ele>
        <time>2012-08-20T09:00:40.998Z</time>
      </trkpt>
      <trkpt lat="47.51329" lon="-0.33678">
        <ele>67</ele>
        <time>2012-08-20T09:00:40.998Z</time>
      </trkpt>
      <trkpt lat="47.51329" lon="-0.33678">
        <ele>67</ele>
        <time>2012-08-20T09:00:41.998Z</time>
      </trkpt>
      <trkpt lat="47.51322" lon="-0.33666">
        <ele>67</ele>
        <time>2012-08-20T09:00:42.998Z</time>
      </trkpt>
      <trkpt lat="47.51322" lon="-0.33666">
        <ele>67</ele>
        <time>2012-08-20T09:00:42.998Z</time>
      </trkpt>
      <trkpt lat="47.51322" lon="-0.33666">
        <ele>67</ele>
        <time>2012-08-20T09:00:43.998Z</time>
      </trkpt>
      <trkpt lat="47.51313" lon="-0.33658">
        <ele>67</ele>
        <time>2012-08-20T09:00:44.998Z</time>
      </trkpt>
      <trkpt lat="47.51313" lon="-0.33658">
        <ele>67</ele>
        <time>2012-08-20T09:00:44.998Z</time>
      </trkpt>
      <trkpt lat="47.51313" lon="-0.33658">
        <ele>67</ele>
        <time>2012-08-20T09:00:45.998Z</time>
      </trkpt>
      <trkpt lat="47.51302" lon="-0.33655">
        <ele>67</ele>
        <time>2012-08-20T09:00:46.998Z</time>
      </trkpt>
      <trkpt lat="47.51302" lon="-0.33655">
        <ele>67</ele>
        <time>2012-08-20T09:00:46.998Z</time>
      </trkpt>
      <trkpt lat="47.51302" lon="-0.33655">
        <ele>67</ele>
        <time>2012-08-20T09:00:51.998Z</time>
      </trkpt>
      <trkpt lat="47.51293" lon="-0.33653">
        <ele>67</ele>
        <time>2012-08-20T09:00:52.998Z</time>
      </trkpt>
      <trkpt lat="47.51293" lon="-0.33653">
        <ele>67</ele>
        <time>2012-08-20T09:00:52.998Z</time>
      </trkpt>
      <trkpt lat="47.51293" lon="-0.33653">
        <ele>67</ele>
        <time>2012-08-20T09:01:13.998Z</time>
      </trkpt>
      <trkpt lat="47.51284" lon="-0.33647">
        <ele>68</ele>
        <time>2012-08-20T09:01:14.998Z</time>
      </trkpt>
      <trkpt lat="47.51284" lon="-0.33647">
        <ele>68</ele>
        <time>2012-08-20T09:01:14.998Z</time>
      </trkpt>
      <trkpt lat="47.51284" lon="-0.33647">
        <ele>68</ele>
        <time>2012-08-20T09:01:17.998Z</time>
      </trkpt>
      <trkpt lat="47.51275" lon="-0.33638">
        <ele>68</ele>
        <time>2012-08-20T09:01:18.998Z</time>
      </trkpt>
      <trkpt lat="47.51275" lon="-0.33638">
        <ele>68</ele>
        <time>2012-08-20T09:01:18.998Z</time>
      </trkpt>
      <trkpt lat="47.51275" lon="-0.33638">
        <ele>68</ele>
        <time>2012-08-20T09:01:22.998Z</time>
      </trkpt>
      <trkpt lat="47.51267" lon="-0.33632">
        <ele>68</ele>
        <time>2012-08-20T09:01:23.998Z</time>
      </trkpt>
      <trkpt lat="47.51267" lon="-0.33632">
        <ele>68</ele>
        <time>2012-08-20T09:01:23.998Z</time>
      </trkpt>
      <trkpt lat="47.51267" lon="-0.33632">
        <ele>68</ele>
        <time>2012-08-20T09:01:25.998Z</time>
      </trkpt>
      <trkpt lat="47.51258" lon="-0.33634">
        <ele>68</ele>
        <time>2012-08-20T09:01:26.998Z</time>
      </trkpt>
      <trkpt lat="47.51258" lon="-0.33634">
        <ele>68</ele>
        <time>2012-08-20T09:01:26.998Z</time>
      </trkpt>
      <trkpt lat="47.51258" lon="-0.33634">
        <ele>68</ele>
        <time>2012-08-20T09:01:28.998Z</time>
      </trkpt>
      <trkpt lat="47.51249" lon="-0.33632">
        <ele>68</ele>
        <time>2012-08-20T09:01:29.998Z</time>
      </trkpt>
      <trkpt lat="47.51249" lon="-0.33632">
        <ele>68</ele>
        <time>2012-08-20T09:01:29.998Z</time>
      </trkpt>
      <trkpt lat="47.51249" lon="-0.33632">
        <ele>68</ele>
        <time>2012-08-20T09:01:32.998Z</time>
      </trkpt>
      <trkpt lat="47.51238" lon="-0.33629">
        <ele>68</ele>
        <time>2012-08-20T09:01:33.998Z</time>
      </trkpt>
      <trkpt lat="47.51238" lon="-0.33629">
        <ele>68</ele>
        <time>2012-08-20T09:01:33.998Z</time>
      </trkpt>
      <trkpt lat="47.51238" lon="-0.33629">
        <ele>68</ele>
        <time>2012-08-20T09:01:38.998Z</time>
      </trkpt>
      <trkpt lat="47.51229" lon="-0.33626">
        <ele>68</ele>
        <time>2012-08-20T09:01:39.998Z</time>
      </trkpt>
      <trkpt lat="47.51224" lon="-0.33626">
        <ele>68</ele>
        <time>2012-08-20T09:01:43.998Z</time>
      </trkpt>
      <trkpt lat="47.51219" lon="-0.33625">
        <ele>68</ele>
        <time>2012-08-20T09:01:47.998Z</time>
      </trkpt>
      <trkpt lat="47.51215" lon="-0.33621">
        <ele>68</ele>
        <time>2012-08-20T09:01:51.998Z</time>
      </trkpt>
      <trkpt lat="47.51212" lon="-0.33615">
        <ele>68</ele>
        <time>2012-08-20T09:02:00.998Z</time>
      </trkpt>
      <trkpt lat="47.51208" lon="-0.3361">
        <ele>68</ele>
        <time>2012-08-20T09:02:04.998Z</time>
      </trkpt>
      <trkpt lat="47.51203" lon="-0.33603">
        <ele>68</ele>
        <time>2012-08-20T09:02:07.998Z</time>
      </trkpt>
      <trkpt lat="47.512" lon="-0.33598">
        <ele>68</ele>
        <time>2012-08-20T09:02:09.998Z</time>
      </trkpt>
      <trkpt lat="47.51197" lon="-0.33592">
        <ele>68</ele>
        <time>2012-08-20T09:02:11.998Z</time>
      </trkpt>
      <trkpt lat="47.51192" lon="-0.33585">
        <ele>68</ele>
        <time>2012-08-20T09:02:14.998Z</time>
      </trkpt>
      <trkpt lat="47.51188" lon="-0.33577">
        <ele>67</ele>
        <time>2012-08-20T09:02:17.998Z</time>
      </trkpt>
      <trkpt lat="47.51185" lon="-0.33572">
        <ele>67</ele>
        <time>2012-08-20T09:02:19.998Z</time>
      </trkpt>
      <trkpt lat="47.51181" lon="-0.33565">
        <ele>67</ele>
        <time>2012-08-20T09:02:22.998Z</time>
      </trkpt>
      <trkpt lat="47.5118" lon="-0.33557">
        <ele>67</ele>
        <time>2012-08-20T09:02:25.998Z</time>
      </trkpt>
      <trkpt lat="47.51178" lon="-0.33549">
        <ele>67</ele>
        <time>2012-08-20T09:02:29.998Z</time>
      </trkpt>
      <trkpt lat="47.51177" lon="-0.33542">
        <ele>67</ele>
        <time>2012-08-20T09:02:33.998Z</time>
      </trkpt>
      <trkpt lat="47.51173" lon="-0.33536">
        <ele>67</ele>
        <time>2012-08-20T09:02:39.998Z</time>
      </trkpt>
      <trkpt lat="47.51169" lon="-0.33532">
        <ele>66</ele>
        <time>2012-08-20T09:02:43.998Z</time>
      </trkpt>
      <trkpt lat="47.51167" lon="-0.33526">
        <ele>66</ele>
        <time>2012-08-20T09:02:48.998Z</time>
      </trkpt>
      <trkpt lat="47.51165" lon="-0.33519">
        <ele>65</ele>
        <time>2012-08-20T09:02:52.998Z</time>
      </trkpt>
      <trkpt lat="47.51163" lon="-0.33512">
        <ele>65</ele>
        <time>2012-08-20T09:02:55.998Z</time>
      </trkpt>
      <trkpt lat="47.5116" lon="-0.33506">
        <ele>65</ele>
        <time>2012-08-20T09:02:58.998Z</time>
      </trkpt>
      <trkpt lat="47.51157" lon="-0.335">
        <ele>64</ele>
        <time>2012-08-20T09:03:01.998Z</time>
      </trkpt>
      <trkpt lat="47.51155" lon="-0.33494">
        <ele>63</ele>
        <time>2012-08-20T09:03:05.998Z</time>
      </trkpt>
      <trkpt lat="47.51153" lon="-0.33485">
        <ele>62</ele>
        <time>2012-08-20T09:03:09.998Z</time>
      </trkpt>
      <trkpt lat="47.5115" lon="-0.33478">
        <ele>61</ele>
        <time>2012-08-20T09:03:12.998Z</time>
      </trkpt>
      <trkpt lat="47.51146" lon="-0.33474">
        <ele>61</ele>
        <time>2012-08-20T09:03:14.998Z</time>
      </trkpt>
      <trkpt lat="47.51141" lon="-0.33471">
        <ele>61</ele>
        <time>2012-08-20T09:03:17.998Z</time>
      </trkpt>
      <trkpt lat="47.51138" lon="-0.33464">
        <ele>60</ele>
        <time>2012-08-20T09:03:21.998Z</time>
      </trkpt>
      <trkpt lat="47.51138" lon="-0.33457">
        <ele>60</ele>
        <time>2012-08-20T09:03:24.998Z</time>
      </trkpt>
      <trkpt lat="47.51137" lon="-0.3345">
        <ele>60</ele>
        <time>2012-08-20T09:03:27.998Z</time>
      </trkpt>
      <trkpt lat="47.51136" lon="-0.33442">
        <ele>60</ele>
        <time>2012-08-20T09:03:31.998Z</time>
      </trkpt>
      <trkpt lat="47.51133" lon="-0.33437">
        <ele>59</ele>
        <time>2012-08-20T09:03:35.998Z</time>
      </trkpt>
      <trkpt lat="47.51129" lon="-0.3343">
        <ele>59</ele>
        <time>2012-08-20T09:03:40.998Z</time>
      </trkpt>
      <trkpt lat="47.51123" lon="-0.3343">
        <ele>59</ele>
        <time>2012-08-20T09:03:43.998Z</time>
      </trkpt>
      <trkpt lat="47.51119" lon="-0.33426">
        <ele>59</ele>
        <time>2012-08-20T09:03:47.998Z</time>
      </trkpt>
      <trkpt lat="47.51115" lon="-0.3342">
        <ele>58</ele>
        <time>2012-08-20T09:03:51.998Z</time>
      </trkpt>
      <trkpt lat="47.51111" lon="-0.33416">
        <ele>55</ele>
        <time>2012-08-20T09:03:55.998Z</time>
      </trkpt>
      <trkpt lat="47.51107" lon="-0.33412">
        <ele>55</ele>
        <time>2012-08-20T09:03:59.998Z</time>
      </trkpt>
      <trkpt lat="47.51103" lon="-0.33408">
        <ele>55</ele>
        <time>2012-08-20T09:04:04.998Z</time>
      </trkpt>
      <trkpt lat="47.51099" lon="-0.33403">
        <ele>55</ele>
        <time>2012-08-20T09:04:08.998Z</time>
      </trkpt>
      <trkpt lat="47.51094" lon="-0.334">
        <ele>55</ele>
        <time>2012-08-20T09:04:11.998Z</time>
      </trkpt>
      <trkpt lat="47.5109" lon="-0.33397">
        <ele>55</ele>
        <time>2012-08-20T09:04:14.998Z</time>
      </trkpt>
      <trkpt lat="47.51085" lon="-0.33393">
        <ele>55</ele>
        <time>2012-08-20T09:04:18.998Z</time>
      </trkpt>
      <trkpt lat="47.51081" lon="-0.33389">
        <ele>52</ele>
        <time>2012-08-20T09:04:22.998Z</time>
      </trkpt>
      <trkpt lat="47.51076" lon="-0.33384">
        <ele>52</ele>
        <time>2012-08-20T09:04:26.998Z</time>
      </trkpt>
      <trkpt lat="47.51072" lon="-0.3338">
        <ele>52</ele>
        <time>2012-08-20T09:04:30.998Z</time>
      </trkpt>
      <trkpt lat="47.51067" lon="-0.33375">
        <ele>51</ele>
        <time>2012-08-20T09:04:34.998Z</time>
      </trkpt>
      <trkpt lat="47.51063" lon="-0.33368">
        <ele>51</ele>
        <time>2012-08-20T09:04:38.998Z</time>
      </trkpt>
      <trkpt lat="47.5106" lon="-0.33361">
        <ele>51</ele>
        <time>2012-08-20T09:04:42.998Z</time>
      </trkpt>
      <trkpt lat="47.51058" lon="-0.33353">
        <ele>51</ele>
        <time>2012-08-20T09:04:46.998Z</time>
      </trkpt>
      <trkpt lat="47.51057" lon="-0.33344">
        <ele>51</ele>
        <time>2012-08-20T09:04:50.998Z</time>
      </trkpt>
      <trkpt lat="47.51056" lon="-0.33336">
        <ele>51</ele>
        <time>2012-08-20T09:04:54.998Z</time>
      </trkpt>
      <trkpt lat="47.51054" lon="-0.33329">
        <ele>49</ele>
        <time>2012-08-20T09:04:58.998Z</time>
      </trkpt>
      <trkpt lat="47.51053" lon="-0.33322">
        <ele>49</ele>
        <time>2012-08-20T09:05:02.998Z</time>
      </trkpt>
      <trkpt lat="47.51052" lon="-0.33314">
        <ele>49</ele>
        <time>2012-08-20T09:05:06.998Z</time>
      </trkpt>
      <trkpt lat="47.51051" lon="-0.33307">
        <ele>49</ele>
        <time>2012-08-20T09:05:10.998Z</time>
      </trkpt>
      <trkpt lat="47.51049" lon="-0.333">
        <ele>49</ele>
        <time>2012-08-20T09:05:14.998Z</time>
      </trkpt>
      <trkpt lat="47.51048" lon="-0.33291">
        <ele>49</ele>
        <time>2012-08-20T09:05:18.998Z</time>
      </trkpt>
      <trkpt lat="47.51046" lon="-0.33283">
        <ele>49</ele>
        <time>2012-08-20T09:05:22.998Z</time>
      </trkpt>
      <trkpt lat="47.51045" lon="-0.33276">
        <ele>49</ele>
        <time>2012-08-20T09:05:26.998Z</time>
      </trkpt>
      <trkpt lat="47.51043" lon="-0.33269">
        <ele>49</ele>
        <time>2012-08-20T09:05:30.998Z</time>
      </trkpt>
      <trkpt lat="47.5104" lon="-0.33262">
        <ele>48</ele>
        <time>2012-08-20T09:05:34.998Z</time>
      </trkpt>
      <trkpt lat="47.51037" lon="-0.33255">
        <ele>48</ele>
        <time>2012-08-20T09:05:38.998Z</time>
      </trkpt>
      <trkpt lat="47.51032" lon="-0.33251">
        <ele>48</ele>
        <time>2012-08-20T09:05:42.998Z</time>
      </trkpt>
      <trkpt lat="47.51028" lon="-0.33246">
        <ele>47</ele>
        <time>2012-08-20T09:05:46.998Z</time>
      </trkpt>
      <trkpt lat="47.51022" lon="-0.33243">
        <ele>46</ele>
        <time>2012-08-20T09:05:50.998Z</time>
      </trkpt>
      <trkpt lat="47.51018" lon="-0.33241">
        <ele>46</ele>
        <time>2012-08-20T09:05:53.998Z</time>
      </trkpt>
      <trkpt lat="47.51012" lon="-0.33241">
        <ele>46</ele>
        <time>2012-08-20T09:05:56.998Z</time>
      </trkpt>
      <trkpt lat="47.51008" lon="-0.3324">
        <ele>46</ele>
        <time>2012-08-20T09:05:59.998Z</time>
      </trkpt>
      <trkpt lat="47.51002" lon="-0.33237">
        <ele>46</ele>
        <time>2012-08-20T09:06:03.998Z</time>
      </trkpt>
      <trkpt lat="47.50998" lon="-0.33233">
        <ele>44</ele>
        <time>2012-08-20T09:06:07.998Z</time>
      </trkpt>
      <trkpt lat="47.50992" lon="-0.3323">
        <ele>43</ele>
        <time>2012-08-20T09:06:11.998Z</time>
      </trkpt>
      <trkpt lat="47.50987" lon="-0.33226">
        <ele>43</ele>
        <time>2012-08-20T09:06:15.998Z</time>
      </trkpt>
      <trkpt lat="47.50983" lon="-0.33224">
        <ele>43</ele>
        <time>2012-08-20T09:06:18.998Z</time>
      </trkpt>
      <trkpt lat="47.50977" lon="-0.3322">
        <ele>43</ele>
        <time>2012-08-20T09:06:22.998Z</time>
      </trkpt>
      <trkpt lat="47.50972" lon="-0.33217">
        <ele>43</ele>
        <time>2012-08-20T09:06:26.998Z</time>
      </trkpt>
      <trkpt lat="47.50967" lon="-0.33214">
        <ele>43</ele>
        <time>2012-08-20T09:06:30.998Z</time>
      </trkpt>
      <trkpt lat="47.50962" lon="-0.3321">
        <ele>42</ele>
        <time>2012-08-20T09:06:34.998Z</time>
      </trkpt>
      <trkpt lat="47.50957" lon="-0.33206">
        <ele>42</ele>
        <time>2012-08-20T09:06:38.998Z</time>
      </trkpt>
      <trkpt lat="47.50952" lon="-0.33202">
        <ele>42</ele>
        <time>2012-08-20T09:06:42.998Z</time>
      </trkpt>
      <trkpt lat="47.50947" lon="-0.33197">
        <ele>42</ele>
        <time>2012-08-20T09:06:46.998Z</time>
      </trkpt>
      <trkpt lat="47.50942" lon="-0.33192">
        <ele>41</ele>
        <time>2012-08-20T09:06:50.998Z</time>
      </trkpt>
      <trkpt lat="47.50938" lon="-0.33187">
        <ele>41</ele>
        <time>2012-08-20T09:06:54.998Z</time>
      </trkpt>
      <trkpt lat="47.50933" lon="-0.33183">
        <ele>41</ele>
        <time>2012-08-20T09:06:58.998Z</time>
      </trkpt>
      <trkpt lat="47.50929" lon="-0.33178">
        <ele>40</ele>
        <time>2012-08-20T09:07:02.998Z</time>
      </trkpt>
      <trkpt lat="47.50929" lon="-0.3317">
        <ele>40</ele>
        <time>2012-08-20T09:07:06.998Z</time>
      </trkpt>
      <trkpt lat="47.5093" lon="-0.33163">
        <ele>39</ele>
        <time>2012-08-20T09:07:11.998Z</time>
      </trkpt>
      <trkpt lat="47.50934" lon="-0.33158">
        <ele>39</ele>
        <time>2012-08-20T09:07:16.998Z</time>
      </trkpt>
      <trkpt lat="47.50937" lon="-0.33152">
        <ele>39</ele>
        <time>2012-08-20T09:07:20.998Z</time>
      </trkpt>
      <trkpt lat="47.50941" lon="-0.33146">
        <ele>39</ele>
        <time>2012-08-20T09:07:24.998Z</time>
      </trkpt>
      <trkpt lat="47.50946" lon="-0.33141">
        <ele>39</ele>
        <time>2012-08-20T09:07:28.998Z</time>
      </trkpt>
      <trkpt lat="47.5095" lon="-0.33135">
        <ele>39</ele>
        <time>2012-08-20T09:07:32.998Z</time>
      </trkpt>
      <trkpt lat="47.50953" lon="-0.33129">
        <ele>39</ele>
        <time>2012-08-20T09:07:36.998Z</time>
      </trkpt>
      <trkpt lat="47.50956" lon="-0.33123">
        <ele>39</ele>
        <time>2012-08-20T09:07:39.998Z</time>
      </trkpt>
      <trkpt lat="47.50959" lon="-0.33118">
        <ele>39</ele>
        <time>2012-08-20T09:07:42.998Z</time>
      </trkpt>
      <trkpt lat="47.50963" lon="-0.33113">
        <ele>39</ele>
        <time>2012-08-20T09:07:45.998Z</time>
      </trkpt>
      <trkpt lat="47.50967" lon="-0.33108">
        <ele>39</ele>
        <time>2012-08-20T09:07:48.998Z</time>
      </trkpt>
      <trkpt lat="47.50971" lon="-0.33104">
        <ele>39</ele>
        <time>2012-08-20T09:07:51.998Z</time>
      </trkpt>
      <trkpt lat="47.50975" lon="-0.33099">
        <ele>39</ele>
        <time>2012-08-20T09:07:55.998Z</time>
      </trkpt>
      <trkpt lat="47.50978" lon="-0.33093">
        <ele>39</ele>
        <time>2012-08-20T09:07:59.998Z</time>
      </trkpt>
      <trkpt lat="47.50982" lon="-0.33087">
        <ele>40</ele>
        <time>2012-08-20T09:08:03.998Z</time>
      </trkpt>
      <trkpt lat="47.50987" lon="-0.33084">
        <ele>40</ele>
        <time>2012-08-20T09:08:07.998Z</time>
      </trkpt>
      <trkpt lat="47.50991" lon="-0.3308">
        <ele>39</ele>
        <time>2012-08-20T09:08:11.998Z</time>
      </trkpt>
      <trkpt lat="47.50995" lon="-0.33075">
        <ele>39</ele>
        <time>2012-08-20T09:08:15.998Z</time>
      </trkpt>
      <trkpt lat="47.50998" lon="-0.3307">
        <ele>39</ele>
        <time>2012-08-20T09:08:19.998Z</time>
      </trkpt>
      <trkpt lat="47.51001" lon="-0.33064">
        <ele>40</ele>
        <time>2012-08-20T09:08:23.998Z</time>
      </trkpt>
      <trkpt lat="47.51005" lon="-0.33059">
        <ele>40</ele>
        <time>2012-08-20T09:08:27.998Z</time>
      </trkpt>
      <trkpt lat="47.51009" lon="-0.33054">
        <ele>40</ele>
        <time>2012-08-20T09:08:31.998Z</time>
      </trkpt>
      <trkpt lat="47.51013" lon="-0.33049">
        <ele>40</ele>
        <time>2012-08-20T09:08:35.998Z</time>
      </trkpt>
      <trkpt lat="47.51017" lon="-0.33044">
        <ele>40</ele>
        <time>2012-08-20T09:08:39.998Z</time>
      </trkpt>
      <trkpt lat="47.51021" lon="-0.33038">
        <ele>39</ele>
        <time>2012-08-20T09:08:43.998Z</time>
      </trkpt>
      <trkpt lat="47.51025" lon="-0.33032">
        <ele>39</ele>
        <time>2012-08-20T09:08:47.998Z</time>
      </trkpt>
      <trkpt lat="47.51029" lon="-0.33027">
        <ele>39</ele>
        <time>2012-08-20T09:08:51.998Z</time>
      </trkpt>
      <trkpt lat="47.51032" lon="-0.33022">
        <ele>39</ele>
        <time>2012-08-20T09:08:55.998Z</time>
      </trkpt>
      <trkpt lat="47.51036" lon="-0.33016">
        <ele>39</ele>
        <time>2012-08-20T09:08:59.998Z</time>
      </trkpt>
      <trkpt lat="47.51039" lon="-0.3301">
        <ele>39</ele>
        <time>2012-08-20T09:09:03.998Z</time>
      </trkpt>
      <trkpt lat="47.51043" lon="-0.33004">
        <ele>39</ele>
        <time>2012-08-20T09:09:07.998Z</time>
      </trkpt>
      <trkpt lat="47.51046" lon="-0.32999">
        <ele>37</ele>
        <time>2012-08-20T09:09:11.998Z</time>
      </trkpt>
      <trkpt lat="47.51051" lon="-0.32995">
        <ele>37</ele>
        <time>2012-08-20T09:09:15.998Z</time>
      </trkpt>
      <trkpt lat="47.51055" lon="-0.32989">
        <ele>37</ele>
        <time>2012-08-20T09:09:19.998Z</time>
      </trkpt>
      <trkpt lat="47.51059" lon="-0.32984">
        <ele>38</ele>
        <time>2012-08-20T09:09:23.998Z</time>
      </trkpt>
      <trkpt lat="47.51062" lon="-0.32977">
        <ele>37</ele>
        <time>2012-08-20T09:09:27.998Z</time>
      </trkpt>
      <trkpt lat="47.51066" lon="-0.32971">
        <ele>37</ele>
        <time>2012-08-20T09:09:31.998Z</time>
      </trkpt>
      <trkpt lat="47.5107" lon="-0.32965">
        <ele>37</ele>
        <time>2012-08-20T09:09:35.998Z</time>
      </trkpt>
      <trkpt lat="47.51073" lon="-0.32959">
        <ele>37</ele>
        <time>2012-08-20T09:09:39.998Z</time>
      </trkpt>
      <trkpt lat="47.51077" lon="-0.32955">
        <ele>37</ele>
        <time>2012-08-20T09:09:43.998Z</time>
      </trkpt>
      <trkpt lat="47.51081" lon="-0.3295">
        <ele>37</ele>
        <time>2012-08-20T09:09:47.998Z</time>
      </trkpt>
      <trkpt lat="47.51084" lon="-0.32944">
        <ele>40</ele>
        <time>2012-08-20T09:09:52.998Z</time>
      </trkpt>
      <trkpt lat="47.51087" lon="-0.32937">
        <ele>39</ele>
        <time>2012-08-20T09:09:57.998Z</time>
      </trkpt>
      <trkpt lat="47.5109" lon="-0.32933">
        <ele>39</ele>
        <time>2012-08-20T09:10:01.998Z</time>
      </trkpt>
      <trkpt lat="47.51094" lon="-0.32928">
        <ele>39</ele>
        <time>2012-08-20T09:10:05.998Z</time>
      </trkpt>
      <trkpt lat="47.51098" lon="-0.32923">
        <ele>39</ele>
        <time>2012-08-20T09:10:09.998Z</time>
      </trkpt>
      <trkpt lat="47.51102" lon="-0.32918">
        <ele>39</ele>
        <time>2012-08-20T09:10:13.998Z</time>
      </trkpt>
      <trkpt lat="47.51106" lon="-0.32913">
        <ele>38</ele>
        <time>2012-08-20T09:10:17.998Z</time>
      </trkpt>
      <trkpt lat="47.5111" lon="-0.32907">
        <ele>38</ele>
        <time>2012-08-20T09:10:21.998Z</time>
      </trkpt>
      <trkpt lat="47.51113" lon="-0.32901">
        <ele>38</ele>
        <time>2012-08-20T09:10:25.998Z</time>
      </trkpt>
      <trkpt lat="47.51117" lon="-0.32896">
        <ele>38</ele>
        <time>2012-08-20T09:10:30.998Z</time>
      </trkpt>
      <trkpt lat="47.5112" lon="-0.3289">
        <ele>38</ele>
        <time>2012-08-20T09:10:34.998Z</time>
      </trkpt>
      <trkpt lat="47.51123" lon="-0.32886">
        <ele>38</ele>
        <time>2012-08-20T09:10:38.998Z</time>
      </trkpt>
      <trkpt lat="47.51127" lon="-0.3288">
        <ele>38</ele>
        <time>2012-08-20T09:10:42.998Z</time>
      </trkpt>
      <trkpt lat="47.5113" lon="-0.32875">
        <ele>38</ele>
        <time>2012-08-20T09:10:46.998Z</time>
      </trkpt>
      <trkpt lat="47.51134" lon="-0.3287">
        <ele>38</ele>
        <time>2012-08-20T09:10:50.998Z</time>
      </trkpt>
      <trkpt lat="47.51137" lon="-0.32864">
        <ele>38</ele>
        <time>2012-08-20T09:10:55.998Z</time>
      </trkpt>
      <trkpt lat="47.5114" lon="-0.32858">
        <ele>38</ele>
        <time>2012-08-20T09:10:58.998Z</time>
      </trkpt>
      <trkpt lat="47.51144" lon="-0.32852">
        <ele>38</ele>
        <time>2012-08-20T09:11:03.998Z</time>
      </trkpt>
      <trkpt lat="47.51147" lon="-0.32847">
        <ele>38</ele>
        <time>2012-08-20T09:11:07.998Z</time>
      </trkpt>
      <trkpt lat="47.51151" lon="-0.32843">
        <ele>38</ele>
        <time>2012-08-20T09:11:11.998Z</time>
      </trkpt>
      <trkpt lat="47.51154" lon="-0.32838">
        <ele>38</ele>
        <time>2012-08-20T09:11:14.998Z</time>
      </trkpt>
      <trkpt lat="47.51158" lon="-0.32833">
        <ele>37</ele>
        <time>2012-08-20T09:11:17.998Z</time>
      </trkpt>
      <trkpt lat="47.51161" lon="-0.32827">
        <ele>37</ele>
        <time>2012-08-20T09:11:21.998Z</time>
      </trkpt>
      <trkpt lat="47.51164" lon="-0.32821">
        <ele>37</ele>
        <time>2012-08-20T09:11:25.998Z</time>
      </trkpt>
      <trkpt lat="47.51168" lon="-0.32816">
        <ele>37</ele>
        <time>2012-08-20T09:11:29.998Z</time>
      </trkpt>
      <trkpt lat="47.5117" lon="-0.32811">
        <ele>37</ele>
        <time>2012-08-20T09:11:33.998Z</time>
      </trkpt>
      <trkpt lat="47.51174" lon="-0.32805">
        <ele>37</ele>
        <time>2012-08-20T09:11:37.998Z</time>
      </trkpt>
      <trkpt lat="47.51178" lon="-0.328">
        <ele>37</ele>
        <time>2012-08-20T09:11:41.998Z</time>
      </trkpt>
      <trkpt lat="47.51181" lon="-0.32794">
        <ele>37</ele>
        <time>2012-08-20T09:11:45.998Z</time>
      </trkpt>
      <trkpt lat="47.51179" lon="-0.32786">
        <ele>37</ele>
        <time>2012-08-20T09:13:25.998Z</time>
      </trkpt>
      <trkpt lat="47.51173" lon="-0.32782">
        <ele>36</ele>
        <time>2012-08-20T09:13:28.998Z</time>
      </trkpt>
      <trkpt lat="47.51169" lon="-0.32778">
        <ele>36</ele>
        <time>2012-08-20T09:13:31.998Z</time>
      </trkpt>
      <trkpt lat="47.51164" lon="-0.32774">
        <ele>35</ele>
        <time>2012-08-20T09:13:35.998Z</time>
      </trkpt>
      <trkpt lat="47.5116" lon="-0.32771">
        <ele>35</ele>
        <time>2012-08-20T09:13:39.998Z</time>
      </trkpt>
      <trkpt lat="47.51156" lon="-0.32767">
        <ele>35</ele>
        <time>2012-08-20T09:13:43.998Z</time>
      </trkpt>
      <trkpt lat="47.5115" lon="-0.32763">
        <ele>35</ele>
        <time>2012-08-20T09:13:47.998Z</time>
      </trkpt>
      <trkpt lat="47.51146" lon="-0.32759">
        <ele>35</ele>
        <time>2012-08-20T09:13:51.998Z</time>
      </trkpt>
      <trkpt lat="47.51141" lon="-0.32755">
        <ele>35</ele>
        <time>2012-08-20T09:13:55.998Z</time>
      </trkpt>
      <trkpt lat="47.51137" lon="-0.32751">
        <ele>35</ele>
        <time>2012-08-20T09:13:59.998Z</time>
      </trkpt>
      <trkpt lat="47.51133" lon="-0.32746">
        <ele>34</ele>
        <time>2012-08-20T09:14:03.998Z</time>
      </trkpt>
      <trkpt lat="47.51128" lon="-0.32741">
        <ele>34</ele>
        <time>2012-08-20T09:14:07.998Z</time>
      </trkpt>
      <trkpt lat="47.51123" lon="-0.32736">
        <ele>34</ele>
        <time>2012-08-20T09:14:11.998Z</time>
      </trkpt>
      <trkpt lat="47.51118" lon="-0.32732">
        <ele>34</ele>
        <time>2012-08-20T09:14:15.998Z</time>
      </trkpt>
      <trkpt lat="47.51115" lon="-0.32726">
        <ele>33</ele>
        <time>2012-08-20T09:14:19.998Z</time>
      </trkpt>
      <trkpt lat="47.51111" lon="-0.32721">
        <ele>33</ele>
        <time>2012-08-20T09:14:23.998Z</time>
      </trkpt>
      <trkpt lat="47.51106" lon="-0.32716">
        <ele>33</ele>
        <time>2012-08-20T09:14:27.998Z</time>
      </trkpt>
      <trkpt lat="47.51103" lon="-0.32711">
        <ele>33</ele>
        <time>2012-08-20T09:14:31.998Z</time>
      </trkpt>
      <trkpt lat="47.51099" lon="-0.32706">
        <ele>33</ele>
        <time>2012-08-20T09:14:35.998Z</time>
      </trkpt>
      <trkpt lat="47.51096" lon="-0.327">
        <ele>33</ele>
        <time>2012-08-20T09:14:39.998Z</time>
      </trkpt>
      <trkpt lat="47.51093" lon="-0.32695">
        <ele>33</ele>
        <time>2012-08-20T09:14:43.998Z</time>
      </trkpt>
      <trkpt lat="47.51089" lon="-0.32688">
        <ele>33</ele>
        <time>2012-08-20T09:14:47.998Z</time>
      </trkpt>
      <trkpt lat="47.51086" lon="-0.32682">
        <ele>33</ele>
        <time>2012-08-20T09:14:51.998Z</time>
      </trkpt>
      <trkpt lat="47.51082" lon="-0.32676">
        <ele>33</ele>
        <time>2012-08-20T09:14:55.998Z</time>
      </trkpt>
      <trkpt lat="47.51079" lon="-0.3267">
        <ele>33</ele>
        <time>2012-08-20T09:14:59.998Z</time>
      </trkpt>
      <trkpt lat="47.51075" lon="-0.32663">
        <ele>32</ele>
        <time>2012-08-20T09:15:03.998Z</time>
      </trkpt>
      <trkpt lat="47.51072" lon="-0.32656">
        <ele>32</ele>
        <time>2012-08-20T09:15:07.998Z</time>
      </trkpt>
      <trkpt lat="47.51068" lon="-0.32651">
        <ele>32</ele>
        <time>2012-08-20T09:15:11.998Z</time>
      </trkpt>
      <trkpt lat="47.51065" lon="-0.32645">
        <ele>32</ele>
        <time>2012-08-20T09:15:15.998Z</time>
      </trkpt>
      <trkpt lat="47.51062" lon="-0.32639">
        <ele>31</ele>
        <time>2012-08-20T09:15:20.998Z</time>
      </trkpt>
      <trkpt lat="47.51059" lon="-0.32633">
        <ele>31</ele>
        <time>2012-08-20T09:15:24.998Z</time>
      </trkpt>
      <trkpt lat="47.51056" lon="-0.32628">
        <ele>31</ele>
        <time>2012-08-20T09:15:28.998Z</time>
      </trkpt>
      <trkpt lat="47.51052" lon="-0.32623">
        <ele>31</ele>
        <time>2012-08-20T09:15:32.998Z</time>
      </trkpt>
      <trkpt lat="47.51049" lon="-0.32617">
        <ele>31</ele>
        <time>2012-08-20T09:15:36.998Z</time>
      </trkpt>
      <trkpt lat="47.51046" lon="-0.32611">
        <ele>31</ele>
        <time>2012-08-20T09:15:40.998Z</time>
      </trkpt>
      <trkpt lat="47.51041" lon="-0.32605">
        <ele>31</ele>
        <time>2012-08-20T09:15:44.998Z</time>
      </trkpt>
      <trkpt lat="47.51037" lon="-0.32599">
        <ele>31</ele>
        <time>2012-08-20T09:15:48.998Z</time>
      </trkpt>
      <trkpt lat="47.51033" lon="-0.32594">
        <ele>31</ele>
        <time>2012-08-20T09:15:52.998Z</time>
      </trkpt>
      <trkpt lat="47.51029" lon="-0.32588">
        <ele>31</ele>
        <time>2012-08-20T09:15:56.998Z</time>
      </trkpt>
      <trkpt lat="47.51025" lon="-0.32583">
        <ele>30</ele>
        <time>2012-08-20T09:16:00.998Z</time>
      </trkpt>
      <trkpt lat="47.5102" lon="-0.32578">
        <ele>30</ele>
        <time>2012-08-20T09:16:04.998Z</time>
      </trkpt>
      <trkpt lat="47.51016" lon="-0.32573">
        <ele>30</ele>
        <time>2012-08-20T09:16:08.998Z</time>
      </trkpt>
      <trkpt lat="47.51012" lon="-0.32569">
        <ele>30</ele>
        <time>2012-08-20T09:16:12.998Z</time>
      </trkpt>
      <trkpt lat="47.51008" lon="-0.32564">
        <ele>30</ele>
        <time>2012-08-20T09:16:16.998Z</time>
      </trkpt>
      <trkpt lat="47.51003" lon="-0.3256">
        <ele>30</ele>
        <time>2012-08-20T09:16:21.998Z</time>
      </trkpt>
      <trkpt lat="47.50998" lon="-0.32556">
        <ele>29</ele>
        <time>2012-08-20T09:16:26.998Z</time>
      </trkpt>
      <trkpt lat="47.50994" lon="-0.32551">
        <ele>29</ele>
        <time>2012-08-20T09:16:30.998Z</time>
      </trkpt>
      <trkpt lat="47.5099" lon="-0.32547">
        <ele>29</ele>
        <time>2012-08-20T09:16:34.998Z</time>
      </trkpt>
      <trkpt lat="47.50985" lon="-0.32542">
        <ele>29</ele>
        <time>2012-08-20T09:16:38.998Z</time>
      </trkpt>
      <trkpt lat="47.50981" lon="-0.32538">
        <ele>29</ele>
        <time>2012-08-20T09:16:42.998Z</time>
      </trkpt>
      <trkpt lat="47.50977" lon="-0.32534">
        <ele>29</ele>
        <time>2012-08-20T09:16:46.998Z</time>
      </trkpt>
      <trkpt lat="47.50973" lon="-0.32531">
        <ele>29</ele>
        <time>2012-08-20T09:16:50.998Z</time>
      </trkpt>
      <trkpt lat="47.50968" lon="-0.32528">
        <ele>29</ele>
        <time>2012-08-20T09:16:54.998Z</time>
      </trkpt>
      <trkpt lat="47.50964" lon="-0.32525">
        <ele>29</ele>
        <time>2012-08-20T09:16:58.998Z</time>
      </trkpt>
      <trkpt lat="47.50959" lon="-0.32521">
        <ele>29</ele>
        <time>2012-08-20T09:17:02.998Z</time>
      </trkpt>
      <trkpt lat="47.50955" lon="-0.32516">
        <ele>29</ele>
        <time>2012-08-20T09:17:06.998Z</time>
      </trkpt>
      <trkpt lat="47.50951" lon="-0.32512">
        <ele>29</ele>
        <time>2012-08-20T09:17:10.998Z</time>
      </trkpt>
      <trkpt lat="47.50946" lon="-0.3251">
        <ele>29</ele>
        <time>2012-08-20T09:17:14.998Z</time>
      </trkpt>
      <trkpt lat="47.50941" lon="-0.32507">
        <ele>29</ele>
        <time>2012-08-20T09:17:18.998Z</time>
      </trkpt>
      <trkpt lat="47.50937" lon="-0.32503">
        <ele>29</ele>
        <time>2012-08-20T09:17:22.998Z</time>
      </trkpt>
      <trkpt lat="47.50933" lon="-0.325">
        <ele>28</ele>
        <time>2012-08-20T09:17:26.998Z</time>
      </trkpt>
      <trkpt lat="47.50928" lon="-0.32496">
        <ele>28</ele>
        <time>2012-08-20T09:17:30.998Z</time>
      </trkpt>
      <trkpt lat="47.50924" lon="-0.32492">
        <ele>28</ele>
        <time>2012-08-20T09:17:34.998Z</time>
      </trkpt>
      <trkpt lat="47.50919" lon="-0.32489">
        <ele>28</ele>
        <time>2012-08-20T09:17:39.998Z</time>
      </trkpt>
      <trkpt lat="47.50917" lon="-0.32483">
        <ele>28</ele>
        <time>2012-08-20T09:18:13.998Z</time>
      </trkpt>
      <trkpt lat="47.50921" lon="-0.32476">
        <ele>28</ele>
        <time>2012-08-20T09:18:19.998Z</time>
      </trkpt>
      <trkpt lat="47.50922" lon="-0.32469">
        <ele>28</ele>
        <time>2012-08-20T09:18:23.998Z</time>
      </trkpt>
      <trkpt lat="47.5092" lon="-0.3246">
        <ele>28</ele>
        <time>2012-08-20T09:18:27.998Z</time>
      </trkpt>
      <trkpt lat="47.50918" lon="-0.32452">
        <ele>28</ele>
        <time>2012-08-20T09:18:30.998Z</time>
      </trkpt>
      <trkpt lat="47.50915" lon="-0.32446">
        <ele>28</ele>
        <time>2012-08-20T09:18:33.998Z</time>
      </trkpt>
      <trkpt lat="47.50912" lon="-0.3244">
        <ele>28</ele>
        <time>2012-08-20T09:18:37.998Z</time>
      </trkpt>
      <trkpt lat="47.50908" lon="-0.32434">
        <ele>27</ele>
        <time>2012-08-20T09:18:41.998Z</time>
      </trkpt>
      <trkpt lat="47.50904" lon="-0.32428">
        <ele>27</ele>
        <time>2012-08-20T09:18:47.998Z</time>
      </trkpt>
      <trkpt lat="47.50901" lon="-0.32422">
        <ele>27</ele>
        <time>2012-08-20T09:18:51.998Z</time>
      </trkpt>
      <trkpt lat="47.50896" lon="-0.32416">
        <ele>28</ele>
        <time>2012-08-20T09:18:55.998Z</time>
      </trkpt>
      <trkpt lat="47.50893" lon="-0.3241">
        <ele>28</ele>
        <time>2012-08-20T09:18:59.998Z</time>
      </trkpt>
      <trkpt lat="47.50888" lon="-0.32406">
        <ele>28</ele>
        <time>2012-08-20T09:19:04.998Z</time>
      </trkpt>
      <trkpt lat="47.50883" lon="-0.32404">
        <ele>28</ele>
        <time>2012-08-20T09:19:09.998Z</time>
      </trkpt>
      <trkpt lat="47.50879" lon="-0.324">
        <ele>28</ele>
        <time>2012-08-20T09:19:13.998Z</time>
      </trkpt>
      <trkpt lat="47.50874" lon="-0.32398">
        <ele>28</ele>
        <time>2012-08-20T09:19:17.998Z</time>
      </trkpt>
      <trkpt lat="47.50869" lon="-0.32396">
        <ele>28</ele>
        <time>2012-08-20T09:19:21.998Z</time>
      </trkpt>
      <trkpt lat="47.50864" lon="-0.32393">
        <ele>28</ele>
        <time>2012-08-20T09:19:25.998Z</time>
      </trkpt>
      <trkpt lat="47.50858" lon="-0.3239">
        <ele>28</ele>
        <time>2012-08-20T09:19:29.998Z</time>
      </trkpt>
      <trkpt lat="47.50853" lon="-0.32389">
        <ele>28</ele>
        <time>2012-08-20T09:19:33.998Z</time>
      </trkpt>
      <trkpt lat="47.50849" lon="-0.32388">
        <ele>28</ele>
        <time>2012-08-20T09:19:37.998Z</time>
      </trkpt>
      <trkpt lat="47.50844" lon="-0.32387">
        <ele>28</ele>
        <time>2012-08-20T09:19:41.998Z</time>
      </trkpt>
      <trkpt lat="47.50839" lon="-0.32386">
        <ele>28</ele>
        <time>2012-08-20T09:19:45.998Z</time>
      </trkpt>
      <trkpt lat="47.50834" lon="-0.32385">
        <ele>28</ele>
        <time>2012-08-20T09:19:49.998Z</time>
      </trkpt>
      <trkpt lat="47.50829" lon="-0.32386">
        <ele>29</ele>
        <time>2012-08-20T09:19:53.998Z</time>
      </trkpt>
      <trkpt lat="47.50824" lon="-0.32385">
        <ele>29</ele>
        <time>2012-08-20T09:19:57.998Z</time>
      </trkpt>
      <trkpt lat="47.50819" lon="-0.32386">
        <ele>29</ele>
        <time>2012-08-20T09:20:00.998Z</time>
      </trkpt>
      <trkpt lat="47.50814" lon="-0.32387">
        <ele>29</ele>
        <time>2012-08-20T09:20:03.998Z</time>
      </trkpt>
      <trkpt lat="47.5081" lon="-0.32386">
        <ele>29</ele>
        <time>2012-08-20T09:20:07.998Z</time>
      </trkpt>
      <trkpt lat="47.50808" lon="-0.3238">
        <ele>29</ele>
        <time>2012-08-20T09:20:14.998Z</time>
      </trkpt>
      <trkpt lat="47.50808" lon="-0.32373">
        <ele>29</ele>
        <time>2012-08-20T09:20:20.998Z</time>
      </trkpt>
      <trkpt lat="47.50809" lon="-0.32366">
        <ele>29</ele>
        <time>2012-08-20T09:20:25.998Z</time>
      </trkpt>
      <trkpt lat="47.5081" lon="-0.32358">
        <ele>29</ele>
        <time>2012-08-20T09:20:28.998Z</time>
      </trkpt>
      <trkpt lat="47.5081" lon="-0.32351">
        <ele>29</ele>
        <time>2012-08-20T09:20:31.998Z</time>
      </trkpt>
      <trkpt lat="47.50812" lon="-0.32344">
        <ele>29</ele>
        <time>2012-08-20T09:20:36.998Z</time>
      </trkpt>
      <trkpt lat="47.50813" lon="-0.32336">
        <ele>29</ele>
        <time>2012-08-20T09:20:40.998Z</time>
      </trkpt>
      <trkpt lat="47.50814" lon="-0.32328">
        <ele>29</ele>
        <time>2012-08-20T09:20:44.998Z</time>
      </trkpt>
      <trkpt lat="47.50816" lon="-0.3232">
        <ele>29</ele>
        <time>2012-08-20T09:20:48.998Z</time>
      </trkpt>
      <trkpt lat="47.50816" lon="-0.32311">
        <ele>29</ele>
        <time>2012-08-20T09:20:52.998Z</time>
      </trkpt>
      <trkpt lat="47.50818" lon="-0.32304">
        <ele>29</ele>
        <time>2012-08-20T09:20:56.998Z</time>
      </trkpt>
      <trkpt lat="47.50819" lon="-0.32296">
        <ele>29</ele>
        <time>2012-08-20T09:21:00.998Z</time>
      </trkpt>
      <trkpt lat="47.50821" lon="-0.32289">
        <ele>29</ele>
        <time>2012-08-20T09:21:04.998Z</time>
      </trkpt>
      <trkpt lat="47.50822" lon="-0.32282">
        <ele>29</ele>
        <time>2012-08-20T09:21:09.998Z</time>
      </trkpt>
      <trkpt lat="47.50824" lon="-0.32276">
        <ele>29</ele>
        <time>2012-08-20T09:21:13.998Z</time>
      </trkpt>
      <trkpt lat="47.50826" lon="-0.32268">
        <ele>29</ele>
        <time>2012-08-20T09:21:18.998Z</time>
      </trkpt>
      <trkpt lat="47.50828" lon="-0.32261">
        <ele>29</ele>
        <time>2012-08-20T09:21:22.998Z</time>
      </trkpt>
      <trkpt lat="47.50829" lon="-0.32254">
        <ele>29</ele>
        <time>2012-08-20T09:21:26.998Z</time>
      </trkpt>
      <trkpt lat="47.5083" lon="-0.32245">
        <ele>29</ele>
        <time>2012-08-20T09:21:31.998Z</time>
      </trkpt>
      <trkpt lat="47.50831" lon="-0.32239">
        <ele>29</ele>
        <time>2012-08-20T09:21:34.998Z</time>
      </trkpt>
      <trkpt lat="47.50833" lon="-0.32231">
        <ele>29</ele>
        <time>2012-08-20T09:21:38.998Z</time>
      </trkpt>
      <trkpt lat="47.50835" lon="-0.32224">
        <ele>28</ele>
        <time>2012-08-20T09:21:42.998Z</time>
      </trkpt>
      <trkpt lat="47.50836" lon="-0.32216">
        <ele>28</ele>
        <time>2012-08-20T09:21:47.998Z</time>
      </trkpt>
      <trkpt lat="47.50838" lon="-0.3221">
        <ele>28</ele>
        <time>2012-08-20T09:21:50.998Z</time>
      </trkpt>
      <trkpt lat="47.50839" lon="-0.32203">
        <ele>28</ele>
        <time>2012-08-20T09:21:53.998Z</time>
      </trkpt>
      <trkpt lat="47.50839" lon="-0.32195">
        <ele>28</ele>
        <time>2012-08-20T09:21:57.998Z</time>
      </trkpt>
      <trkpt lat="47.50841" lon="-0.32187">
        <ele>28</ele>
        <time>2012-08-20T09:22:01.998Z</time>
      </trkpt>
      <trkpt lat="47.50843" lon="-0.32178">
        <ele>29</ele>
        <time>2012-08-20T09:22:05.998Z</time>
      </trkpt>
      <trkpt lat="47.50844" lon="-0.32172">
        <ele>29</ele>
        <time>2012-08-20T09:22:08.998Z</time>
      </trkpt>
      <trkpt lat="47.50845" lon="-0.32165">
        <ele>29</ele>
        <time>2012-08-20T09:22:11.998Z</time>
      </trkpt>
      <trkpt lat="47.50846" lon="-0.32158">
        <ele>29</ele>
        <time>2012-08-20T09:22:14.998Z</time>
      </trkpt>
      <trkpt lat="47.50846" lon="-0.32151">
        <ele>29</ele>
        <time>2012-08-20T09:22:17.998Z</time>
      </trkpt>
      <trkpt lat="47.50848" lon="-0.32142">
        <ele>29</ele>
        <time>2012-08-20T09:22:21.998Z</time>
      </trkpt>
      <trkpt lat="47.50849" lon="-0.32135">
        <ele>29</ele>
        <time>2012-08-20T09:22:25.998Z</time>
      </trkpt>
      <trkpt lat="47.5085" lon="-0.32127">
        <ele>29</ele>
        <time>2012-08-20T09:22:29.998Z</time>
      </trkpt>
      <trkpt lat="47.50851" lon="-0.3212">
        <ele>29</ele>
        <time>2012-08-20T09:22:33.998Z</time>
      </trkpt>
      <trkpt lat="47.50851" lon="-0.32111">
        <ele>29</ele>
        <time>2012-08-20T09:22:38.998Z</time>
      </trkpt>
      <trkpt lat="47.50851" lon="-0.32104">
        <ele>29</ele>
        <time>2012-08-20T09:22:41.998Z</time>
      </trkpt>
      <trkpt lat="47.50851" lon="-0.32096">
        <ele>29</ele>
        <time>2012-08-20T09:22:45.998Z</time>
      </trkpt>
      <trkpt lat="47.50851" lon="-0.32088">
        <ele>29</ele>
        <time>2012-08-20T09:22:49.998Z</time>
      </trkpt>
      <trkpt lat="47.50852" lon="-0.3208">
        <ele>30</ele>
        <time>2012-08-20T09:22:53.998Z</time>
      </trkpt>
      <trkpt lat="47.50853" lon="-0.32074">
        <ele>30</ele>
        <time>2012-08-20T09:22:57.998Z</time>
      </trkpt>
      <trkpt lat="47.50855" lon="-0.32066">
        <ele>30</ele>
        <time>2012-08-20T09:23:01.998Z</time>
      </trkpt>
      <trkpt lat="47.50856" lon="-0.32059">
        <ele>30</ele>
        <time>2012-08-20T09:23:04.998Z</time>
      </trkpt>
      <trkpt lat="47.50857" lon="-0.32051">
        <ele>30</ele>
        <time>2012-08-20T09:23:07.998Z</time>
      </trkpt>
      <trkpt lat="47.50857" lon="-0.32044">
        <ele>30</ele>
        <time>2012-08-20T09:23:10.998Z</time>
      </trkpt>
      <trkpt lat="47.50857" lon="-0.32036">
        <ele>30</ele>
        <time>2012-08-20T09:23:23.998Z</time>
      </trkpt>
      <trkpt lat="47.50858" lon="-0.32028">
        <ele>30</ele>
        <time>2012-08-20T09:23:26.998Z</time>
      </trkpt>
      <trkpt lat="47.50861" lon="-0.32021">
        <ele>30</ele>
        <time>2012-08-20T09:23:29.997Z</time>
      </trkpt>
      <trkpt lat="47.50862" lon="-0.32014">
        <ele>30</ele>
        <time>2012-08-20T09:23:32.997Z</time>
      </trkpt>
      <trkpt lat="47.50863" lon="-0.32006">
        <ele>30</ele>
        <time>2012-08-20T09:23:36.997Z</time>
      </trkpt>
      <trkpt lat="47.50863" lon="-0.31997">
        <ele>32</ele>
        <time>2012-08-20T09:23:39.997Z</time>
      </trkpt>
      <trkpt lat="47.5086" lon="-0.31986">
        <ele>32</ele>
        <time>2012-08-20T09:23:41.997Z</time>
      </trkpt>
      <trkpt lat="47.50859" lon="-0.31976">
        <ele>32</ele>
        <time>2012-08-20T09:23:43.997Z</time>
      </trkpt>
      <trkpt lat="47.50859" lon="-0.31967">
        <ele>32</ele>
        <time>2012-08-20T09:23:45.997Z</time>
      </trkpt>
      <trkpt lat="47.50859" lon="-0.3196">
        <ele>32</ele>
        <time>2012-08-20T09:23:47.997Z</time>
      </trkpt>
      <trkpt lat="47.5086" lon="-0.3195">
        <ele>32</ele>
        <time>2012-08-20T09:23:50.997Z</time>
      </trkpt>
      <trkpt lat="47.50856" lon="-0.31946">
        <ele>32</ele>
        <time>2012-08-20T09:23:58.997Z</time>
      </trkpt>
      <trkpt lat="47.50862" lon="-0.31942">
        <ele>32</ele>
        <time>2012-08-20T09:24:04.997Z</time>
      </trkpt>
      <trkpt lat="47.50866" lon="-0.31942">
        <ele>32</ele>
        <time>2012-08-20T09:24:07.997Z</time>
      </trkpt>
      <trkpt lat="47.50871" lon="-0.31942">
        <ele>32</ele>
        <time>2012-08-20T09:24:09.997Z</time>
      </trkpt>
      <trkpt lat="47.50876" lon="-0.31944">
        <ele>32</ele>
        <time>2012-08-20T09:24:11.997Z</time>
      </trkpt>
      <trkpt lat="47.50882" lon="-0.31941">
        <ele>32</ele>
        <time>2012-08-20T09:24:14.997Z</time>
      </trkpt>
      <trkpt lat="47.50885" lon="-0.31935">
        <ele>32</ele>
        <time>2012-08-20T09:24:16.997Z</time>
      </trkpt>
      <trkpt lat="47.50886" lon="-0.31927">
        <ele>32</ele>
        <time>2012-08-20T09:24:18.997Z</time>
      </trkpt>
      <trkpt lat="47.50887" lon="-0.31918">
        <ele>32</ele>
        <time>2012-08-20T09:24:21.997Z</time>
      </trkpt>
      <trkpt lat="47.5089" lon="-0.31912">
        <ele>32</ele>
        <time>2012-08-20T09:24:24.997Z</time>
      </trkpt>
      <trkpt lat="47.50894" lon="-0.31906">
        <ele>32</ele>
        <time>2012-08-20T09:24:28.997Z</time>
      </trkpt>
      <trkpt lat="47.50895" lon="-0.31899">
        <ele>32</ele>
        <time>2012-08-20T09:24:32.997Z</time>
      </trkpt>
      <trkpt lat="47.50895" lon="-0.31892">
        <ele>32</ele>
        <time>2012-08-20T09:24:41.997Z</time>
      </trkpt>
      <trkpt lat="47.50894" lon="-0.31884">
        <ele>32</ele>
        <time>2012-08-20T09:24:45.997Z</time>
      </trkpt>
      <trkpt lat="47.50895" lon="-0.31877">
        <ele>32</ele>
        <time>2012-08-20T09:24:48.997Z</time>
      </trkpt>
      <trkpt lat="47.50895" lon="-0.3187">
        <ele>32</ele>
        <time>2012-08-20T09:24:51.997Z</time>
      </trkpt>
      <trkpt lat="47.50894" lon="-0.31863">
        <ele>32</ele>
        <time>2012-08-20T09:24:54.997Z</time>
      </trkpt>
      <trkpt lat="47.50892" lon="-0.31856">
        <ele>32</ele>
        <time>2012-08-20T09:24:57.997Z</time>
      </trkpt>
      <trkpt lat="47.50889" lon="-0.3185">
        <ele>32</ele>
        <time>2012-08-20T09:25:00.997Z</time>
      </trkpt>
      <trkpt lat="47.50885" lon="-0.31843">
        <ele>32</ele>
        <time>2012-08-20T09:25:03.997Z</time>
      </trkpt>
      <trkpt lat="47.50884" lon="-0.31836">
        <ele>32</ele>
        <time>2012-08-20T09:25:05.997Z</time>
      </trkpt>
      <trkpt lat="47.50884" lon="-0.31828">
        <ele>31</ele>
        <time>2012-08-20T09:25:07.997Z</time>
      </trkpt>
      <trkpt lat="47.50886" lon="-0.3182">
        <ele>31</ele>
        <time>2012-08-20T09:25:09.997Z</time>
      </trkpt>
      <trkpt lat="47.50888" lon="-0.31813">
        <ele>31</ele>
        <time>2012-08-20T09:25:11.997Z</time>
      </trkpt>
      <trkpt lat="47.50889" lon="-0.31806">
        <ele>31</ele>
        <time>2012-08-20T09:25:13.997Z</time>
      </trkpt>
      <trkpt lat="47.50889" lon="-0.31797">
        <ele>31</ele>
        <time>2012-08-20T09:25:16.997Z</time>
      </trkpt>
      <trkpt lat="47.50891" lon="-0.3179">
        <ele>31</ele>
        <time>2012-08-20T09:25:20.997Z</time>
      </trkpt>
      <trkpt lat="47.5089" lon="-0.31784">
        <ele>31</ele>
        <time>2012-08-20T09:25:23.997Z</time>
      </trkpt>
      <trkpt lat="47.50885" lon="-0.31781">
        <ele>31</ele>
        <time>2012-08-20T09:25:27.997Z</time>
      </trkpt>
      <trkpt lat="47.50881" lon="-0.31779">
        <ele>31</ele>
        <time>2012-08-20T09:25:31.997Z</time>
      </trkpt>
      <trkpt lat="47.50881" lon="-0.31772">
        <ele>31</ele>
        <time>2012-08-20T09:25:35.997Z</time>
      </trkpt>
      <trkpt lat="47.50876" lon="-0.31773">
        <ele>31</ele>
        <time>2012-08-20T09:25:42.997Z</time>
      </trkpt>
      <trkpt lat="47.50872" lon="-0.31776">
        <ele>31</ele>
        <time>2012-08-20T09:25:45.997Z</time>
      </trkpt>
      <trkpt lat="47.50866" lon="-0.31772">
        <ele>31</ele>
        <time>2012-08-20T09:26:01.997Z</time>
      </trkpt>
      <trkpt lat="47.50862" lon="-0.3177">
        <ele>31</ele>
        <time>2012-08-20T09:26:04.997Z</time>
      </trkpt>
      <trkpt lat="47.50855" lon="-0.31766">
        <ele>31</ele>
        <time>2012-08-20T09:26:07.997Z</time>
      </trkpt>
      <trkpt lat="47.50849" lon="-0.31762">
        <ele>31</ele>
        <time>2012-08-20T09:26:10.997Z</time>
      </trkpt>
      <trkpt lat="47.50845" lon="-0.31758">
        <ele>31</ele>
        <time>2012-08-20T09:26:13.997Z</time>
      </trkpt>
      <trkpt lat="47.5084" lon="-0.31752">
        <ele>31</ele>
        <time>2012-08-20T09:26:17.997Z</time>
      </trkpt>
      <trkpt lat="47.50836" lon="-0.31746">
        <ele>30</ele>
        <time>2012-08-20T09:26:20.997Z</time>
      </trkpt>
      <trkpt lat="47.50832" lon="-0.31742">
        <ele>31</ele>
        <time>2012-08-20T09:26:24.997Z</time>
      </trkpt>
      <trkpt lat="47.50826" lon="-0.31743">
        <ele>31</ele>
        <time>2012-08-20T09:26:27.997Z</time>
      </trkpt>
      <trkpt lat="47.50821" lon="-0.31744">
        <ele>31</ele>
        <time>2012-08-20T09:26:30.997Z</time>
      </trkpt>
      <trkpt lat="47.50816" lon="-0.31742">
        <ele>31</ele>
        <time>2012-08-20T09:26:33.997Z</time>
      </trkpt>
      <trkpt lat="47.5081" lon="-0.31742">
        <ele>31</ele>
        <time>2012-08-20T09:26:37.997Z</time>
      </trkpt>
      <trkpt lat="47.50805" lon="-0.3174">
        <ele>31</ele>
        <time>2012-08-20T09:26:42.997Z</time>
      </trkpt>
      <trkpt lat="47.508" lon="-0.31739">
        <ele>31</ele>
        <time>2012-08-20T09:26:46.997Z</time>
      </trkpt>
      <trkpt lat="47.50795" lon="-0.31736">
        <ele>31</ele>
        <time>2012-08-20T09:26:50.997Z</time>
      </trkpt>
      <trkpt lat="47.5079" lon="-0.31735">
        <ele>31</ele>
        <time>2012-08-20T09:26:53.997Z</time>
      </trkpt>
      <trkpt lat="47.50785" lon="-0.31734">
        <ele>31</ele>
        <time>2012-08-20T09:26:56.997Z</time>
      </trkpt>
      <trkpt lat="47.5078" lon="-0.31733">
        <ele>31</ele>
        <time>2012-08-20T09:26:59.997Z</time>
      </trkpt>
      <trkpt lat="47.50775" lon="-0.31732">
        <ele>31</ele>
        <time>2012-08-20T09:27:02.997Z</time>
      </trkpt>
      <trkpt lat="47.5077" lon="-0.3173">
        <ele>31</ele>
        <time>2012-08-20T09:27:05.997Z</time>
      </trkpt>
      <trkpt lat="47.50765" lon="-0.31728">
        <ele>31</ele>
        <time>2012-08-20T09:27:09.997Z</time>
      </trkpt>
      <trkpt lat="47.5076" lon="-0.31727">
        <ele>31</ele>
        <time>2012-08-20T09:27:13.997Z</time>
      </trkpt>
      <trkpt lat="47.50755" lon="-0.31726">
        <ele>31</ele>
        <time>2012-08-20T09:27:17.997Z</time>
      </trkpt>
      <trkpt lat="47.5075" lon="-0.31725">
        <ele>31</ele>
        <time>2012-08-20T09:27:21.997Z</time>
      </trkpt>
      <trkpt lat="47.50745" lon="-0.31723">
        <ele>32</ele>
        <time>2012-08-20T09:27:42.997Z</time>
      </trkpt>
      <trkpt lat="47.50733" lon="-0.31726">
        <ele>32</ele>
        <time>2012-08-20T09:27:56.997Z</time>
      </trkpt>
      <trkpt lat="47.50723" lon="-0.31723">
        <ele>32</ele>
        <time>2012-08-20T09:27:58.997Z</time>
      </trkpt>
      <trkpt lat="47.50716" lon="-0.31721">
        <ele>32</ele>
        <time>2012-08-20T09:27:59.997Z</time>
      </trkpt>
      <trkpt lat="47.50709" lon="-0.3172">
        <ele>32</ele>
        <time>2012-08-20T09:28:00.997Z</time>
      </trkpt>
      <trkpt lat="47.50703" lon="-0.31719">
        <ele>32</ele>
        <time>2012-08-20T09:28:01.997Z</time>
      </trkpt>
      <trkpt lat="47.50698" lon="-0.31719">
        <ele>32</ele>
        <time>2012-08-20T09:28:02.997Z</time>
      </trkpt>
      <trkpt lat="47.5069" lon="-0.31717">
        <ele>32</ele>
        <time>2012-08-20T09:28:04.997Z</time>
      </trkpt>
      <trkpt lat="47.50686" lon="-0.31715">
        <ele>32</ele>
        <time>2012-08-20T09:28:06.997Z</time>
      </trkpt>
      <trkpt lat="47.50681" lon="-0.31713">
        <ele>32</ele>
        <time>2012-08-20T09:28:09.997Z</time>
      </trkpt>
      <trkpt lat="47.50677" lon="-0.31709">
        <ele>32</ele>
        <time>2012-08-20T09:28:14.997Z</time>
      </trkpt>
      <trkpt lat="47.50672" lon="-0.31706">
        <ele>31</ele>
        <time>2012-08-20T09:28:20.997Z</time>
      </trkpt>
      <trkpt lat="47.50666" lon="-0.31703">
        <ele>31</ele>
        <time>2012-08-20T09:28:24.997Z</time>
      </trkpt>
      <trkpt lat="47.50662" lon="-0.31701">
        <ele>31</ele>
        <time>2012-08-20T09:28:28.997Z</time>
      </trkpt>
      <trkpt lat="47.50656" lon="-0.31699">
        <ele>31</ele>
        <time>2012-08-20T09:28:33.997Z</time>
      </trkpt>
      <trkpt lat="47.50652" lon="-0.31698">
        <ele>31</ele>
        <time>2012-08-20T09:28:37.997Z</time>
      </trkpt>
      <trkpt lat="47.50647" lon="-0.31695">
        <ele>31</ele>
        <time>2012-08-20T09:28:40.997Z</time>
      </trkpt>
      <trkpt lat="47.50642" lon="-0.31693">
        <ele>30</ele>
        <time>2012-08-20T09:28:44.997Z</time>
      </trkpt>
      <trkpt lat="47.50636" lon="-0.31693">
        <ele>30</ele>
        <time>2012-08-20T09:28:48.997Z</time>
      </trkpt>
      <trkpt lat="47.5063" lon="-0.31693">
        <ele>30</ele>
        <time>2012-08-20T09:28:52.997Z</time>
      </trkpt>
      <trkpt lat="47.50624" lon="-0.31693">
        <ele>30</ele>
        <time>2012-08-20T09:28:56.997Z</time>
      </trkpt>
      <trkpt lat="47.50619" lon="-0.31692">
        <ele>30</ele>
        <time>2012-08-20T09:29:00.997Z</time>
      </trkpt>
      <trkpt lat="47.50613" lon="-0.31691">
        <ele>30</ele>
        <time>2012-08-20T09:29:04.997Z</time>
      </trkpt>
      <trkpt lat="47.50608" lon="-0.31689">
        <ele>30</ele>
        <time>2012-08-20T09:29:09.997Z</time>
      </trkpt>
      <trkpt lat="47.50602" lon="-0.3169">
        <ele>30</ele>
        <time>2012-08-20T09:29:13.997Z</time>
      </trkpt>
      <trkpt lat="47.50596" lon="-0.31689">
        <ele>30</ele>
        <time>2012-08-20T09:30:28.997Z</time>
      </trkpt>
      <trkpt lat="47.50586" lon="-0.31686">
        <ele>30</ele>
        <time>2012-08-20T09:30:30.997Z</time>
      </trkpt>
      <trkpt lat="47.50579" lon="-0.31685">
        <ele>29</ele>
        <time>2012-08-20T09:30:31.997Z</time>
      </trkpt>
      <trkpt lat="47.50571" lon="-0.31684">
        <ele>29</ele>
        <time>2012-08-20T09:30:32.997Z</time>
      </trkpt>
      <trkpt lat="47.50562" lon="-0.31683">
        <ele>29</ele>
        <time>2012-08-20T09:30:33.997Z</time>
      </trkpt>
      <trkpt lat="47.50554" lon="-0.31682">
        <ele>29</ele>
        <time>2012-08-20T09:30:34.997Z</time>
      </trkpt>
      <trkpt lat="47.50546" lon="-0.31682">
        <ele>29</ele>
        <time>2012-08-20T09:30:35.997Z</time>
      </trkpt>
      <trkpt lat="47.50539" lon="-0.31681">
        <ele>28</ele>
        <time>2012-08-20T09:30:36.997Z</time>
      </trkpt>
      <trkpt lat="47.50532" lon="-0.31681">
        <ele>28</ele>
        <time>2012-08-20T09:30:37.997Z</time>
      </trkpt>
      <trkpt lat="47.50526" lon="-0.31681">
        <ele>28</ele>
        <time>2012-08-20T09:30:38.997Z</time>
      </trkpt>
      <trkpt lat="47.5052" lon="-0.31681">
        <ele>28</ele>
        <time>2012-08-20T09:30:39.997Z</time>
      </trkpt>
      <trkpt lat="47.50514" lon="-0.3168">
        <ele>28</ele>
        <time>2012-08-20T09:30:40.997Z</time>
      </trkpt>
      <trkpt lat="47.5051" lon="-0.3168">
        <ele>28</ele>
        <time>2012-08-20T09:30:41.997Z</time>
      </trkpt>
      <trkpt lat="47.50501" lon="-0.3168">
        <ele>28</ele>
        <time>2012-08-20T09:30:43.997Z</time>
      </trkpt>
      <trkpt lat="47.50495" lon="-0.3168">
        <ele>28</ele>
        <time>2012-08-20T09:30:45.997Z</time>
      </trkpt>
      <trkpt lat="47.50489" lon="-0.31679">
        <ele>28</ele>
        <time>2012-08-20T09:30:47.997Z</time>
      </trkpt>
      <trkpt lat="47.50485" lon="-0.31678">
        <ele>28</ele>
        <time>2012-08-20T09:30:49.997Z</time>
      </trkpt>
      <trkpt lat="47.50479" lon="-0.31678">
        <ele>28</ele>
        <time>2012-08-20T09:30:52.997Z</time>
      </trkpt>
      <trkpt lat="47.50473" lon="-0.31677">
        <ele>28</ele>
        <time>2012-08-20T09:30:55.997Z</time>
      </trkpt>
      <trkpt lat="47.50468" lon="-0.31676">
        <ele>28</ele>
        <time>2012-08-20T09:30:58.997Z</time>
      </trkpt>
      <trkpt lat="47.50462" lon="-0.31675">
        <ele>28</ele>
        <time>2012-08-20T09:31:02.997Z</time>
      </trkpt>
      <trkpt lat="47.50457" lon="-0.31676">
        <ele>27</ele>
        <time>2012-08-20T09:31:05.997Z</time>
      </trkpt>
      <trkpt lat="47.50452" lon="-0.31676">
        <ele>27</ele>
        <time>2012-08-20T09:31:08.997Z</time>
      </trkpt>
      <trkpt lat="47.50447" lon="-0.31677">
        <ele>27</ele>
        <time>2012-08-20T09:31:11.997Z</time>
      </trkpt>
      <trkpt lat="47.50442" lon="-0.31677">
        <ele>27</ele>
        <time>2012-08-20T09:31:14.997Z</time>
      </trkpt>
      <trkpt lat="47.50437" lon="-0.31677">
        <ele>27</ele>
        <time>2012-08-20T09:31:18.997Z</time>
      </trkpt>
      <trkpt lat="47.50431" lon="-0.31678">
        <ele>27</ele>
        <time>2012-08-20T09:31:22.997Z</time>
      </trkpt>
      <trkpt lat="47.50425" lon="-0.31678">
        <ele>27</ele>
        <time>2012-08-20T09:31:26.997Z</time>
      </trkpt>
      <trkpt lat="47.5042" lon="-0.31679">
        <ele>27</ele>
        <time>2012-08-20T09:31:30.997Z</time>
      </trkpt>
      <trkpt lat="47.50414" lon="-0.31678">
        <ele>27</ele>
        <time>2012-08-20T09:31:34.997Z</time>
      </trkpt>
      <trkpt lat="47.50408" lon="-0.31679">
        <ele>27</ele>
        <time>2012-08-20T09:31:38.997Z</time>
      </trkpt>
      <trkpt lat="47.50402" lon="-0.3168">
        <ele>27</ele>
        <time>2012-08-20T09:31:42.997Z</time>
      </trkpt>
      <trkpt lat="47.50396" lon="-0.31681">
        <ele>28</ele>
        <time>2012-08-20T09:31:46.997Z</time>
      </trkpt>
      <trkpt lat="47.50391" lon="-0.31682">
        <ele>28</ele>
        <time>2012-08-20T09:31:50.997Z</time>
      </trkpt>
      <trkpt lat="47.50385" lon="-0.31682">
        <ele>28</ele>
        <time>2012-08-20T09:31:54.997Z</time>
      </trkpt>
      <trkpt lat="47.50381" lon="-0.31682">
        <ele>28</ele>
        <time>2012-08-20T09:31:57.997Z</time>
      </trkpt>
      <trkpt lat="47.50375" lon="-0.31682">
        <ele>28</ele>
        <time>2012-08-20T09:32:01.997Z</time>
      </trkpt>
      <trkpt lat="47.50369" lon="-0.31682">
        <ele>28</ele>
        <time>2012-08-20T09:32:05.997Z</time>
      </trkpt>
      <trkpt lat="47.50364" lon="-0.31681">
        <ele>28</ele>
        <time>2012-08-20T09:32:09.997Z</time>
      </trkpt>
      <trkpt lat="47.50358" lon="-0.31681">
        <ele>28</ele>
        <time>2012-08-20T09:32:13.997Z</time>
      </trkpt>
      <trkpt lat="47.50353" lon="-0.31681">
        <ele>28</ele>
        <time>2012-08-20T09:32:17.997Z</time>
      </trkpt>
      <trkpt lat="47.50348" lon="-0.31681">
        <ele>28</ele>
        <time>2012-08-20T09:32:21.997Z</time>
      </trkpt>
      <trkpt lat="47.50342" lon="-0.31682">
        <ele>28</ele>
        <time>2012-08-20T09:32:25.997Z</time>
      </trkpt>
      <trkpt lat="47.50337" lon="-0.31682">
        <ele>28</ele>
        <time>2012-08-20T09:32:29.997Z</time>
      </trkpt>
      <trkpt lat="47.50332" lon="-0.31682">
        <ele>28</ele>
        <time>2012-08-20T09:32:33.997Z</time>
      </trkpt>
      <trkpt lat="47.50326" lon="-0.31684">
        <ele>29</ele>
        <time>2012-08-20T09:32:37.997Z</time>
      </trkpt>
      <trkpt lat="47.50321" lon="-0.31686">
        <ele>29</ele>
        <time>2012-08-20T09:32:41.997Z</time>
      </trkpt>
      <trkpt lat="47.50317" lon="-0.31688">
        <ele>29</ele>
        <time>2012-08-20T09:32:45.997Z</time>
      </trkpt>
      <trkpt lat="47.50312" lon="-0.3169">
        <ele>29</ele>
        <time>2012-08-20T09:32:50.997Z</time>
      </trkpt>
      <trkpt lat="47.50307" lon="-0.31692">
        <ele>29</ele>
        <time>2012-08-20T09:32:54.997Z</time>
      </trkpt>
      <trkpt lat="47.50302" lon="-0.31694">
        <ele>29</ele>
        <time>2012-08-20T09:32:58.997Z</time>
      </trkpt>
    </trkseg>
  </trk>
</gpx>